[[{"header":{"parameterUnit":"m.s-1","parameterCategory":1,"la1":30.6,"la2":28.766,"lo1":-90.7593,"lo2":-88.6598,"dy":0.0162,"dx":0.0183,"nx":116,"ny":114,"refTime":"2023-05-27T12:00:00:Z","depth":0,"parameterNumber":2,"parameterNumberName":"U-component_of_WINDS"},"data":[0.0,0.0,0.0,0.0,0.0,0.0,0.0,0.0,0.0,0.0,0.0,0.0,0.0,0.0,0.0,0.0,0.0,0.0,0.0,0.0,0.0,0.0,0.0,0.0,0.0,0.0,0.0,0.0,0.0,0.0,0.0,0.0,0.0,0.0,0.0,0.0,0.0,0.0,0.0,0.0,0.0,0.0,0.0,0.0,0.0,0.0,0.0,0.0,0.0,0.0,0.0,0.0,0.0,0.0,0.0,0.0,0.0,0.0,0.0,0.0,0.0,0.0,0.0,0.0,0.0,0.0,0.0,0.0,0.0,0.0,0.0,0.0,0.0,0.0,0.0,0.0,0.0,0.0,0.0,0.0,0.0,0.0,0.0,0.0,0.0,0.0,0.0,0.0,0.0,0.0,0.0,0.0,0.0,0.0,0.0,0.0,0.0,0.0,0.0,0.0,0.0,0.0,0.0,0.0,0.0,0.0,0.0,0.0,0.0,0.0,0.0,0.0,0.0,0.0,0.0,0.0,0.0,0.0,0.0,0.0,0.0,0.0,0.0,0.0,0.0,0.0,0.0,0.0,0.0,0.0,0.0,0.0,0.0,0.0,0.0,0.0,0.0,0.0,0.0,0.0,0.0,0.0,0.0,0.0,0.0,0.0,0.0,0.0,0.0,0.0,0.0,0.0,0.0,0.0,0.0,0.0,0.0,0.0,0.0,0.0,0.0,0.0,0.0,0.0,0.0,0.0,0.0,0.0,0.0,0.0,0.0,0.0,0.0,0.0,0.0,0.0,0.0,0.0,0.0,0.0,0.0,0.0,0.0,0.0,0.0,0.0,0.0,0.0,0.0,0.0,0.0,0.0,0.0,0.0,0.0,0.0,0.0,0.0,0.0,0.0,0.0,0.0,0.0,0.0,0.0,0.0,0.0,0.0,0.0,0.0,0.0,0.0,0.0,0.0,0.0,0.0,0.0,0.0,0.0,0.0,0.0,0.0,0.0,0.0,0.0,0.0,0.0,0.0,0.0,0.0,0.0,0.0,0.0,0.0,0.0,0.0,0.0,0.0,0.0,0.0,0.0,0.0,0.0,0.0,0.0,0.0,0.0,0.0,0.0,0.0,0.0,0.0,0.0,0.0,0.0,0.0,0.0,0.0,0.0,0.0,0.0,0.0,0.0,0.0,0.0,0.0,0.0,0.0,0.0,0.0,0.0,0.0,0.0,0.0,0.0,0.0,0.0,0.0,0.0,0.0,0.0,0.0,0.0,0.0,0.0,0.0,0.0,0.0,0.0,0.0,0.0,0.0,0.0,0.0,0.0,0.0,0.0,0.0,0.0,0.0,0.0,0.0,0.0,0.0,0.0,0.0,0.0,0.0,0.0,0.0,0.0,0.0,0.0,0.0,0.0,0.0,0.0,0.0,0.0,0.0,0.0,0.0,0.0,0.0,0.0,0.0,0.0,0.0,0.0,0.0,0.0,0.0,0.0,0.0,0.0,0.0,0.0,0.0,0.0,0.0,0.0,0.0,0.0,0.0,0.0,0.0,0.0,0.0,0.0,0.0,0.0,0.0,0.0,0.0,0.0,0.0,0.0,0.0,0.0,0.0,0.0,0.0,0.0,0.0,0.0,0.0,0.0,0.0,0.0,0.0,0.0,0.0,0.0,0.0,0.0,0.0,0.0,0.0,0.0,0.0,0.0,0.0,0.0,0.0,0.0,0.0,0.0,0.0,0.0,0.0,0.0,0.0,0.0,0.0,0.0,0.0,0.0,0.0,0.0,0.0,0.0,0.0,0.0,0.0,0.0,0.0,0.0,0.0,0.0,0.0,0.0,0.0,0.0,0.0,0.0,0.0,0.0,0.0,0.0,0.0,0.0,0.0,0.0,0.0,0.0,0.0,0.0,0.0,0.0,0.0,0.0,0.0,0.0,0.0,0.0,0.0,0.0,0.0,0.0,0.0,0.0,0.0,0.0,0.0,0.0,0.0,0.0,0.0,0.0,0.0,0.0,0.0,0.0,0.0,0.0,0.0,0.0,0.0,0.0,0.0,0.0,0.0,0.0,0.0,0.0,0.0,0.0,0.0,0.0,0.0,0.0,0.0,0.0,0.0,0.0,0.0,0.0,0.0,0.0,0.0,0.0,0.0,0.0,0.0,0.0,0.0,0.0,0.0,0.0,0.0,0.0,0.0,0.0,0.0,0.0,0.0,0.0,0.0,0.0,0.0,0.0,0.0,0.0,0.0,0.0,0.0,0.0,0.0,0.0,0.0,0.0,0.0,0.0,0.0,0.0,0.0,0.0,0.0,0.0,0.0,0.0,0.0,0.0,0.0,0.0,0.0,0.0,0.0,0.0,0.0,0.0,0.0,0.0,0.0,0.0,0.0,0.0,0.0,0.0,0.0,0.0,0.0,0.0,0.0,0.0,0.0,0.0,0.0,0.0,0.0,0.0,0.0,0.0,0.0,0.0,0.0,0.0,0.0,0.0,0.0,0.0,0.0,0.0,0.0,0.0,0.0,0.0,0.0,0.0,0.0,0.0,0.0,0.0,0.0,0.0,0.0,0.0,0.0,0.0,0.0,0.0,0.0,0.0,0.0,0.0,0.0,0.0,0.0,0.0,0.0,0.0,0.0,0.0,0.0,0.0,0.0,0.0,0.0,0.0,0.0,0.0,0.0,0.0,0.0,0.0,0.0,0.0,0.0,0.0,0.0,0.0,0.0,0.0,0.0,0.0,0.0,0.0,0.0,0.0,0.0,0.0,0.0,0.0,0.0,0.0,0.0,0.0,0.0,0.0,0.0,0.0,0.0,0.0,0.0,0.0,0.0,0.0,0.0,0.0,0.0,0.0,0.0,0.0,0.0,0.0,0.0,0.0,0.0,0.0,0.0,0.0,0.0,0.0,0.0,0.0,0.0,0.0,0.0,0.0,0.0,0.0,0.0,0.0,0.0,0.0,0.0,0.0,0.0,0.0,0.0,0.0,0.0,0.0,0.0,0.0,0.0,0.0,0.0,0.0,0.0,0.0,0.0,0.0,0.0,0.0,0.0,0.0,0.0,0.0,0.0,0.0,0.0,0.0,0.0,0.0,0.0,0.0,0.0,0.0,0.0,0.0,0.0,0.0,0.0,0.0,0.0,0.0,0.0,0.0,0.0,0.0,0.0,0.0,0.0,0.0,0.0,0.0,0.0,0.0,0.0,0.0,0.0,0.0,0.0,0.0,0.0,0.0,0.0,0.0,0.0,0.0,0.0,0.0,0.0,0.0,0.0,0.0,0.0,0.0,0.0,0.0,0.0,0.0,0.0,0.0,0.0,0.0,0.0,0.0,0.0,0.0,0.0,0.0,0.0,0.0,0.0,0.0,0.0,0.0,0.0,0.0,0.0,0.0,0.0,0.0,0.0,0.0,0.0,0.0,0.0,0.0,0.0,0.0,0.0,0.0,0.0,0.0,0.0,0.0,0.0,0.0,0.0,0.0,0.0,0.0,0.0,0.0,0.0,0.0,0.0,0.0,0.0,0.0,0.0,0.0,0.0,0.0,0.0,0.0,0.0,0.0,0.0,0.0,0.0,0.0,0.0,0.0,0.0,0.0,0.0,0.0,0.0,0.0,0.0,0.0,0.0,0.0,0.0,0.0,0.0,0.0,0.0,0.0,0.0,0.0,0.0,0.0,0.0,0.0,0.0,0.0,0.0,0.0,0.0,0.0,0.0,0.0,0.0,0.0,0.0,0.0,0.0,0.0,0.0,0.0,0.0,0.0,0.0,0.0,0.0,0.0,0.0,0.0,0.0,0.0,0.0,0.0,0.0,0.0,0.0,0.0,0.0,0.0,0.0,0.0,0.0,0.0,0.0,0.0,0.0,0.0,0.0,0.0,0.0,0.0,0.0,0.0,0.0,0.0,0.0,0.0,0.0,0.0,0.0,0.0,0.0,0.0,0.0,0.0,0.0,0.0,0.0,0.0,0.0,0.0,0.0,0.0,0.0,0.0,0.0,0.0,0.0,0.0,0.0,0.0,0.0,0.0,0.0,0.0,0.0,0.0,0.0,0.0,0.0,0.0,0.0,0.0,0.0,0.0,0.0,0.0,0.0,0.0,0.0,0.0,0.0,0.0,0.0,0.0,0.0,0.0,0.0,0.0,0.0,0.0,0.0,0.0,0.0,0.0,0.0,0.0,0.0,0.0,0.0,0.0,0.0,0.0,0.0,0.0,0.0,0.0,0.0,0.0,0.0,0.0,0.0,0.0,0.0,0.0,0.0,0.0,0.0,0.0,0.0,0.0,0.0,0.0,0.0,0.0,0.0,0.0,0.0,0.0,0.0,0.0,0.0,0.0,0.0,0.0,0.0,0.0,0.0,0.0,0.0,0.0,0.0,0.0,0.0,0.0,0.0,0.0,0.0,0.0,0.0,0.0,0.0,0.0,0.0,0.0,0.0,0.0,0.0,0.0,0.0,0.0,0.0,0.0,0.0,0.0,0.0,0.0,0.0,0.0,0.0,0.0,0.0,0.0,0.0,0.0,0.0,0.0,0.0,0.0,0.0,0.0,0.0,0.0,0.0,0.0,0.0,0.0,0.0,0.0,0.0,0.0,0.0,0.0,0.0,0.0,0.0,0.0,0.0,0.0,0.0,0.0,0.0,0.0,0.0,0.0,0.0,0.0,0.0,0.0,0.0,0.0,0.0,0.0,0.0,0.0,0.0,0.0,0.0,0.0,0.0,0.0,0.0,0.0,0.0,0.0,0.0,0.0,0.0,0.0,0.0,0.0,0.0,0.0,0.0,0.0,0.0,0.0,0.0,0.0,0.0,0.0,0.0,0.0,0.0,0.0,0.0,0.0,0.0,0.0,0.0,0.0,0.0,0.0,0.0,0.0,0.0,0.0,0.0,0.0,0.0,0.0,0.0,0.0,0.0,0.0,0.0,0.0,0.0,0.0,0.0,0.0,0.0,0.0,0.0,0.0,0.0,0.0,0.0,0.0,0.0,0.0,0.0,0.0,0.0,0.0,0.0,0.0,0.0,0.0,0.0,0.0,0.0,0.0,0.0,0.0,0.0,0.0,0.0,0.0,0.0,0.0,0.0,0.0,0.0,0.0,0.0,0.0,0.0,0.0,0.0,0.0,0.0,0.0,0.0,0.0,0.0,0.0,0.0,0.0,0.0,0.0,0.0,0.0,0.0,0.0,0.0,0.0,0.0,0.0,0.0,0.0,0.0,0.0,0.0,0.0,0.0,0.0,0.0,0.0,0.0,0.0,0.0,0.0,0.0,0.0,0.0,0.0,0.0,0.0,0.0,0.0,0.0,0.0,0.0,0.0,0.0,0.0,0.0,0.0,0.0,0.0,0.0,0.0,0.0,0.0,0.0,0.0,0.0,0.0,0.0,0.0,0.0,0.0,0.0,0.0,0.0,0.0,0.0,0.0,0.0,0.0,0.0,0.0,0.0,0.0,0.0,0.0,0.0,0.0,0.0,0.0,0.0,0.0,0.0,0.0,0.0,0.0,0.0,0.0,0.0,0.0,0.0,0.0,0.0,0.0,0.0,0.0,0.0,0.0,0.0,0.0,0.0,0.0,0.0,0.0,0.0,0.0,0.0,0.0,0.0,0.0,0.0,0.0,0.0,0.0,0.0,0.0,0.0,0.0,0.0,0.0,0.0,0.0,0.0,0.0,0.0,0.0,0.0,0.0,0.0,0.0,0.0,0.0,0.0,0.0,0.0,0.0,0.0,0.0,0.0,0.0,0.0,0.0,0.0,0.0,0.0,0.0,0.0,0.0,0.0,0.0,0.0,0.0,0.0,0.0,0.0,0.0,0.0,0.0,0.0,0.0,0.0,0.0,0.0,0.0,0.0,0.0,0.0,0.0,0.0,0.0,0.0,0.0,0.0,0.0,0.0,0.0,0.0,0.0,0.0,0.0,0.0,0.0,0.0,0.0,0.0,0.0,0.0,0.0,0.0,0.0,0.0,0.0,0.0,0.0,0.0,0.0,0.0,0.0,0.0,0.0,0.0,0.0,0.0,0.0,0.0,0.0,0.0,0.0,0.0,0.0,0.0,0.0,0.0,0.0,0.0,0.0,0.0,0.0,0.0,0.0,0.0,0.0,0.0,0.0,0.0,1.0348,1.0559,0.0,0.0,0.0,0.0,0.0,0.0,0.0,0.0,0.0,0.0,0.0,0.0,0.0,0.0,0.0,0.0,0.0,0.0,0.0,0.0,0.0,0.0,0.0,0.0,0.0,0.0,0.0,0.0,0.0,0.0,0.0,0.0,0.0,0.0,0.0,0.0,0.0,0.0,0.0,0.0,0.0,0.0,0.0,0.0,0.0,0.0,0.0,0.0,0.0,0.0,0.0,0.0,0.0,0.0,0.0,0.0,0.0,0.0,0.0,0.0,0.0,0.0,0.0,0.0,0.0,0.0,0.0,0.0,0.0,0.0,0.0,0.0,0.0,0.0,0.0,0.0,0.0,0.0,0.0,0.0,0.0,0.0,0.0,0.0,0.0,0.0,0.0,0.0,0.0,0.0,0.0,0.0,0.0,0.0,0.0,0.0,0.0,0.0,0.0,0.0,0.0,0.0,0.0,0.0,0.0,0.0,0.0,0.0,0.0,0.0,0.0,0.0,0.0,0.0,0.995,1.0213,0.0,0.0,0.0,0.0,0.0,0.0,0.0,0.0,0.0,0.0,0.0,0.0,0.0,0.0,0.0,0.0,0.0,0.0,0.0,0.0,0.0,0.0,0.0,0.0,0.0,0.0,0.0,0.0,0.0,0.0,0.0,0.0,0.0,0.0,0.0,0.0,0.0,0.0,0.0,0.0,0.0,0.0,0.0,0.0,0.0,0.0,0.0,0.0,0.0,0.0,0.0,0.0,0.0,0.0,0.0,0.0,0.0,0.0,0.0,0.0,0.0,0.0,0.0,0.0,0.0,0.0,0.0,0.0,0.0,0.0,0.0,0.0,0.0,0.0,0.0,0.0,0.0,0.0,0.0,0.0,0.0,0.0,0.0,0.0,0.0,0.0,0.0,0.0,0.0,0.0,0.0,0.0,0.0,0.0,0.0,0.0,0.0,0.0,0.0,0.0,0.0,0.0,0.0,0.0,0.0,0.0,0.0,0.0,0.9531,0.9275,0.9419,0.8985,0.8886,0.9162,0.9545,0.985,1.0133,1.0109,0.0,0.0,0.0,0.0,0.0,0.0,0.0,0.0,0.0,0.0,0.0,0.0,0.0,0.0,0.0,0.0,0.0,0.0,0.0,0.0,0.0,0.0,1.8524,1.8545,1.8471,1.8413,0.0,0.0,0.0,0.0,0.0,0.0,0.0,0.0,0.0,0.0,0.0,0.0,1.2508,1.2388,1.273,1.355,1.4715,0.0,0.0,0.0,0.0,0.0,0.0,0.0,0.0,0.0,0.0,0.0,0.0,0.0,0.0,0.0,0.0,0.0,0.0,0.0,0.0,0.0,0.0,0.0,0.0,0.0,0.0,0.0,0.0,0.0,0.0,0.0,0.0,0.0,0.0,0.0,0.0,0.0,0.0,0.0,0.0,0.0,0.0,0.0,1.1616,1.0889,0.0,0.0,0.0,0.0,0.0,0.0,0.0,0.0,0.0,0.0,0.0,0.0,0.0,0.9369,0.9827,0.9809,1.0037,1.0497,0.9927,0.9472,0.9187,0.9682,0.9364,0.85,0.9379,0.0,1.0308,1.0595,0.0,0.0,0.0,0.0,0.0,0.0,0.0,0.0,0.0,0.0,0.0,0.0,0.0,0.0,0.0,0.0,0.0,0.0,0.0,0.0,0.0,1.8715,1.8715,1.8771,1.8661,1.8605,0.0,0.0,0.0,0.0,0.0,0.0,0.0,0.0,0.0,0.0,1.2303,1.2118,1.2496,1.2284,1.2418,1.2961,1.3795,1.4724,1.5575,1.5922,0.0,0.0,0.0,0.0,0.0,0.0,0.0,0.0,0.0,0.0,0.0,0.0,0.0,0.0,0.0,0.0,0.0,0.0,0.0,0.0,0.0,0.0,0.0,0.0,0.0,0.0,0.0,0.0,0.0,0.0,0.0,0.0,0.0,0.0,0.0,0.0,0.0,0.0,0.0,1.1724,1.1116,1.0468,1.0026,0.9622,0.0,0.0,0.0,0.0,0.0,0.0,0.0,0.0,0.0,0.8939,0.8334,0.845,0.9355,0.9052,0.943,1.0471,0.9361,0.8885,0.9003,0.8533,0.8383,0.8389,0.9265,0.9668,0.9646,0.9532,0.9625,0.9708,0.0,0.0,0.0,0.0,0.9758,0.9911,0.0,0.0,0.0,0.0,0.0,0.0,0.0,0.0,0.0,0.0,0.0,0.0,1.8946,1.8946,1.8981,1.9048,1.8947,1.8877,1.8876,0.0,0.0,0.0,0.0,0.0,0.0,0.0,0.0,1.1858,1.1499,1.1747,1.251,1.2024,1.2045,1.2478,1.2782,1.3652,1.4886,1.531,1.5355,0.0,0.0,0.0,0.0,0.0,0.0,0.0,0.0,0.0,0.0,0.0,0.0,0.0,0.0,0.0,0.0,0.0,0.0,0.0,0.0,0.0,0.0,0.0,0.0,0.0,0.0,0.0,0.0,0.0,0.0,0.0,0.0,0.0,0.0,0.0,0.0,0.0,0.0,1.0896,1.0653,0.9993,0.9523,0.9134,0.0,0.0,0.0,0.0,0.0,0.0,0.8855,0.8324,0.8212,0.862,0.7975,0.7933,0.8739,0.8565,0.9006,1.0055,0.8986,0.8555,0.8697,0.8108,0.7952,0.8088,0.8955,0.9078,0.87,0.8907,0.9085,0.9214,0.8759,0.883,0.9174,0.915,0.9126,0.911,0.0,0.0,0.0,0.0,0.0,0.0,0.0,0.0,0.0,0.0,0.0,1.931,1.935,1.9382,1.9397,1.9458,1.9405,1.9346,1.9361,1.9434,0.0,0.0,0.0,0.0,0.0,0.0,0.0,1.0882,1.0891,1.1374,1.2179,1.1239,1.1185,1.1824,1.1767,1.2633,1.4221,1.4144,1.434,1.4709,0.0,0.0,0.0,0.0,0.0,0.0,0.0,0.0,0.0,0.0,0.0,0.0,0.0,0.0,0.0,0.0,0.0,0.0,0.0,0.0,0.0,0.0,0.0,0.0,0.0,0.0,0.0,0.0,0.0,0.0,0.0,0.0,0.0,0.0,0.0,0.0,0.0,0.0,0.0,0.9325,0.8984,0.0,0.0,0.0,0.0,0.817,0.8509,0.8796,0.8995,0.82,0.8046,0.8748,0.8872,0.857,0.7962,0.8986,0.9365,0.9047,0.9393,0.9044,0.8263,0.9613,0.903,0.7072,0.8223,0.8196,0.7487,0.9471,0.9556,0.8331,0.7825,0.7801,0.8043,0.8354,0.8628,0.8936,0.0,0.0,0.0,0.0,0.0,0.0,0.0,0.0,0.0,1.9619,1.9613,1.9626,1.9651,1.9651,1.9682,1.9695,1.9632,1.9606,1.9645,1.9712,0.0,0.0,0.0,0.0,0.0,0.0,0.9502,0.9951,1.0522,1.1245,1.2111,1.1918,1.1846,1.1957,1.2089,1.2675,1.3509,1.3662,1.3674,1.3627,1.3542,1.3314,0.0,0.0,0.0,0.0,0.0,0.0,0.0,0.0,0.0,0.0,0.0,0.0,0.0,0.0,0.0,0.0,0.0,0.0,0.0,0.0,0.0,0.0,0.0,0.0,0.0,0.0,0.0,0.0,0.0,0.0,0.0,0.0,0.0,0.0,0.0,0.0,0.0,0.9259,0.8947,0.0,0.8663,0.8693,0.8398,0.7709,0.8089,0.8322,0.8407,0.7317,0.7207,0.8107,0.7261,0.6999,0.7471,0.7709,0.817,0.8802,0.8374,0.8084,0.7928,0.8221,0.8134,0.7903,0.9034,0.9175,0.8817,1.0099,0.9667,0.8078,0.8015,0.8215,0.8501,0.8804,0.8766,0.8642,0.0,0.0,0.0,0.0,0.0,0.0,0.0,0.0,0.0,1.9909,1.992,1.9901,1.9893,1.989,1.9899,1.9899,1.9843,1.9832,1.9907,0.0,0.0,0.0,0.0,0.0,0.0,0.8676,0.832,0.9366,1.0148,1.1116,1.2215,1.2139,1.2155,1.229,1.234,1.2627,1.3195,1.3672,1.3618,1.317,1.2929,1.2783,1.2681,0.0,0.0,0.0,0.0,0.0,0.0,0.0,0.0,0.0,0.0,0.0,0.0,0.0,0.0,0.0,0.0,0.0,0.0,0.0,0.0,0.0,0.0,0.0,0.0,0.0,0.0,0.0,0.0,0.0,0.0,0.0,0.0,0.0,0.0,0.9798,0.9529,0.9204,0.8938,0.8789,0.8757,0.85,0.8244,0.7921,0.8103,0.8428,0.8659,0.7472,0.7186,0.8075,0.6798,0.6396,0.6931,0.7068,0.7438,0.8138,0.763,0.763,0.8063,0.7982,0.8089,0.8456,0.9442,0.9468,0.89,1.0052,0.9592,0.8241,0.8392,0.8697,0.9059,0.9013,0.8875,0.8759,0.0,0.0,0.0,0.0,0.0,0.0,0.0,0.0,2.001,2.0012,2.005,2.0114,2.0112,2.0115,2.0117,2.0098,2.0049,2.0029,2.0098,2.0116,0.0,0.0,0.0,0.0,1.2933,0.8545,0.7159,0.9036,0.9827,1.0979,1.2461,1.1845,1.2006,1.2812,1.2375,1.2609,1.3343,1.4123,1.4132,1.3566,1.2597,1.2544,1.3058,0.0,0.0,0.0,0.0,0.0,0.0,0.0,0.0,0.0,0.0,0.0,0.0,0.0,0.0,0.0,0.0,0.0,0.0,0.0,0.0,0.0,0.0,0.0,0.0,0.0,0.0,0.0,0.0,0.0,0.0,0.0,0.0,0.0,1.005,0.9429,0.9026,0.912,0.8971,0.8896,0.8835,0.8268,0.8164,0.881,0.8729,0.896,0.9829,0.8503,0.8004,0.8599,0.7699,0.6939,0.6464,0.7106,0.7319,0.7064,0.7319,0.7836,0.8534,0.9045,0.8993,0.8456,0.9437,0.8951,0.7525,0.9197,0.9483,0.8802,0.8877,0.9211,0.9567,0.8946,0.8941,0.9238,0.0,0.0,0.0,0.0,0.0,0.0,0.0,0.0,2.0155,2.015,2.02,2.0258,2.0246,2.025,2.0258,2.0299,2.0203,2.0178,2.0235,0.0,0.0,0.0,0.0,0.0,0.9288,0.9572,0.9194,0.796,0.9627,1.1172,1.2433,1.2753,1.322,1.3869,1.3893,1.4359,1.5158,1.5086,1.5023,1.4877,1.4153,1.3786,1.3584,0.0,0.0,0.0,0.0,0.0,0.0,0.0,0.0,0.0,0.0,0.0,0.0,0.0,0.0,0.0,0.0,0.0,0.0,0.0,0.0,0.0,0.0,0.0,0.0,0.0,0.0,0.0,0.0,0.0,0.0,0.0,1.0078,0.984,0.9847,0.9734,0.9617,0.9468,0.9188,0.9086,0.928,0.9184,0.9021,0.8798,0.8894,0.8866,0.8532,0.7513,0.7107,0.7466,0.6651,0.6301,0.6318,0.6616,0.6727,0.6499,0.6623,0.6846,0.7175,0.8058,0.8765,0.9291,0.9744,1.0306,1.0843,1.0479,1.0627,1.104,1.0479,1.0307,1.0379,1.011,0.9641,0.9211,0.0,0.0,0.0,0.0,0.0,0.0,0.0,0.0,2.0205,2.0246,2.0272,2.0301,2.0308,2.0294,2.0313,2.034,2.0258,2.0227,2.0304,0.0,0.0,0.0,0.0,1.6094,1.259,1.2472,1.1814,1.057,1.1631,1.258,1.3352,1.381,1.4461,1.5256,1.5406,1.587,1.6468,1.6621,1.6599,1.658,1.632,1.539,1.4122,1.3895,1.3933,1.4122,1.3949,1.3936,1.3897,1.37,0.0,0.0,0.0,0.0,0.0,0.0,0.0,0.0,0.0,0.0,0.0,0.0,0.0,0.0,0.0,0.0,0.0,0.0,0.0,0.0,0.0,0.0,0.0,0.0,0.967,0.946,0.9633,0.9623,0.9615,0.957,0.9354,0.9317,0.9493,0.9364,0.925,0.9226,0.9291,0.9304,0.9137,0.8405,0.82,0.853,0.7724,0.74,0.7541,0.7255,0.7029,0.6945,0.6945,0.7289,0.8048,0.8585,0.9197,0.9887,0.9969,1.022,1.0507,1.0588,1.1037,1.1539,0.0,0.0,0.0,0.0,0.9918,0.9507,0.0,0.0,0.0,0.0,0.0,0.0,0.0,0.0,2.0257,2.0412,2.0434,2.0475,2.0565,2.0595,2.055,2.0455,2.0385,2.0373,0.0,0.0,0.0,2.1724,1.9994,1.9054,1.9098,1.6363,1.4904,1.4889,1.4617,1.4677,1.5081,1.5114,1.5729,1.6769,1.6892,1.7159,1.7601,1.8328,1.8567,1.843,1.8553,1.7181,1.4873,1.4334,1.4412,1.4693,1.4215,1.4026,1.4016,1.3968,0.0,0.0,0.0,0.0,0.0,0.0,0.0,0.0,0.0,0.0,0.0,0.0,0.0,0.0,0.0,0.0,0.0,0.0,0.0,0.0,0.0,0.0,0.0,0.0,0.956,0.9295,0.9568,0.9474,0.9374,0.9561,0.9524,0.9542,0.9593,0.9125,0.918,0.9921,0.9938,1.009,1.0559,1.0272,0.0,0.0,0.0,0.9255,0.9299,0.8488,0.8077,0.7966,0.7966,0.8653,0.9818,0.9943,1.0094,1.0279,1.0245,0.9586,0.8703,1.0212,1.098,1.1228,1.0974,1.0887,1.0962,1.0293,1.0067,0.9992,0.0,0.0,0.0,0.0,0.0,0.0,0.0,0.0,2.0463,2.1177,2.1317,2.1602,2.2246,2.2362,2.2107,2.141,2.1347,2.132,0.0,0.0,2.1741,2.246,2.277,2.1496,1.8452,1.9028,1.8049,1.5359,1.5517,1.6182,1.7257,1.6806,1.7265,1.8524,1.8487,1.8744,1.9172,1.9443,1.954,1.9487,1.9502,1.8509,1.6964,1.6398,1.5956,1.5658,1.5511,1.5481,1.5432,1.4952,1.4723,1.4544,1.4096,0.0,0.0,0.0,0.0,0.0,0.0,0.0,0.0,0.0,0.0,0.0,0.0,0.0,0.0,0.0,0.0,0.0,0.0,0.0,0.0,1.0008,0.9806,0.977,1.0189,1.0208,1.0101,0.9996,0.9537,0.9378,0.9814,0.9739,0.9925,1.0386,1.0627,1.0672,1.0374,1.0363,1.0104,0.9628,0.9466,0.9391,0.9476,0.9342,0.9218,0.9101,0.9252,0.0,0.8755,0.9731,1.009,0.997,1.0175,1.0812,1.17,1.1037,1.1238,1.2024,1.2695,1.2673,1.215,1.1558,1.1037,1.0588,0.0,0.0,0.0,0.0,0.0,0.0,0.0,0.0,2.0376,2.0842,2.0935,2.1105,2.1517,2.1197,2.0942,2.0952,2.0954,0.0,0.0,2.1885,2.2451,2.3223,2.4085,2.3574,2.1498,2.1985,2.1096,1.8687,1.844,1.8546,1.9056,1.8675,1.9048,2.009,2.0116,2.02,2.0295,2.0446,2.0836,2.1263,2.0957,2.0508,1.9831,1.8169,1.7288,1.6806,1.6263,1.6019,1.5826,1.5538,1.5402,1.5305,1.4985,1.4593,1.4167,0.0,0.0,0.0,0.0,0.0,0.0,0.0,0.0,0.0,0.0,0.0,0.0,0.0,0.0,1.0516,1.0155,0.0,1.0232,1.0437,1.0207,1.0189,1.0504,1.0396,1.0199,1.0154,0.9856,0.9726,0.9895,1.0214,1.0483,1.0597,1.1198,1.1361,1.1016,1.1302,1.1281,1.0879,1.1101,1.1193,1.1122,1.0865,1.06,1.0339,1.0412,1.0269,1.0001,1.0556,1.0846,1.0842,1.0512,1.0894,1.1855,1.1706,1.2013,1.243,1.3184,1.3072,1.2355,1.1832,1.1484,1.126,0.0,0.0,0.0,0.0,0.0,0.0,0.0,0.0,0.0,2.052,2.0546,2.0631,2.08,2.0183,1.9971,0.0,0.0,0.0,0.0,2.2374,2.3149,2.4007,2.471,2.4974,2.4757,2.431,2.3458,2.2244,2.1561,2.1067,2.0796,2.057,2.0857,2.1547,2.1561,2.1485,2.135,2.1461,2.2099,2.3124,2.2561,2.2562,2.2687,2.0136,1.8714,1.8019,1.7213,1.6581,1.6172,1.6161,1.6073,1.5908,1.5768,1.5377,1.487,1.4198,1.3828,0.0,0.0,0.0,0.0,0.0,0.0,0.0,0.0,1.1087,1.0493,1.0514,1.0657,1.0787,1.0848,1.0568,1.0501,1.0912,1.0615,1.0496,1.0761,1.0474,1.0289,1.0318,1.0179,1.0093,0.9992,1.0545,1.0823,1.0662,1.1504,1.198,1.1813,1.2251,1.2448,1.2534,1.2826,1.2956,1.2737,1.2204,1.1772,1.1516,1.151,1.1473,1.1508,1.1522,1.1593,1.1732,1.1212,1.1075,1.1476,1.243,1.2907,1.3142,1.3609,1.3508,1.2866,1.2287,1.2155,1.2223,0.0,0.0,0.0,0.0,0.0,0.0,0.0,0.0,0.0,2.1345,2.1448,2.1758,2.2511,2.2511,0.0,0.0,0.0,0.0,2.245,2.2612,2.3313,2.4891,2.4987,2.5006,2.498,2.4731,2.4244,2.3503,2.3214,2.3009,2.2865,2.2364,2.2379,2.2801,2.2392,2.2404,2.2693,2.2594,2.3248,2.4378,2.4014,2.4272,2.4691,2.2813,2.0882,1.9221,1.9107,1.8325,1.7315,1.7115,1.6665,1.6134,1.5955,1.5758,1.5387,1.4449,1.4053,1.3777,1.3039,1.2823,1.2735,1.2414,1.2165,1.2075,0.0,1.2093,1.1696,1.1417,1.1388,1.1293,1.1001,1.0639,1.0564,1.116,1.0892,1.0767,1.1033,1.1039,1.0896,1.0732,1.0256,0.999,1.0121,1.0462,1.0706,1.0906,1.1606,1.2116,1.231,1.2516,1.279,1.3052,1.2816,1.2762,1.2985,1.2568,1.2286,1.2299,1.2516,1.2227,1.1396,1.1864,1.1899,1.1738,1.2215,1.2444,1.2558,1.3186,1.3996,1.485,1.4989,1.5347,1.5606,1.4037,1.3729,1.394,0.0,0.0,0.0,0.0,0.0,0.0,0.0,0.0,0.0,0.0,0.0,2.0991,2.1403,0.0,0.0,0.0,0.0,0.0,2.2595,2.268,2.3381,2.4975,2.4993,2.4847,2.467,2.4528,2.4229,2.3705,2.3689,2.3692,2.372,2.3581,2.3548,2.3638,2.3837,2.3816,2.3622,2.4028,2.4604,2.519,2.5452,2.5322,2.4995,2.4667,2.2963,2.0566,1.9322,1.839,0.0,0.0,1.6791,1.6461,1.6105,1.5859,1.5475,1.4469,1.4281,1.4244,1.3634,1.3559,1.3504,1.2988,1.2939,1.2937,1.2798,1.253,1.2297,1.2019,1.1995,1.1984,1.171,1.1497,1.1404,1.1497,1.1315,1.1132,1.1099,1.1111,1.1037,1.0962,1.079,1.0638,1.0582,1.1232,1.1675,1.179,1.2292,1.2745,1.3021,1.2814,1.2726,1.2989,1.2889,1.2824,1.2904,1.291,1.2855,1.2746,1.2898,1.2661,1.2311,1.2477,1.2607,1.2586,1.2998,1.3149,1.3197,1.3416,1.38,1.4213,1.468,1.5057,1.5227,1.4731,1.4695,1.4805,0.0,0.0,0.0,0.0,0.0,0.0,0.0,0.0,0.0,0.0,0.0,0.0,0.0,0.0,0.0,0.0,0.0,0.0,0.0,2.2316,2.3018,2.4575,2.4574,2.453,2.451,2.4428,2.4192,2.3819,2.4229,2.441,2.4267,2.4744,2.482,2.4574,2.5015,2.5093,2.4957,2.5297,2.5845,2.6572,2.6634,2.6246,2.571,2.5615,2.4202,2.2007,2.0054,1.8844,0.0,0.0,1.7087,1.6858,1.6459,1.6126,1.5767,1.4816,1.4516,1.4479,1.4202,1.42,1.4127,1.3429,1.3729,1.4016,1.3451,1.3325,1.3233,1.2892,1.282,1.269,1.2552,1.2291,1.2003,1.1855,1.1632,1.1409,1.126,1.1186,1.1216,1.1289,1.1254,1.1276,1.1259,1.1999,1.2363,1.2363,1.2871,1.3291,1.3461,1.3024,1.2814,1.306,1.2959,1.2929,1.2923,1.308,1.3081,1.2996,1.2996,1.2961,1.2973,1.3193,1.3288,1.3482,1.3605,1.3654,1.3546,1.3636,1.3731,1.3858,1.4509,1.4882,1.5085,1.5299,1.5381,1.5357,0.0,0.0,0.0,0.0,0.0,0.0,0.0,0.0,0.0,0.0,0.0,0.0,0.0,0.0,0.0,0.0,0.0,0.0,0.0,2.1377,2.2059,2.3663,2.3676,2.3992,2.4772,2.4663,2.4426,2.4097,2.5253,2.5446,2.4714,2.6087,2.6319,2.5647,2.5486,2.6037,2.7031,2.6061,2.6983,2.886,2.7321,2.7152,2.7594,2.5589,2.4312,2.3431,2.1939,0.0,0.0,1.8513,1.789,1.7173,1.7099,1.684,0.0,1.584,1.4945,1.4194,1.4651,1.4588,1.424,1.3614,1.4493,1.5213,1.438,1.4587,1.4904,1.4351,1.3931,1.3568,1.341,1.2791,1.2298,1.2305,1.1929,1.1706,1.1706,1.1484,1.1515,1.1717,1.1605,1.1654,1.224,1.2373,1.2363,1.2363,1.3039,1.3454,1.3542,1.3199,1.3067,1.3313,1.3039,1.2903,1.2988,1.2981,1.2982,1.2914,1.2914,1.298,1.3193,1.3768,1.4095,1.414,1.4202,1.3926,1.36,1.4007,1.4346,1.4591,1.5018,1.5598,1.6186,1.5934,1.5743,1.5865,0.0,0.0,0.0,0.0,0.0,0.0,0.0,0.0,0.0,0.0,0.0,0.0,0.0,0.0,0.0,0.0,0.0,0.0,0.0,2.1397,2.2055,2.3619,2.367,2.3978,2.4645,2.458,2.4426,2.4229,2.4849,2.5254,2.5429,2.6109,2.6713,2.723,2.7431,2.7877,2.8535,2.8403,2.8963,2.9848,2.8682,2.7959,2.7397,2.5604,2.3822,2.2116,0.0,0.0,1.9059,1.8493,1.804,1.7684,1.7441,1.7156,1.6802,1.6592,1.651,1.6385,1.5592,1.5622,1.5573,1.4414,1.4799,1.534,1.5096,1.5429,1.56,1.5024,1.4129,1.3408,1.3053,1.2347,1.1787,1.164,1.1755,1.1855,1.1706,1.1803,1.1967,1.2068,1.2324,1.2532,1.2713,1.264,1.2602,1.2778,1.2965,1.3168,1.3348,1.2898,1.2739,1.3118,1.2835,1.2784,1.2898,1.2898,1.2998,1.3119,1.3477,1.3695,1.384,1.4209,1.4426,1.4458,1.4506,1.4396,1.4242,1.4301,1.4294,1.443,1.4932,1.5169,1.5213,1.5615,1.5606,1.544,0.0,0.0,0.0,0.0,0.0,0.0,0.0,0.0,0.0,0.0,0.0,0.0,0.0,0.0,0.0,0.0,0.0,0.0,0.0,0.0,2.1531,2.2799,2.3113,2.358,2.4238,2.446,2.4362,2.3929,2.4951,2.5407,2.5397,2.6216,2.707,2.7868,2.7844,2.8267,2.8971,2.9099,2.9296,2.9512,2.8694,2.7753,2.6707,2.5501,2.381,0.0,0.0,0.0,1.9732,1.8818,1.8358,1.8187,1.7948,1.7769,1.7668,1.7879,1.7882,1.7699,1.7191,1.6973,1.6578,1.5644,1.5899,1.6309,1.5895,1.6202,1.6268,1.5422,1.4537,1.3816,1.3531,1.2665,1.1927,1.1681,1.1715,1.1832,1.1833,1.1864,1.2035,1.255,1.267,1.2806,1.3105,1.277,1.2707,1.3099,1.3136,1.3246,1.3395,1.2916,1.2799,1.3278,1.3099,1.3098,1.3216,1.3248,1.3414,1.3557,1.4057,1.4346,1.4489,1.4705,1.4919,1.5125,1.5175,1.4992,1.4782,1.469,1.4451,1.4223,1.4594,1.4772,1.4852,1.5375,1.5579,1.5548,0.0,0.0,0.0,0.0,0.0,0.0,0.0,0.0,0.0,0.0,0.0,0.0,0.0,0.0,0.0,0.0,0.0,0.0,0.0,0.0,0.0,2.127,2.2078,2.2852,2.3587,2.4331,2.4282,2.3422,2.5541,2.5929,2.4778,2.658,2.7503,2.7659,2.6953,2.736,2.8555,2.8283,2.8185,2.8096,2.7485,2.6764,2.5901,2.5305,0.0,0.0,0.0,0.0,2.0595,1.9507,1.8927,1.8687,1.8782,1.8822,1.8989,1.9759,1.9032,1.8243,1.9287,1.8492,1.7333,1.7286,1.7779,1.79,1.666,1.6899,1.7,1.5752,1.51,1.4712,1.4538,1.3516,1.2587,1.2275,1.1876,1.1727,1.212,1.1733,1.1867,1.3124,1.2653,1.2574,1.338,1.2875,1.2798,1.3355,1.3574,1.3612,1.3499,1.3182,1.323,1.3761,1.3768,1.3712,1.3726,1.3937,1.4084,1.4129,1.4497,1.4848,1.5204,1.5275,1.5559,1.6132,1.6132,1.578,1.5216,1.5189,1.4737,1.4036,1.4019,1.4489,1.5245,1.5227,1.565,1.6262,0.0,0.0,0.0,0.0,0.0,0.0,0.0,0.0,0.0,0.0,0.0,0.0,0.0,0.0,0.0,0.0,0.0,0.0,0.0,0.0,0.0,0.0,0.0,0.0,0.0,0.0,0.0,0.0,2.5652,2.6236,2.683,2.7271,2.8041,2.9094,2.8731,2.8971,2.9592,2.9334,2.9158,2.9016,0.0,2.7528,2.6879,0.0,0.0,0.0,0.0,0.0,2.1509,1.9972,1.9587,1.9922,2.1131,2.1055,2.0621,2.1144,2.0924,2.0346,1.9726,1.9246,1.8675,1.7634,1.764,1.7874,1.7873,1.775,1.7508,1.712,1.5845,1.4571,1.3822,1.3083,1.2458,1.2238,1.2362,1.2606,1.2687,1.276,1.2928,1.3385,1.3245,1.3333,1.3707,1.342,1.3229,1.3314,1.3033,1.2878,1.2797,1.2872,1.3047,1.3354,1.3362,1.34,1.3542,1.3911,1.4225,1.4497,1.4848,1.5204,1.5426,1.5709,1.5991,1.6272,1.6272,1.5989,1.557,1.5426,1.5079,1.4594,1.4436,1.4869,1.5533,1.5242,1.5633,1.6315,0.0,0.0,0.0,0.0,0.0,0.0,0.0,0.0,0.0,0.0,0.0,0.0,0.0,0.0,0.0,0.0,0.0,0.0,0.0,0.0,0.0,0.0,0.0,0.0,0.0,0.0,0.0,0.0,0.0,0.0,2.6167,2.7193,2.825,2.9279,2.8649,2.8727,2.9296,2.9225,0.0,0.0,0.0,0.0,0.0,0.0,0.0,0.0,0.0,0.0,0.0,0.0,2.1904,2.187,2.2516,2.2477,2.2189,2.1965,2.1738,2.1422,2.0669,2.0175,1.9674,1.8667,1.855,1.8519,1.8093,1.8105,1.8092,1.7564,1.6383,1.5376,1.5213,1.4073,1.3189,1.3289,1.3363,1.3446,1.3744,1.3843,1.3872,1.4108,1.3994,1.3924,1.3858,1.3577,1.3374,1.3348,1.3064,1.2891,1.2826,1.3112,1.347,1.3756,1.3911,1.4073,1.422,1.4423,1.4705,1.4999,1.5417,1.57,1.585,1.6061,1.6184,1.6154,1.6154,1.59,1.542,1.5341,1.5115,1.4941,1.4793,1.5258,1.5936,1.5845,1.6159,1.6705,0.0,0.0,0.0,0.0,0.0,0.0,0.0,0.0,0.0,0.0,0.0,0.0,0.0,0.0,0.0,0.0,0.0,0.0,0.0,0.0,0.0,0.0,0.0,0.0,0.0,0.0,0.0,0.0,0.0,0.0,0.0,0.0,0.0,0.0,0.0,0.0,0.0,0.0,0.0,0.0,0.0,0.0,0.0,0.0,0.0,0.0,0.0,0.0,0.0,0.0,2.4674,2.4011,2.3823,2.3849,2.3786,2.2833,2.2283,2.1951,2.1797,2.1103,2.0435,2.0105,1.9809,1.9337,1.8135,1.8426,1.8578,1.755,1.6832,1.6588,1.7216,1.5619,1.4341,1.4918,1.4478,1.4346,1.5087,1.4916,1.4811,1.5088,1.4729,1.4327,1.3961,1.3542,1.3348,1.3404,1.3367,1.3287,1.328,1.3695,1.4106,1.4477,1.4872,1.5094,1.5176,1.5217,1.533,1.55,1.5913,1.6123,1.6271,1.6271,1.618,1.6107,1.6107,1.5787,1.5237,1.5237,1.5182,1.5081,1.5136,1.5633,1.6306,1.6551,1.6889,1.7245,0.0,0.0,0.0,0.0,0.0,0.0,0.0,0.0,0.0,0.0,2.0386,2.0392,0.0,0.0,0.0,0.0,0.0,0.0,0.0,0.0,0.0,0.0,0.0,0.0,0.0,0.0,0.0,0.0,0.0,0.0,0.0,0.0,0.0,0.0,0.0,0.0,0.0,0.0,0.0,0.0,0.0,0.0,0.0,0.0,0.0,0.0,0.0,0.0,0.0,0.0,2.5287,2.5217,2.7112,2.6588,2.5246,2.5047,2.3935,2.2665,2.2094,2.1429,2.0964,2.1172,2.0462,1.9808,1.997,1.9404,1.8769,1.8221,1.7742,1.7233,1.6895,1.5941,1.5439,1.5918,1.5468,1.5444,1.6519,1.6123,1.5951,1.639,1.5197,1.4385,1.4616,1.3769,1.344,1.3923,1.3675,1.3543,1.368,1.4201,1.4521,1.4584,1.4656,1.4944,1.5455,1.5459,1.5547,1.5641,1.5769,1.5845,1.6066,1.6066,1.6278,1.6729,1.6729,1.634,1.5779,1.5779,1.5452,1.5053,1.5392,1.5817,1.6288,1.6722,1.711,1.747,0.0,0.0,0.0,0.0,0.0,0.0,0.0,2.0966,2.0399,2.0399,2.0399,2.0399,2.0399,2.0399,0.0,0.0,0.0,0.0,0.0,0.0,0.0,0.0,0.0,0.0,0.0,0.0,2.4639,2.4419,0.0,2.6648,2.5929,2.6714,2.704,2.6989,0.0,0.0,0.0,0.0,0.0,0.0,0.0,0.0,0.0,0.0,0.0,0.0,0.0,0.0,0.0,0.0,2.5503,2.5824,2.7322,2.7332,2.6516,2.5443,2.4319,2.3347,2.2696,2.2128,2.1657,2.1479,2.0919,2.0268,1.9773,1.9631,1.9393,1.8742,1.8352,1.8215,1.8282,1.7322,1.6639,1.7071,1.6748,1.6626,1.7252,1.7011,1.6743,1.649,1.5811,1.5185,1.5,1.4141,1.3829,1.4335,1.4018,1.3915,1.4171,1.4633,1.4999,1.5221,1.5355,1.5404,1.5497,1.5549,1.5565,1.5521,1.5521,1.5818,1.6294,1.6294,1.6418,1.6533,1.6533,1.6131,1.5444,1.5444,1.5392,1.5311,1.5501,1.5974,1.6552,1.6892,1.7235,1.7588,0.0,0.0,0.0,0.0,0.0,0.0,0.0,2.0953,2.0399,2.0399,2.0405,2.0392,2.0392,2.0405,2.0399,0.0,0.0,0.0,0.0,0.0,0.0,0.0,0.0,0.0,0.0,0.0,0.0,2.3073,2.5885,0.0,0.0,0.0,0.0,0.0,2.6412,2.632,2.6446,0.0,0.0,0.0,0.0,2.4831,0.0,0.0,0.0,0.0,0.0,0.0,0.0,0.0,2.5368,2.5945,2.6505,2.7068,2.7224,2.5447,2.4641,2.4179,2.349,2.304,2.2589,2.1908,2.1513,2.0852,1.939,1.9751,2.0078,1.9092,1.9018,1.923,1.9691,1.8581,1.7722,1.8098,1.7821,1.7613,1.7985,1.7906,1.7524,1.6831,1.6482,1.6035,1.5409,1.4656,1.4299,1.4618,1.4402,1.4396,1.466,1.5047,1.5449,1.5738,1.6026,1.5948,1.5639,1.5757,1.565,1.5387,1.5533,1.5928,1.6496,1.6496,1.6431,1.6334,1.6334,1.5908,1.5295,1.5295,1.5428,1.5708,1.5708,1.6166,1.6788,1.7062,1.7427,1.7784,0.0,0.0,0.0,0.0,0.0,0.0,0.0,2.0965,2.0399,2.0399,2.041,2.0408,2.0408,2.0398,2.0399,0.0,0.0,0.0,0.0,0.0,0.0,0.0,0.0,0.0,0.0,0.0,0.0,2.3975,2.4955,0.0,0.0,0.0,0.0,0.0,0.0,2.5122,2.569,2.5459,0.0,0.0,0.0,0.0,0.0,0.0,0.0,0.0,0.0,0.0,0.0,0.0,0.0,2.538,2.552,2.6182,2.6724,2.5872,2.5619,2.5454,2.4585,2.4148,2.377,2.2951,2.2412,2.1643,1.9935,2.0261,2.0527,1.9152,1.961,2.0169,1.9861,1.8963,1.8474,1.8981,1.8316,1.8187,1.934,1.8934,1.852,1.856,1.7404,1.6487,1.6068,1.5263,1.478,1.4796,1.4789,1.4863,1.4875,1.5221,1.5547,1.5724,1.6078,1.6156,1.5968,1.6169,1.5927,1.529,1.5886,1.6147,1.6249,1.6249,1.6438,1.6713,1.6713,1.6579,1.6268,1.6268,1.6191,1.6064,1.6064,1.6296,1.6772,1.7236,1.7646,1.8008,0.0,0.0,0.0,0.0,0.0,0.0,2.1699,2.0963,2.042,2.0454,2.0434,2.0424,2.0459,2.0449,2.0439,0.0,0.0,0.0,0.0,0.0,0.0,0.0,0.0,0.0,0.0,0.0,2.2973,2.3319,2.4571,0.0,0.0,0.0,0.0,0.0,0.0,2.49,2.4974,2.4746,0.0,0.0,0.0,0.0,0.0,0.0,0.0,0.0,0.0,0.0,2.346,2.3832,2.4046,0.0,2.424,2.4761,0.0,2.534,2.5396,2.5408,2.4935,2.4425,2.3928,2.3427,2.2509,2.1496,2.0656,2.0695,2.0684,2.0013,2.0289,2.056,2.0207,1.9674,1.9211,1.912,1.8635,0.0,1.8824,1.849,1.8057,1.7728,1.7174,1.6597,1.6252,1.552,1.497,1.4611,1.4766,1.4814,1.4542,1.5009,1.5336,1.5534,1.5818,1.5851,1.5579,1.577,1.5607,1.5106,1.5378,1.578,1.6402,1.6402,1.6488,1.6725,1.6725,1.6394,1.5807,1.5807,1.576,1.5674,1.5802,1.6138,1.651,1.708,1.7581,1.7999,0.0,0.0,0.0,0.0,0.0,2.1357,2.1357,2.0828,2.046,2.0494,2.0453,2.0461,2.0496,2.0494,2.0471,2.0437,2.0434,0.0,0.0,0.0,0.0,0.0,0.0,0.0,0.0,0.0,2.2557,2.2789,2.4159,2.4973,0.0,0.0,2.5125,2.5126,0.0,0.0,0.0,0.0,0.0,0.0,0.0,0.0,0.0,0.0,0.0,0.0,0.0,0.0,0.0,0.0,0.0,0.0,0.0,0.0,0.0,0.0,2.508,2.5249,2.5041,2.4596,2.41,2.3462,2.2649,2.1789,2.1134,2.1167,2.1215,2.0854,2.1009,2.1104,2.0772,2.0308,1.985,0.0,0.0,1.867,1.8601,1.8294,1.7882,1.7381,1.7122,1.687,1.6496,1.5756,1.5282,1.5051,1.507,1.4982,1.4616,1.5019,1.526,1.5396,1.5634,1.5623,1.5411,1.5586,1.5438,1.5039,1.5212,1.5706,1.6398,1.6398,1.6471,1.6596,1.6596,1.6304,1.5733,1.5733,1.5733,1.5713,1.578,1.5999,1.6427,1.7009,1.7433,1.7785,0.0,0.0,0.0,0.0,0.0,0.0,2.0515,2.0506,2.0497,2.0497,2.0508,2.0495,2.0495,2.0495,2.0495,2.0495,2.0503,0.0,0.0,0.0,0.0,0.0,0.0,0.0,0.0,0.0,2.1999,2.2789,2.3602,2.4456,2.5311,2.5239,2.5195,2.521,0.0,0.0,0.0,0.0,0.0,0.0,0.0,0.0,0.0,0.0,0.0,0.0,0.0,0.0,0.0,0.0,0.0,0.0,0.0,0.0,0.0,0.0,2.4787,2.5247,2.4971,2.4842,2.4428,2.2992,2.2948,2.2865,2.1243,2.1777,2.2354,2.1569,2.1826,2.2044,2.1471,2.0822,2.0372,2.0233,1.9512,0.0,1.9174,1.8826,1.8469,1.8137,1.7727,1.7333,1.6842,1.6107,1.5859,1.6231,1.5822,1.5555,1.541,1.5536,1.5516,1.5287,1.5677,1.5813,1.5586,1.5708,1.5629,1.5225,1.5799,1.6064,1.6135,1.6256,1.6317,1.6317,1.6447,1.6507,1.6497,1.6497,1.6497,1.6457,1.6026,1.6117,1.6558,1.7009,1.7169,1.7299,0.0,0.0,0.0,0.0,0.0,0.0,0.0,2.0505,2.0508,2.0508,2.0505,2.05,2.0492,2.0498,2.0504,2.0507,2.0497,0.0,0.0,0.0,0.0,0.0,0.0,0.0,0.0,0.0,2.1717,2.1984,2.2793,2.3314,2.3602,2.4079,2.4304,2.4339,2.486,2.5057,0.0,0.0,0.0,0.0,0.0,0.0,0.0,0.0,0.0,0.0,0.0,0.0,0.0,0.0,0.0,0.0,0.0,0.0,0.0,0.0,0.0,2.4949,2.4799,2.4654,2.4374,2.3777,2.2937,2.2358,2.2611,2.2307,2.2148,2.2787,2.2534,2.2137,2.1996,2.1251,2.066,2.061,1.9952,1.9405,1.947,1.8905,1.825,1.7553,1.6571,1.5749,1.5362,1.5887,1.6179,1.5911,1.5753,1.5813,1.613,1.5137,1.4724,1.51,1.5302,1.5413,1.5448,1.5507,1.5439,1.5371,1.5684,1.597,1.6246,1.6377,1.6437,1.6437,1.6497,1.6327,1.6066,1.6066,1.6066,1.6105,1.607,1.609,1.6272,1.6848,1.7072,1.7164,0.0,0.0,0.0,0.0,0.0,0.0,0.0,2.0441,2.046,2.046,2.0432,2.0443,2.0488,2.0486,2.0463,2.0504,2.0505,0.0,0.0,0.0,0.0,0.0,0.0,0.0,0.0,2.0907,2.1294,2.1594,2.2098,2.2496,2.2814,2.3266,2.3647,2.396,2.4438,2.479,0.0,0.0,0.0,0.0,0.0,0.0,2.3998,0.0,0.0,0.0,0.0,0.0,0.0,0.0,0.0,0.0,0.0,0.0,0.0,0.0,2.4424,2.4605,0.0,2.4229,2.4064,2.3869,2.3085,2.2587,2.352,2.2815,2.2291,2.3284,2.2877,2.2318,2.2243,2.1801,2.1417,2.1369,2.0534,1.9861,1.9723,1.8966,1.8054,1.7109,1.6022,1.5216,1.5091,1.5669,1.6063,1.5989,1.6148,1.6375,1.6654,1.5792,1.5365,1.5468,1.5371,1.5313,1.541,1.5478,1.5536,1.5536,1.5614,1.5879,1.6128,1.6306,1.6365,1.6365,1.6435,1.6341,0.0,1.6097,1.6097,1.6087,1.6192,1.6181,1.63,1.6811,1.6873,1.6881,0.0,0.0,0.0,0.0,0.0,0.0,0.0,2.0342,2.0381,2.0385,2.0337,2.0347,2.0474,2.0434,2.0434,2.0497,0.0,0.0,0.0,0.0,0.0,0.0,0.0,0.0,0.0,2.0444,2.0779,2.1512,2.1521,2.1894,2.2628,2.2679,2.3112,2.3831,2.3883,2.4354,0.0,0.0,0.0,0.0,0.0,0.0,0.0,0.0,0.0,0.0,0.0,0.0,0.0,0.0,0.0,0.0,0.0,0.0,0.0,0.0,0.0,0.0,0.0,2.3756,2.361,2.3482,2.3382,2.346,2.3981,0.0,0.0,2.3188,2.2915,2.2547,2.2354,2.2425,2.2472,2.2381,2.1397,2.0436,1.9887,1.8836,1.7705,1.6616,1.5823,1.5434,1.5637,1.5404,1.5521,1.6358,1.6848,1.7096,1.6983,1.7071,1.6856,1.6368,1.5748,1.5478,1.542,1.5604,1.573,1.573,1.573,1.5778,1.5864,1.6016,1.6053,1.6022,1.6213,1.628,1.628,1.628,1.6301,1.6332,1.6332,1.6353,1.6425,1.6839,1.6736,1.6498,0.0,0.0,0.0,0.0,0.0,0.0,0.0,0.0,0.0,0.0,2.0301,2.0322,2.0412,2.0416,2.0422,0.0,0.0,0.0,0.0,0.0,0.0,0.0,0.0,0.0,0.0,2.0471,2.0536,2.0682,2.0687,2.0781,2.0985,2.1551,2.1919,2.2132,2.337,2.4358,0.0,0.0,0.0,0.0,0.0,0.0,0.0,0.0,0.0,0.0,2.3179,2.263,0.0,0.0,0.0,0.0,0.0,0.0,0.0,0.0,2.4623,2.4604,2.451,0.0,2.4058,2.402,2.3717,2.3549,0.0,0.0,0.0,0.0,0.0,2.2592,2.2554,2.2696,2.2877,2.2836,2.2685,2.2013,2.0354,1.7665,1.5497,1.4572,1.421,1.4054,1.4098,1.4812,1.5614,1.6447,1.658,1.7014,1.7767,1.6798,1.6337,1.6673,1.6228,1.5884,1.5788,1.5856,1.5856,1.5856,1.5951,1.5827,1.5538,1.5725,1.5594,1.5264,1.5318,1.5328,1.5328,1.5328,1.5535,1.5846,1.5846,1.6063,1.6394,1.6498,1.6467,1.6472,0.0,0.0,0.0,0.0,0.0,0.0,0.0,0.0,0.0,0.0,0.0,0.0,0.0,0.0,0.0,0.0,0.0,0.0,0.0,0.0,0.0,0.0,0.0,0.0,2.0543,2.0521,2.048,2.0449,2.041,2.041,2.041,2.0819,2.1182,2.1573,2.3218,2.4391,2.513,0.0,0.0,0.0,2.4747,0.0,0.0,0.0,0.0,0.0,2.2689,2.1994,0.0,2.1436,2.1809,2.2283,0.0,0.0,0.0,0.0,2.4851,2.4842,2.4874,2.467,2.4426,2.4391,2.4192,2.4067,2.4314,0.0,0.0,0.0,0.0,2.2782,2.28,2.3259,2.3639,2.3592,2.2039,2.016,1.8229,1.7381,1.6437,1.529,1.4758,1.4509,1.444,1.4876,1.5608,1.6738,1.7132,1.7545,1.8201,1.7328,1.695,1.729,1.6637,1.6134,1.5914,1.5961,1.6019,1.6009,1.5853,1.5675,1.556,1.579,1.5752,1.5531,1.5741,1.572,1.5521,1.5371,1.5339,1.539,1.5608,1.5846,1.615,1.6461,1.6591,1.6648,0.0,0.0,0.0,0.0,0.0,0.0,0.0,0.0,0.0,0.0,0.0,0.0,0.0,0.0,0.0,0.0,0.0,0.0,0.0,0.0,0.0,0.0,0.0,2.0573,2.0579,2.0525,2.051,2.0497,2.0431,2.0426,2.0411,2.0399,2.0868,2.1779,2.3189,2.435,2.5231,2.522,2.5198,2.5115,2.4993,0.0,0.0,0.0,0.0,0.0,0.0,0.0,0.0,2.0821,2.0935,2.1198,2.2067,0.0,0.0,0.0,0.0,0.0,2.4954,2.4867,2.479,2.47,2.4636,2.464,2.473,0.0,0.0,0.0,0.0,0.0,2.3176,2.3916,0.0,2.4436,2.0738,1.7132,1.5046,1.6269,1.6953,1.5812,1.5284,1.5061,1.5207,1.5208,1.5759,1.7108,1.782,1.8297,1.8505,1.8248,1.8061,1.7952,1.7032,1.642,1.6192,1.6181,1.6187,1.6058,1.5669,1.5533,1.5635,1.5785,1.585,1.586,1.6266,1.6213,1.5839,1.5604,1.5351,1.5091,1.5558,1.5776,1.5946,1.6613,1.6864,1.6976,0.0,0.0,0.0,0.0,0.0,0.0,0.0,0.0,0.0,0.0,0.0,0.0,0.0,0.0,0.0,0.0,0.0,0.0,0.0,0.0,0.0,0.0,2.051,2.0511,2.0519,2.0501,2.0495,2.0507,2.0482,2.0482,2.0471,2.0434,2.1227,2.2695,2.2944,2.3937,2.5367,2.537,2.5302,2.5187,2.5222,0.0,0.0,0.0,0.0,0.0,0.0,0.0,0.0,2.0183,2.0678,2.1415,2.228,0.0,0.0,0.0,0.0,0.0,2.438,2.4726,2.5254,2.5063,2.4902,2.4718,0.0,0.0,0.0,0.0,0.0,0.0,0.0,2.4266,2.4866,2.4964,2.0884,1.637,1.2393,1.0804,1.0267,1.0861,1.1824,1.2941,1.4121,1.5389,1.6492,1.7327,1.7884,1.8437,1.8871,1.898,1.875,1.8232,1.76,1.7279,1.7446,1.6965,1.6483,1.6027,1.6018,1.569,1.5185,1.4985,1.481,1.4664,1.474,1.4729,1.4697,1.4825,1.5076,1.5394,1.5871,1.6295,1.6655,1.7,1.7145,1.72,0.0,0.0,0.0,0.0,0.0,0.0,0.0,0.0,0.0,0.0,0.0,0.0,0.0,0.0,0.0,0.0,0.0,0.0,0.0,0.0,0.0,2.0269,2.0355,2.0437,2.0494,2.051,2.05,2.0497,2.0497,2.0508,2.049,2.0434,2.1318,2.2951,2.2921,2.3836,2.5398,2.5401,2.5367,2.5303,0.0,0.0,0.0,0.0,0.0,0.0,0.0,0.0,0.0,0.0,2.0425,2.0907,2.1751,0.0,0.0,0.0,0.0,0.0,2.4795,2.5127,2.543,2.5387,2.5244,2.5057,0.0,0.0,0.0,0.0,0.0,0.0,0.0,2.5131,2.452,2.07,1.9574,1.6944,1.0404,1.0151,1.0638,1.0621,1.1859,1.2995,1.3646,1.5564,1.711,1.7884,1.871,1.9246,1.9423,1.9331,1.9162,1.8886,1.8298,1.8038,1.8147,1.7788,1.7159,1.6235,1.5647,1.5289,1.5105,1.4969,1.4936,1.5015,1.5282,1.5248,1.4968,1.492,1.4887,1.4887,1.5372,1.5992,1.6716,1.7801,1.8278,1.8387,0.0,0.0,0.0,0.0,0.0,0.0,0.0,0.0,0.0,0.0,0.0,0.0,0.0,0.0,0.0,0.0,0.0,0.0,0.0,0.0,2.0005,2.007,2.0128,2.0261,2.0445,2.0484,2.0508,2.0496,2.049,2.0494,2.0503,2.0458,2.1351,2.3018,2.2959,2.3888,2.5446,2.5459,2.5444,2.5437,0.0,0.0,0.0,0.0,0.0,0.0,0.0,0.0,0.0,0.0,0.0,0.0,0.0,0.0,0.0,2.3422,2.4012,2.4329,2.4818,2.5218,2.5496,2.5341,0.0,0.0,0.0,0.0,0.0,0.0,0.0,0.0,0.0,2.571,2.4197,1.7831,1.807,1.686,1.0443,1.0037,1.0665,1.1366,1.2283,1.3054,1.3519,1.5997,1.781,1.841,1.9346,1.9889,1.9901,1.9695,1.9592,1.9643,1.9056,1.8732,1.8625,1.8413,1.779,1.6874,1.5884,1.5477,1.5612,1.565,1.5643,1.5612,1.6207,1.6071,1.5421,1.5377,1.5081,1.4697,1.5301,1.6109,1.7116,1.8282,1.9036,1.9356,0.0,0.0,0.0,0.0,0.0,0.0,0.0,0.0,0.0,0.0,0.0,0.0,0.0,0.0,0.0,0.0,0.0,0.0,0.0,0.0,1.9755,1.9993,1.983,1.9926,2.0308,2.0434,2.0502,2.0508,2.051,2.049,2.0507,2.0506,2.1428,2.3088,2.3098,2.4023,2.5589,2.5591,2.5554,2.5499,2.5565,0.0,0.0,0.0,0.0,0.0,0.0,0.0,0.0,0.0,0.0,0.0,0.0,0.0,2.1881,2.2815,2.3667,2.4141,2.345,2.4405,2.5418,2.4676,2.4997,0.0,2.5558,2.5469,0.0,2.5274,0.0,0.0,0.0,2.5542,2.4364,2.0355,1.7023,1.4697,1.4106,0.8174,0.5957,1.1613,1.1651,1.1875,1.3705,1.6899,1.8784,1.8609,1.9131,1.9682,2.0156,2.0131,2.0233,2.041,1.985,1.9343,1.8983,1.8483,1.8142,1.8056,1.7627,1.7319,1.7169,1.7267,1.6776,1.5923,1.6808,1.6408,1.5188,1.5845,1.5786,1.543,1.6405,1.7512,1.8578,1.8152,1.8566,1.9347,0.0,0.0,0.0,0.0,0.0,0.0,0.0,0.0,0.0,0.0,0.0,0.0,0.0,0.0,0.0,0.0,0.0,0.0,0.0,0.0,1.9261,1.9356,1.9362,1.946,1.9733,2.0049,2.0225,2.0321,2.0391,2.0445,2.0453,2.1033,2.1953,2.3124,2.3679,2.4266,2.4895,2.5398,2.5297,2.488,2.5425,2.4797,0.0,0.0,0.0,0.0,0.0,0.0,0.0,0.0,2.0471,2.0514,2.0802,2.0929,2.1116,2.201,2.287,2.3608,2.3845,2.4776,2.5469,2.461,2.4617,0.0,0.0,2.5625,2.5582,2.5553,2.5527,0.0,0.0,2.6415,2.5231,2.1487,1.9711,1.7983,1.5625,1.2745,1.1089,1.1537,1.4163,1.5009,1.2511,1.7252,2.0,1.8797,1.9904,2.039,1.9832,2.0064,2.0259,2.0307,1.959,1.9497,2.0211,1.9307,1.9158,1.9737,1.8227,1.7432,1.7326,1.7424,1.7364,1.7183,1.752,1.7038,1.6008,1.6492,1.6209,1.5637,1.68,1.7666,1.8239,1.8446,1.846,1.8437,0.0,0.0,0.0,0.0,0.0,0.0,0.0,0.0,0.0,0.0,0.0,0.0,0.0,0.0,0.0,0.0,0.0,0.0,1.8878,1.8855,1.8877,1.8964,1.8941,1.9021,1.9211,1.9544,1.9859,2.0172,2.0307,2.0366,2.0381,2.1039,2.1793,2.2686,2.328,2.3709,2.4033,2.458,2.4631,2.4425,2.501,2.4378,0.0,0.0,0.0,0.0,0.0,0.0,0.0,0.0,2.0507,2.0488,2.0444,2.0465,2.0623,2.1204,2.2005,2.2829,2.3394,2.4373,2.5117,2.4511,0.0,0.0,2.5545,2.5478,2.5378,2.5639,2.5644,2.5778,2.6376,2.6536,2.5749,2.3178,2.1755,2.0478,1.913,1.6984,1.5349,1.48,1.7597,1.8066,1.4225,1.8747,2.1114,1.9221,2.028,2.0689,1.9716,1.9806,1.99,2.0026,1.9304,1.9291,2.0159,1.9534,1.9468,1.9941,1.8649,1.809,1.8154,1.8425,1.8287,1.7858,1.8175,1.7587,1.6411,1.6797,1.6605,1.6089,1.695,1.7538,1.7881,1.8152,1.8156,1.8074,0.0,0.0,0.0,0.0,0.0,0.0,0.0,0.0,0.0,0.0,0.0,0.0,0.0,0.0,0.0,0.0,0.0,0.0,1.8589,1.8533,1.8624,1.8874,1.8714,1.8658,1.8805,1.9002,1.9419,2.0093,2.0231,2.0305,2.0307,2.0316,2.0802,2.1703,2.1717,2.2224,2.3097,2.3097,2.3542,2.4274,2.4274,2.3764,2.2998,0.0,0.0,0.0,0.0,0.0,0.0,0.0,2.0496,2.0503,2.0499,2.0508,2.051,2.05,2.1124,2.1805,2.1723,2.2986,2.4305,0.0,0.0,0.0,2.5601,2.4982,2.4667,2.5515,2.5657,2.5605,2.5595,2.5659,2.5707,2.5705,2.2531,2.139,2.518,1.9888,1.7358,2.2022,2.1585,2.0476,1.9405,2.1608,2.2149,1.9787,2.0038,2.0201,1.9877,1.9364,1.9243,1.9601,1.9125,1.8726,1.8405,1.9008,1.8957,1.8342,1.8957,1.9559,1.9991,2.0472,1.9618,1.7835,1.8818,1.8066,1.6249,1.6696,1.6916,1.6916,1.6916,1.726,1.7724,1.7113,1.7538,1.8278,0.0,0.0,0.0,0.0,0.0,0.0,0.0,0.0,0.0,0.0,0.0,0.0,0.0,0.0,0.0,0.0,0.0,0.0,1.8155,1.7933,1.7911,1.8171,1.808,1.8112,1.8305,1.8604,1.9086,1.9832,1.9914,1.9993,2.0097,2.0713,2.1139,2.1451,2.2164,2.2285,2.2017,2.2682,2.2694,2.2312,2.2934,2.2667,2.1946,0.0,0.0,0.0,0.0,0.0,0.0,0.0,0.0,0.0,2.0506,2.0509,2.0492,2.0497,2.1552,2.2701,2.2627,2.3891,0.0,2.4457,0.0,0.0,0.0,2.5017,0.0,0.0,2.5646,2.5603,2.566,2.5641,2.564,2.5696,2.4739,2.4623,2.6364,2.539,2.3795,2.1901,2.4901,2.4933,1.9329,2.2574,2.3818,2.0928,2.1032,2.0584,1.9118,1.893,1.8979,1.9235,1.839,1.8342,1.9216,1.8987,1.8906,1.9015,1.9211,1.9363,1.9433,1.9413,1.9097,1.8601,1.8861,1.8285,1.7118,1.6848,1.7162,1.7683,1.726,1.732,1.7559,1.7224,1.7165,1.7213,0.0,0.0,0.0,0.0,0.0,0.0,0.0,0.0,0.0,0.0,0.0,0.0,0.0,0.0,0.0,0.0,0.0,0.0,0.0,1.7415,1.7372,1.7533,1.7619,1.7783,1.8048,1.8186,1.8592,1.9261,1.9416,1.9594,1.9816,2.0312,2.0595,2.0733,2.1344,2.1317,2.0864,2.1438,2.1531,2.1367,2.1928,2.1866,2.1466,0.0,0.0,0.0,0.0,0.0,0.0,0.0,0.0,0.0,2.0512,2.0681,2.0986,2.0986,2.1729,2.26,2.2887,2.398,0.0,2.4397,2.4509,2.4773,2.4818,0.0,0.0,0.0,2.5666,2.5659,2.5697,2.5664,2.5641,2.5683,2.5698,2.5877,2.6401,2.754,2.7225,2.4333,2.7576,2.7761,2.1932,2.3997,2.4366,2.1108,2.0923,2.0373,1.8998,1.8824,1.8768,1.8863,1.8126,1.8098,1.8913,1.8644,1.8654,1.8955,1.8889,1.8857,1.8874,1.9022,1.8929,1.8706,1.8455,1.7978,1.7367,1.7033,1.7238,1.7695,1.7426,1.731,1.7298,1.7261,1.7047,1.6888,0.0,0.0,0.0,0.0,0.0,0.0,0.0,0.0,0.0,0.0,0.0,0.0,0.0,0.0,0.0,0.0,0.0,0.0,0.0,0.0,1.6935,1.695,1.7212,1.7508,1.7876,1.771,1.7915,1.8478,1.8786,1.913,1.9434,1.9402,1.9543,1.9835,1.9802,1.9805,1.9858,1.9793,2.0262,2.1016,2.1069,2.1149,2.1225,2.1225,0.0,0.0,0.0,0.0,0.0,0.0,0.0,0.0,2.0607,2.0933,2.1558,2.1565,2.1675,2.1965,2.2694,2.3584,2.4312,2.4308,2.491,0.0,2.5574,2.5642,2.5687,2.5707,2.5698,2.5696,2.5705,2.5703,2.5693,2.57,2.5702,2.5702,2.5704,2.7125,2.8092,2.7895,2.9302,2.9096,2.6006,2.5629,2.4247,2.0951,2.0344,1.9861,1.9293,1.8817,1.8567,1.8517,1.8214,1.8002,1.7963,1.8123,1.8276,1.8385,1.8262,1.8249,1.8412,1.8946,1.8848,1.8329,1.7756,1.7406,1.724,1.724,1.724,1.724,1.7434,1.7338,1.7131,1.7337,1.7282,1.7089,0.0,0.0,0.0,0.0,0.0,0.0,0.0,0.0,0.0,0.0,0.0,0.0,0.0,0.0,0.0,0.0,0.0,0.0,0.0,0.0,1.6394,1.6591,1.6769,1.6892,1.6986,1.7085,1.7287,1.7574,1.8223,1.8699,1.9024,1.9125,1.952,2.017,1.974,1.9852,2.0296,1.9796,1.9569,1.9542,1.9571,1.9704,1.9901,1.9901,1.999,0.0,0.0,0.0,0.0,0.0,0.0,0.0,2.102,2.0897,2.0604,2.0603,2.157,2.2687,2.2849,2.3995,0.0,2.5147,2.5329,2.5495,2.5514,2.5566,2.5648,2.5687,2.5705,2.5705,2.5707,2.5668,2.5644,2.5687,2.5693,2.5696,2.5701,2.6602,2.6992,2.6229,2.8149,2.8742,2.674,2.6439,2.5412,2.3154,2.1622,2.0255,1.9059,1.8729,1.8606,1.8673,1.8358,1.824,1.8201,1.8347,1.8391,1.8235,1.8218,1.8232,1.8235,1.8208,1.8112,1.799,1.7855,1.7666,1.7434,1.7434,1.7434,1.7434,1.7475,1.757,1.776,1.8301,1.8138,1.7733,0.0,0.0,0.0,0.0,0.0,0.0,0.0,0.0,0.0,0.0,0.0,0.0,0.0,0.0,0.0,0.0,0.0,0.0,0.0,0.0,1.5943,1.6215,1.6282,1.6443,1.6696,1.6722,1.6926,1.7248,1.7528,1.7894,1.8327,1.8495,1.882,1.9288,1.9159,1.9315,1.9592,1.8906,1.8797,1.9028,1.8658,1.8871,1.9368,1.9357,1.9521,1.9729,1.9794,0.0,0.0,0.0,0.0,0.0,0.0,0.0,2.0834,2.0823,2.1471,2.2362,2.3165,0.0,0.0,2.5252,0.0,2.5456,2.5492,2.5538,2.5571,2.5649,2.5678,2.5707,2.5707,2.5665,2.5656,2.5695,2.5701,2.5699,2.5699,2.6445,2.6816,2.6289,2.7616,2.7999,2.6507,2.5816,2.4778,2.3136,2.1626,2.0367,1.9471,1.9244,1.9026,1.8841,1.8697,1.8528,1.8305,1.8411,1.84,1.8202,1.8321,1.8361,1.8361,1.8123,1.8043,1.8043,1.8043,1.7909,1.7693,1.7693,1.7693,1.7693,1.7814,1.7909,1.807,1.8507,1.8384,1.8044,0.0,0.0,0.0,0.0,0.0,0.0,0.0,0.0,0.0,0.0,0.0,0.0,0.0,0.0,0.0,0.0,0.0,0.0,0.0,0.0,0.0,1.5622,1.5709,1.5963,1.6416,1.6378,1.6538,1.691,1.6757,1.6903,1.7379,1.7732,1.8035,1.827,1.8491,1.8641,1.8707,1.8021,1.8146,1.8753,1.8157,1.8379,1.9057,1.9093,1.9188,1.9291,1.9216,1.923,1.9286,1.9587,0.0,0.0,0.0,0.0,2.1091,2.113,2.1253,2.1683,2.3092,0.0,2.4119,2.5039,2.5307,0.0,2.5445,2.5472,2.5492,2.5577,2.5654,2.5709,2.5672,2.5693,2.5693,2.5693,2.5701,2.5703,2.5703,2.6328,2.6757,2.6679,2.7223,2.7187,2.6115,2.5042,2.3925,2.2733,2.1438,2.0509,2.0081,1.9879,1.9545,1.9093,1.9069,1.8851,1.8422,1.8489,1.8478,1.8282,1.8478,1.8461,1.8349,1.8305,1.8282,1.8242,1.8242,1.8123,1.7963,1.7963,1.7963,1.7963,1.8123,1.8242,1.8296,1.8565,1.8484,1.8256,0.0,0.0,0.0,0.0,0.0,0.0,0.0,0.0,0.0,0.0,0.0,0.0,0.0,0.0,0.0,0.0,0.0,0.0,0.0,0.0,0.0,1.4582,1.4923,1.518,1.53,1.5652,1.5781,1.5737,1.5709,1.5794,1.6074,1.702,1.7846,1.8528,1.8224,1.8435,1.8915,1.8164,1.792,1.7954,1.7983,1.8171,1.8459,1.8681,1.8993,1.9217,1.8582,1.8472,1.8732,1.9457,1.9238,0.0,0.0,0.0,1.9875,2.0047,2.0686,2.1368,2.1664,0.0,2.4087,0.0,2.5141,2.5165,0.0,2.5329,2.5383,2.5556,2.5648,2.5673,2.5624,2.5664,2.5703,2.5703,2.5703,2.5703,2.5703,2.5797,2.5847,2.5789,2.6409,2.6729,2.6445,2.5705,2.4905,2.4085,2.253,2.1244,2.0299,2.0104,1.9833,1.9339,1.9302,1.9176,1.8988,1.8822,1.8736,1.8634,1.8673,1.8375,1.7814,1.8379,1.8556,1.8478,1.8478,1.8361,1.8163,1.8163,1.8163,1.8163,1.8202,1.8321,1.8548,1.9081,1.8941,1.8548,0.0,0.0,0.0,0.0,0.0,0.0,0.0,0.0,0.0,0.0,0.0,0.0,0.0,0.0,0.0,0.0,0.0,0.0,0.0,0.0,0.0,1.4181,1.4342,1.4596,1.4878,1.5166,1.5359,1.5492,1.555,1.5565,0.0,1.5933,1.6591,1.7423,1.7474,1.7642,1.7821,1.7073,1.7092,1.7545,1.711,1.7332,1.7919,1.8031,1.834,1.8646,1.841,1.8224,1.8172,1.8643,1.8244,1.7794,1.8971,0.0,0.0,0.0,1.9889,2.0458,2.1513,2.2722,2.3889,0.0,2.504,2.5132,2.5222,2.5233,2.5293,2.5456,2.5537,2.5582,2.5609,2.5644,2.5702,2.57,2.5703,2.5697,2.5693,2.5704,2.5671,2.5613,2.5843,2.599,2.5882,2.527,2.4728,2.4329,2.2962,2.1849,2.1222,2.0879,2.0413,1.9797,1.9717,1.9573,1.9265,1.904,1.8865,1.8711,1.8711,1.8333,1.7723,1.8375,1.8474,1.8073,1.8363,1.8439,1.8361,1.8361,1.8361,1.8361,1.8361,1.8439,1.8545,1.8787,1.8717,1.8559,0.0,0.0,0.0,0.0,0.0,0.0,0.0,0.0,0.0,0.0,0.0,0.0,0.0,0.0,0.0,0.0,0.0,0.0,0.0,0.0,0.0,1.3576,1.3722,1.4006,1.4397,1.4582,1.4769,1.5,1.5106,0.0,1.5379,1.5287,1.5726,0.0,1.6718,1.6696,1.6504,1.6152,1.6338,1.6807,1.6353,1.662,1.7296,1.7368,1.7608,1.789,1.789,1.7627,1.7337,1.7576,1.7211,1.6759,1.7573,1.8015,0.0,0.0,0.0,1.9764,0.0,0.0,2.3082,2.4257,2.461,2.4783,0.0,2.5158,2.5228,2.5369,2.5434,2.5499,2.5578,2.5657,2.5703,2.5698,2.5702,2.5681,2.5684,2.5673,2.5648,2.5583,2.5534,2.5479,2.5416,2.4927,2.4561,2.4375,2.3329,2.2536,2.2136,2.1586,2.1054,2.0483,2.0299,2.0039,1.9617,1.9067,1.8821,1.8865,1.8655,1.8327,1.7833,1.8489,1.8432,1.7811,1.8313,1.8556,1.8556,1.8556,1.8517,1.8517,1.8556,1.8517,1.8517,1.8517,1.8517,1.8517,0.0,0.0,0.0,0.0,0.0,0.0,0.0,0.0,0.0,0.0,0.0,0.0,0.0,0.0,1.0292,1.033,0.0,0.0,0.0,0.0,0.0,1.2378,1.2998,0.0,1.3547,1.3715,1.3702,1.3615,0.0,0.0,1.5324,1.5552,1.6075,1.6755,1.6159,1.564,1.533,0.0,0.0,1.5397,1.6108,1.6427,1.6496,1.6735,1.6929,1.701,1.6642,1.624,1.5959,1.6351,1.6073,1.5742,1.6746,1.7546,1.8143,0.0,0.0,0.0,0.0,2.086,0.0,2.313,2.3573,2.3846,2.4884,2.5103,2.516,2.536,2.5395,2.5456,2.557,2.5658,2.5693,2.5703,2.571,2.5684,2.5605,2.5609,2.558,2.55,2.5492,2.5474,2.5418,2.5145,2.4844,2.4517,2.3891,2.3307,2.2786,2.2194,2.1724,2.1453,2.1054,2.0614,2.0174,1.8871,1.8593,1.925,1.8579,1.8222,1.8172,1.8811,1.8679,1.8007,1.8465,1.8673,1.8673,1.8673,1.8595,1.8517,1.8634,1.8595,1.8517,1.8517,1.8517,1.8517,0.0,0.0,0.0,0.0,0.0,0.0,0.0,0.0,0.0,0.0,0.0,0.0,0.0,0.8981,0.9332,0.9591,1.033,0.0,0.0,0.0,0.0,1.1641,1.2151,1.2543,1.2849,1.2998,1.3088,0.0,0.0,1.3689,1.4262,1.443,1.5078,1.6167,1.5937,1.5812,1.5698,1.5522,1.5489,1.5594,1.6274,1.6361,1.6194,1.6694,1.6761,1.661,1.6564,1.6094,1.559,1.6333,1.5992,1.5455,1.6736,1.7523,1.8088,1.8694,0.0,0.0,0.0,0.0,0.0,2.3002,2.3783,2.4392,2.4812,2.5025,2.5134,2.5313,2.537,2.5432,2.5531,2.5586,2.5648,2.5632,2.5666,2.5696,2.5664,2.5665,2.5621,2.5507,2.5509,2.5465,2.5399,2.5233,2.5057,2.4898,2.4362,2.3877,2.3455,2.3041,2.2557,2.2018,2.1694,2.0985,1.9842,1.9383,1.8971,1.8606,1.8331,1.7966,1.7557,1.7989,1.7844,1.7252,1.7641,1.8179,1.876,1.876,1.8508,1.8129,1.8167,1.7896,1.7454,1.741,1.765,1.7974,0.0,0.0,0.0,0.0,0.0,0.0,0.0,0.0,0.0,0.0,0.0,0.0,0.0,0.0,0.8626,0.9013,0.955,1.003,1.0437,1.0648,1.0814,1.1008,1.1457,1.1836,1.209,1.2374,1.2483,1.2425,1.2734,1.3144,0.0,1.3754,1.4423,1.5472,1.5434,1.5468,0.0,1.5269,1.5145,1.5169,1.5647,1.5917,1.6114,1.638,1.6578,1.6676,1.6902,1.6527,1.6017,1.6768,1.6495,1.5936,1.6789,1.74,1.7968,1.8866,0.0,0.0,1.9906,0.0,0.0,0.0,2.3297,2.4245,2.4389,2.4771,2.5106,2.5233,2.5332,2.5388,2.5452,2.5523,2.5586,2.5624,2.5666,2.5701,2.5707,2.5701,2.5668,2.5543,2.5507,2.5473,2.5415,2.5292,2.5184,2.5106,2.4728,2.4381,2.4081,2.3689,2.3165,2.2513,2.2207,2.1404,2.0054,1.9693,1.9132,1.8421,1.8142,1.7865,1.7633,1.7838,1.7714,1.7304,1.7456,1.7885,1.8544,1.8559,1.8278,1.7927,1.8164,1.772,1.6921,1.7093,1.7419,1.776,0.0,0.0,0.0,0.0,0.0,0.0,0.0,0.0,0.0,0.0,0.0,0.0,0.0,0.0,0.0,0.8423,0.854,0.8682,0.8973,0.9469,0.9952,1.034,0.0,0.0,0.0,1.1761,1.186,1.1479,1.2119,1.2739,1.3382,1.3619,1.4138,1.4776,1.4569,1.4517,1.4612,1.5112,1.4846,1.4024,1.4255,1.5091,1.6149,1.5853,1.6351,1.7233,1.7555,1.7425,1.7142,1.7599,1.7494,1.716,1.6901,1.7201,1.7806,0.0,0.0,0.0,0.0,0.0,0.0,2.0692,2.1959,2.3279,2.3636,2.4378,2.5032,2.5179,2.5252,2.5332,2.539,2.5441,2.5538,2.5663,2.571,2.5691,2.5699,2.5703,2.5673,2.5609,2.5543,2.5476,2.5414,2.5274,2.5182,2.5107,2.4987,2.4813,2.4631,2.4118,2.3534,2.2947,2.2539,2.1861,2.0925,1.9783,1.9046,1.8786,1.8007,1.7937,1.8478,1.8404,1.8345,1.8238,1.7975,1.7915,1.7978,1.8043,1.7985,1.7949,1.8639,1.8093,1.6941,1.7598,1.787,1.787,0.0,0.0,0.0,0.0,0.0,0.0,0.0,0.0,0.0,0.0,0.0,0.0,0.0,0.7273,0.7389,0.7598,0.7974,0.8295,0.8528,0.9113,0.9477,0.9544,1.025,1.0715,1.0867,1.074,1.0789,1.1067,1.0922,1.1422,1.2619,1.2773,1.3439,0.0,1.4174,1.3988,1.3831,1.4211,1.4346,1.4349,1.5196,1.549,1.5489,1.6263,1.6645,1.6774,1.6864,1.6866,1.7,1.8237,1.8092,1.7422,1.7491,1.7789,0.0,0.0,0.0,0.0,1.9018,0.0,0.0,0.0,0.0,0.0,2.4057,2.4546,2.4888,2.5031,2.5103,2.5212,2.536,2.5444,2.5498,2.5543,2.5648,2.5699,2.5703,2.5703,2.5677,2.5603,2.5582,2.5551,2.548,2.5387,2.5321,2.5255,2.5168,2.5025,2.4827,2.4355,2.3862,2.3346,2.3189,2.2586,2.1495,2.1238,2.0438,1.9082,1.8824,1.841,1.7897,1.7662,1.7507,1.7428,1.716,1.7228,1.7578,1.7596,1.732,1.6921,1.7063,1.6579,1.5879,1.6416,1.6895,1.7368,0.0,0.0,0.0,0.0,0.0,0.0,0.0,0.0,0.0,0.0,0.0,0.0,0.0,0.0,0.6787,0.7097,0.7425,0.775,0.8016,0.8645,0.8894,0.8656,0.9457,0.9789,0.961,0.9771,0.9984,1.0331,1.0262,1.0736,1.1701,1.1789,1.2241,0.0,0.0,0.0,0.0,1.3204,1.3609,1.402,1.4703,1.5174,1.5559,1.6367,1.6853,1.7098,1.7098,1.7277,1.7636,1.8543,1.8573,1.8246,1.8486,1.8442,1.8227,1.7805,0.0,0.0,0.0,0.0,0.0,2.0585,0.0,0.0,2.3316,2.4038,2.4716,2.4855,2.4968,2.5107,2.5243,2.539,2.5464,2.5459,2.5549,2.5623,2.5655,2.5683,2.5683,2.5641,2.5615,2.557,2.5542,2.5486,2.5403,2.536,2.5245,2.5111,2.4865,2.4545,2.4192,2.386,2.3738,2.3149,2.2033,2.2069,2.1158,1.9417,1.9245,1.8716,1.7861,1.7549,1.7408,1.7344,1.7052,1.7235,1.7725,1.7165,1.6817,1.6709,1.7099,1.6505,1.5536,1.6346,1.6862,1.7219,0.0,0.0,0.0,0.0,0.0,0.0,0.0,0.0,0.0,0.0,0.0,0.0,0.0,0.0,0.0,0.0,0.6965,0.7188,0.7447,0.8197,0.8403,0.7911,0.8721,0.8819,0.8175,0.8947,0.9383,0.9462,0.9889,1.0321,1.0797,1.0784,1.0905,1.1132,0.0,0.0,0.0,1.2136,1.2685,1.3285,1.3521,1.4525,1.5965,1.6271,1.6956,1.772,1.772,1.8068,1.85,1.8592,1.8884,1.9252,1.9389,1.8946,1.8266,1.7786,1.7805,0.0,0.0,0.0,0.0,1.934,2.0951,0.0,2.207,2.3221,2.4398,2.4629,2.4831,2.4986,2.5072,2.5177,2.5281,2.5378,2.5363,2.5415,2.5586,2.5642,2.5696,2.5701,2.565,2.5613,2.5609,2.5556,2.548,2.5427,2.5299,2.5113,2.4855,2.47,2.4528,2.4357,2.421,2.3672,2.2684,2.2563,2.1625,1.9867,1.9625,1.9022,1.8134,1.7866,1.7755,1.7749,1.7408,1.77,1.8266,1.7035,1.6756,1.7137,1.7822,1.7069,1.5772,1.696,1.7382,1.7344,0.0,0.0,0.0,0.0,0.0,0.0,0.0,0.0,0.0,0.0,0.0,0.0,0.5803,0.0,0.0,0.0,0.6626,0.6906,0.7167,0.8102,0.8459,0.7986,0.8543,0.8738,0.8415,0.834,0.8631,0.9359,0.894,0.9262,1.0233,0.9977,1.0128,1.0636,0.0,0.0,0.0,1.1056,1.1718,1.2452,1.3717,1.4684,1.5455,1.6174,1.6829,1.7323,1.7323,1.7598,1.8028,1.8461,1.8941,1.9231,1.8539,1.8588,1.8653,1.7527,1.7859,1.8477,1.8143,1.8363,1.8827,1.9385,2.0134,0.0,2.2206,2.2942,2.3594,2.4375,2.4663,2.4814,2.4987,2.4602,2.4505,2.5216,2.4827,2.4721,2.5493,2.5615,2.5634,2.5681,2.5683,2.5677,2.5683,2.5613,2.5576,2.5551,2.5444,2.5302,2.5137,2.4936,2.4771,2.4632,2.4444,2.4155,2.3801,2.3721,2.2741,2.0914,2.0817,1.9929,1.8406,1.8205,1.81,1.8087,1.7811,1.8101,1.8757,1.8168,1.8008,1.7961,1.6668,1.6231,1.6484,1.7202,1.7464,1.7611,0.0,0.0,0.0,0.0,0.0,0.0,0.0,0.0,0.0,0.4696,0.4857,0.4997,0.5129,0.4975,0.5097,0.0,0.0,0.0,0.6661,0.7715,0.8145,0.7681,0.8245,0.8338,0.7773,0.7968,0.8305,0.8779,0.8786,0.9082,0.97,0.9784,0.9739,0.967,0.0,0.0,1.0196,1.0572,1.149,1.2687,1.375,1.4518,1.5136,1.6068,1.6474,1.6534,1.6767,1.7111,1.7678,1.8797,1.9098,1.9008,1.8956,1.8925,1.8671,1.7563,1.7668,1.8093,1.7782,1.7864,1.8197,1.8831,1.9456,0.0,0.0,2.2231,2.2937,2.3989,2.4317,2.4519,2.4804,2.4651,2.4648,2.5118,2.4957,2.4913,2.5379,2.5543,2.5601,2.5659,2.568,2.5703,2.5699,2.5664,2.5636,2.56,2.5511,2.541,2.5318,2.5178,2.5019,2.4839,2.4718,2.4538,2.4356,2.3824,2.285,2.1443,2.0913,1.9952,1.8642,1.8448,1.8345,1.8339,1.8091,1.8614,1.9532,1.8735,1.8822,1.9311,1.7827,1.7131,1.7015,1.7226,1.7189,1.7149,0.2039,0.0,0.0,0.0,0.2707,0.0,0.0,0.0,0.3686,0.4372,0.4404,0.4379,0.4552,0.4287,0.4331,0.4898,0.5443,0.0,0.611,0.7101,0.7537,0.7201,0.7695,0.7619,0.6766,0.7544,0.801,0.8182,0.8737,0.9043,0.9241,0.9559,0.9443,0.8923,0.9205,0.9555,0.9971,1.0234,1.133,1.2878,1.3647,1.4333,1.4967,1.5928,1.6042,1.5727,1.6298,1.6757,1.7316,1.893,1.9003,1.8599,1.933,1.922,1.8676,1.77,1.7494,1.7606,1.7388,1.7452,1.767,1.8073,1.8732,1.95,0.0,0.0,0.0,2.3337,2.3784,2.4079,2.4519,2.4653,2.4778,2.5006,2.5023,2.5081,2.5263,2.542,2.5556,2.5598,2.5648,2.5683,2.5703,2.5697,2.5676,2.5621,2.5571,2.5504,2.5439,2.5376,2.5263,2.5083,2.4996,2.4866,2.4704,2.3854,2.2871,2.1775,2.0931,1.9938,1.8878,1.8678,1.8582,1.8544,1.836,1.9056,2.0271,1.9125,1.9534,2.0754,1.9285,1.8273,1.7681,1.7508,1.7287,1.7029,0.2091,0.2338,0.0,0.0,0.2852,0.0,0.0,0.0,0.3955,0.4373,0.4217,0.4153,0.4384,0.3612,0.3439,0.432,0.4428,0.4808,0.5712,0.6294,0.6616,0.6664,0.6624,0.6396,0.5874,0.6783,0.7473,0.7784,0.8297,0.8685,0.8924,0.8882,0.8997,0.9217,0.856,0.861,0.9175,0.9687,1.0634,1.1948,1.3212,1.4114,1.4832,1.5659,1.562,1.5302,1.6264,1.6592,1.6739,1.7823,1.8133,1.8082,1.8228,1.864,1.8848,1.7741,1.7567,1.7624,1.6976,1.6926,1.7142,1.7375,1.7755,1.8336,1.9265,0.0,2.059,2.2174,0.0,2.3272,2.4026,0.0,0.0,2.4709,2.4353,2.4263,2.509,2.5292,2.5394,2.5589,2.5606,2.5631,2.5683,2.5694,2.5698,2.5696,2.5687,2.5652,2.5589,2.5515,2.5441,2.5364,2.5235,2.5126,2.5034,2.4739,2.3762,2.2058,2.1813,2.0825,1.9152,1.9001,1.8878,1.8753,1.8545,1.9276,2.0495,1.9579,2.0421,2.1993,1.9138,1.8315,1.8738,1.8709,1.8622,1.874,0.1819,0.1929,0.0,0.0,0.2184,0.0,0.0,0.0,0.3834,0.3739,0.3929,0.3972,0.3581,0.3394,0.3217,0.3031,0.3544,0.4105,0.4765,0.5268,0.0,0.6447,0.6524,0.6396,0.6129,0.6806,0.7115,0.7076,0.7619,0.7866,0.7823,0.844,0.8427,0.7848,0.8021,0.8219,0.8399,0.8869,0.9982,1.1486,1.2507,1.3404,1.4216,1.5457,1.5881,1.5909,1.6328,1.6503,1.6584,1.7365,1.7567,1.7569,1.7737,1.7908,1.7786,1.6485,1.6449,1.6616,1.5722,1.5988,1.6504,1.6633,1.6975,1.7562,1.8501,1.926,2.0206,2.1655,0.0,0.0,0.0,0.0,0.0,0.0,2.4516,2.4531,2.4972,2.5146,2.5309,2.5525,2.558,2.5612,2.5637,2.5643,2.5664,2.5699,2.5697,2.5687,2.5668,2.5625,2.5566,2.5454,2.5401,2.5307,2.5163,2.4534,2.355,2.2284,2.16,2.06,1.9372,1.92,1.9086,1.9017,1.8771,1.9487,2.0807,2.0341,2.0876,2.185,2.056,2.0034,1.9935,1.9437,1.9107,1.8988,0.1627,0.0,0.1653,0.1642,0.1677,0.1855,0.2339,0.3056,0.3444,0.3175,0.3516,0.3509,0.2783,0.2908,0.2715,0.1967,0.2611,0.326,0.3689,0.4202,0.4793,0.5475,0.586,0.5935,0.5654,0.6395,0.6679,0.6509,0.7142,0.7395,0.0,0.0,0.0,0.0,0.7708,0.7988,0.7943,0.8332,0.9506,1.1107,1.1747,1.2699,1.3815,1.4841,1.5558,1.5987,1.6129,1.6162,1.6197,1.6857,1.6978,1.6803,1.6923,1.6964,1.6753,1.5608,1.5597,1.5761,1.502,1.5354,1.5937,1.6029,1.6409,1.6946,1.7583,1.8388,1.9344,2.0538,2.1517,0.0,0.0,0.0,2.3711,0.0,0.0,2.4444,2.4818,2.5005,2.5194,2.5421,2.5523,2.5586,2.5605,2.5609,2.5615,2.5663,2.5664,2.5683,2.5709,2.5705,2.5665,2.5561,2.5561,2.5486,2.5301,2.462,2.3771,2.279,2.1764,2.0797,1.989,1.9479,1.9405,1.9609,1.9341,2.0062,2.1408,2.1047,2.1359,2.2,2.1791,2.155,2.1255,2.0348,1.9805,1.96,0.1685,0.1594,0.1567,0.1683,0.1704,0.1938,0.2605,0.2621,0.2644,0.2865,0.2799,0.2624,0.2247,0.1851,0.1544,0.1439,0.163,0.1996,0.2506,0.3201,0.3487,0.3289,0.4226,0.4431,0.3826,0.5267,0.6105,0.6199,0.7063,0.7486,0.0,0.0,0.0,0.0,0.7753,0.7792,0.8026,0.8441,0.9378,1.0647,1.0982,1.2301,1.3951,1.3756,1.4096,1.4812,1.5444,1.5394,1.5197,1.6268,1.6244,1.5716,1.5433,1.5732,1.6052,1.5529,1.5436,1.549,1.5394,1.5407,1.5459,1.5669,1.6077,1.6378,1.6278,1.6799,1.7502,1.8259,1.9411,2.0384,2.0745,2.1608,2.2443,0.0,0.0,0.0,0.0,2.4865,2.5019,2.5264,2.5413,2.5537,2.5598,2.5607,2.5592,2.5597,2.5593,2.5638,2.5703,2.5702,2.5697,2.5687,2.5687,2.5658,2.5593,2.5482,2.4914,2.3842,2.2899,2.1924,2.0926,1.9936,1.9926,2.0637,2.045,2.1152,2.2373,2.1536,2.1975,2.3069,2.2206,2.2237,2.26,2.1609,2.117,2.111,0.1659,0.1589,0.1605,0.1724,0.1783,0.1846,0.2093,0.2395,0.2597,0.2456,0.2654,0.2583,0.192,0.1947,0.1704,0.108,0.1357,0.168,0.1968,0.2216,0.2525,0.2815,0.3756,0.4216,0.4125,0.5066,0.5627,0.5797,0.6174,0.6381,0.0,0.0,0.0,0.0,0.0,0.7239,0.7125,0.8,0.8907,0.9946,1.1271,1.2067,1.2503,1.3458,1.409,1.4559,1.4814,1.4738,1.457,1.5296,1.5448,1.5209,1.4514,1.4361,1.4332,1.3609,1.3689,1.3962,1.4001,1.4463,1.4955,1.4978,1.533,1.567,1.5595,1.6368,1.718,1.7551,1.8708,1.9721,2.004,0.0,0.0,0.0,0.0,0.0,0.0,2.4403,2.47,2.5053,2.5265,2.5403,2.5523,2.5535,2.5547,2.56,2.5603,2.5615,2.5638,2.5683,2.5703,2.5699,2.5707,2.5673,2.5606,2.5532,2.5008,2.4022,2.3088,2.2451,2.2073,2.0479,2.0483,2.1722,2.0942,2.1452,2.2795,2.2369,2.2692,2.344,2.3058,2.2946,2.2935,2.2419,2.2095,2.1983,0.1133,0.1141,0.1307,0.1707,0.1841,0.1881,0.1844,0.201,0.2137,0.2054,0.2096,0.2041,0.1602,0.1724,0.1569,0.0929,0.1095,0.1311,0.1359,0.1544,0.173,0.2033,0.3,0.3566,0.3683,0.4287,0.4706,0.4915,0.515,0.5293,0.5513,0.0,0.0,0.0,0.0,0.6956,0.6717,0.7907,0.877,0.9612,1.1279,1.1783,1.1634,1.2518,1.2985,1.324,1.3892,1.3824,1.3521,1.4101,1.4253,1.4014,1.3389,1.3118,1.3041,1.2583,1.2746,1.3108,1.3362,1.3882,1.4392,1.4437,1.4863,1.5254,1.5096,1.585,1.6683,1.6863,1.7746,1.8627,1.9143,0.0,0.0,0.0,0.0,0.0,0.0,2.3879,2.4038,2.4322,2.4839,2.5254,2.5418,2.5421,2.5449,2.5556,2.5526,2.5527,2.5606,2.5648,2.5658,2.566,2.5683,2.5679,2.5595,2.5554,2.523,2.4594,2.3689,2.3234,2.3155,2.1589,2.1625,2.2821,2.2092,2.2447,2.3572,2.3399,2.3505,2.3725,2.3616,2.3458,2.3223,2.285,2.2605,2.2405,0.0337,0.0337,0.0663,0.1557,0.184,0.1947,0.1975,0.155,0.131,0.1609,0.1179,0.0976,0.1235,0.1174,0.1052,0.1012,0.0909,0.0808,0.0806,0.1096,0.1154,0.0962,0.1891,0.2462,0.2462,0.3081,0.3473,0.3751,0.4029,0.4467,0.4912,0.0,0.0,0.0,0.6771,0.6961,0.6911,0.8128,0.9023,0.9685,1.0952,1.1428,1.1285,1.106,1.0893,1.1016,1.2618,1.2629,1.2076,1.2827,1.2764,1.2363,1.2107,1.2089,1.2267,1.2511,1.2667,1.2869,1.3414,1.3685,1.3858,1.4127,1.4711,1.5116,1.4719,1.5244,1.5894,1.6102,1.6589,1.7197,1.7946,1.813,0.0,0.0,0.0,0.0,0.0,2.3381,2.3135,2.3177,2.4233,2.5038,2.5206,2.5187,2.5274,2.5471,2.539,2.5422,2.5576,2.5624,2.5625,2.5609,2.5661,2.5654,2.5604,2.5605,2.5577,2.5503,2.4685,2.4258,2.4141,2.3164,2.3184,2.3962,2.3802,2.4068,2.4614,2.4548,2.4337,2.4018,2.3958,2.3813,2.3571,2.3028,2.2685,2.2515,0.0341,0.0408,0.0548,0.0751,0.1092,0.1569,0.2006,0.1569,0.1223,0.1369,0.0828,0.0559,0.0963,0.0872,0.0918,0.1116,0.1138,0.0987,0.0606,0.0749,0.0653,0.0263,0.1064,0.1739,0.22,0.2777,0.3427,0.4158,0.4237,0.4508,0.4905,0.0,0.0,0.0,0.0,0.6572,0.6851,0.7725,0.8902,1.0123,1.0221,1.0338,1.0437,1.0597,1.0226,0.9798,1.1017,1.1404,1.1486,1.21,1.2485,1.2683,1.2194,1.2116,1.2157,1.2246,1.2344,1.2463,1.3114,1.332,1.3428,1.3837,1.4032,1.427,1.4624,1.4977,1.5296,1.5491,1.6173,1.6669,1.6559,1.7221,1.8184,0.0,0.0,0.0,0.0,2.3009,2.3236,2.2996,2.395,2.4516,2.4208,2.4713,2.5099,2.5264,2.5802,2.59,2.5395,2.5989,2.6112,2.5613,2.5623,2.5629,2.5593,2.5603,2.5599,2.5566,2.4763,2.467,2.5168,2.3611,2.3714,2.5033,2.4221,2.4282,2.4965,2.4782,2.4647,2.4516,2.4386,2.4192,2.3886,2.3259,2.2893,2.2712,-0.0307,-0.0251,-0.0129,0.0066,0.0386,0.0768,0.1336,0.0908,0.0631,0.0889,0.0361,0.0172,0.0614,0.0727,0.0883,0.1062,0.1186,0.1189,0.0847,0.0604,0.0445,0.0382,0.0508,0.0816,0.1378,0.1714,0.23,0.3111,0.3245,0.3663,0.4412,0.0,0.0,0.0,0.0,0.6115,0.6551,0.7597,0.8696,0.9707,0.9614,0.9616,0.0,0.9861,0.9631,0.9263,0.9865,1.0328,1.0651,1.1023,1.1368,1.158,1.1167,1.0998,1.1049,1.1191,1.1451,1.176,1.2335,1.2745,1.3072,1.3386,1.3734,1.4061,1.4358,1.474,1.5164,1.5543,1.583,1.6181,1.6782,1.6954,1.7574,0.0,0.0,0.0,2.2338,2.2652,2.265,2.2129,2.2721,2.3089,2.282,2.4104,2.4962,2.4974,2.5456,2.5562,2.5154,2.5704,2.587,2.5485,2.5185,2.5197,2.5542,2.5208,2.5213,2.5583,2.478,2.4648,2.5036,2.3662,2.3763,2.4987,2.4354,2.4505,2.5225,2.5067,2.4917,2.478,2.4644,2.447,2.4246,2.3846,2.3504,2.3177,-0.1008,-0.1006,-0.0863,-0.0325,-0.0265,-0.0201,0.0267,0.0,-0.0131,0.0251,-0.0061,-0.0178,0.0293,0.0571,0.0784,0.0836,0.1119,0.1232,0.1171,0.0615,0.0449,0.0729,0.0168,0.0,0.0427,0.0359,0.0779,0.1653,0.1922,0.2638,0.0,0.0,0.0,0.0,0.0,0.5853,0.625,0.7552,0.8332,0.8834,0.9084,0.908,0.9026,0.9111,0.9159,0.9159,0.9211,0.9472,0.9836,0.9917,1.002,1.0028,0.9769,0.9718,0.9762,0.9961,1.0438,1.0964,1.141,1.2017,1.2569,1.288,1.3505,1.4011,1.4049,1.4537,1.5181,1.5777,1.5656,1.5918,1.741,1.7051,1.7136,1.9083,2.0475,2.1535,2.216,2.2198,2.1847,2.0976,2.1306,0.0,2.1298,2.3321,2.4614,2.4606,2.4832,2.4941,2.4845,2.5184,2.5351,2.5253,2.4703,2.4675,2.5266,2.4721,2.4739,2.5398,2.482,2.4502,2.4351,2.3592,2.368,2.441,2.4342,2.4686,2.5279,2.5321,2.5197,2.4948,2.4831,2.4689,2.4582,2.4601,2.4299,2.3868,-0.0671,-0.0595,-0.0589,-0.0467,-0.047,-0.0466,-0.0322,-0.0253,-0.0184,-0.0058,-0.047,-0.059,-0.017,-0.0056,0.0111,0.0485,0.0883,0.0998,0.0592,0.0773,0.0673,0.0,-0.0112,-0.0169,-0.0057,-0.006,0.0606,0.2075,0.2169,0.2841,0.0,0.0,0.0,0.0,0.0,0.6035,0.6685,0.7192,0.7752,0.831,0.8104,0.8219,0.8521,0.8784,0.8883,0.8935,0.9256,0.962,0.9941,0.9844,1.0102,1.0494,1.0336,1.0261,1.0269,1.0312,1.0423,1.0635,1.1209,1.1469,1.1728,1.2569,1.2871,1.3122,1.3721,1.4244,1.4711,1.5194,1.5714,1.612,1.613,1.6991,1.7729,1.7804,1.9819,2.116,2.0473,2.1574,2.1876,2.0357,2.1286,2.157,2.0232,2.1953,2.3419,2.3988,2.4875,2.5129,2.4532,2.5385,2.562,2.5063,2.4946,2.4618,2.4089,2.4735,2.4806,2.437,2.506,2.5013,2.4307,2.4161,2.4199,2.4399,2.4383,2.4466,2.462,2.5284,2.5446,2.5302,2.5224,2.516,2.5072,2.5068,2.4955,2.4693,-0.0538,-0.0467,-0.0531,-0.0471,-0.0472,-0.0531,-0.0504,-0.0431,-0.0362,-0.0296,-0.0583,-0.0695,-0.0464,-0.0284,-0.0111,0.0055,0.05,0.0668,0.0438,0.0389,0.0224,-0.0168,-0.0224,-0.0339,-0.0575,-0.0241,0.0486,0.1704,0.1873,0.2656,0.0,0.0,0.0,0.4338,0.0,0.5712,0.6343,0.6605,0.6932,0.7354,0.765,0.7745,0.7784,0.8359,0.8672,0.8778,0.8672,0.8962,0.9365,0.948,0.9688,0.9859,0.9769,0.9762,0.9762,0.971,0.9865,1.0218,1.0685,1.1057,1.1477,1.2224,1.2529,1.2813,1.3256,1.3768,1.4283,1.4858,1.5355,1.5707,1.584,1.6701,1.7471,1.756,1.8686,1.9704,1.9988,2.0842,2.1088,2.0246,2.0815,2.1066,2.0541,2.1353,2.2229,2.2962,2.4032,2.4541,2.421,2.4806,2.5088,2.4902,2.4518,2.4359,2.4422,2.4415,2.426,2.3947,2.4048,2.3661,2.2843,2.2497,2.2598,2.3046,2.3007,2.3281,2.3782,2.4586,2.5138,2.5447,2.5379,2.5321,2.5313,2.5253,2.5198,2.5043,-0.0404,-0.0404,-0.0404,-0.0404,-0.0403,-0.0394,-0.0374,-0.0364,-0.042,-0.0484,-0.0579,-0.0625,-0.0647,-0.0401,-0.0224,-0.0224,0.0112,0.0336,0.0336,0.0168,0.0,-0.0112,-0.0112,-0.0341,-0.0758,-0.0363,0.0305,0.1187,0.1576,0.2397,0.3654,0.0,0.0,0.4243,0.4782,0.5333,0.5902,0.6139,0.6333,0.6587,0.7281,0.7345,0.7192,0.7996,0.8415,0.856,0.8143,0.8302,0.8725,0.889,0.889,0.889,0.9001,0.9054,0.9054,0.9061,0.9361,0.9762,1.0218,1.0635,1.1158,1.1877,1.2274,1.2569,1.2832,1.3304,1.3873,1.4433,1.4778,1.5107,1.5668,1.6281,1.6839,1.732,1.7734,1.8368,1.9508,1.9924,2.0098,1.9965,1.9926,2.0124,2.0646,2.0795,2.119,2.1914,2.3095,2.3801,2.3881,2.4118,2.4366,2.4617,2.4082,2.4071,2.4636,2.4157,2.3853,2.3724,2.3179,2.2501,2.172,2.1011,2.1095,2.1786,2.1711,2.2328,2.3396,2.3838,2.4617,2.5503,2.5457,2.5421,2.5413,2.5363,2.5321,2.5244,-0.0067,-0.0067,-0.0067,-0.0067,-0.0066,-0.0064,-0.0062,-0.0061,-0.0118,-0.0398,-0.0394,-0.0449,-0.0451,-0.0393,-0.0393,-0.0393,0.0,0.0224,0.0224,0.0561,0.0617,0.0168,0.0168,-0.0056,-0.0451,-0.0479,0.0,0.0858,0.156,0.2302,0.3064,0.3881,0.4409,0.475,0.4865,0.5232,0.5837,0.5888,0.6229,0.6662,0.6659,0.6794,0.7139,0.7717,0.7978,0.8037,0.8256,0.8368,0.8421,0.8143,0.7931,0.7937,0.8368,0.8474,0.858,0.9054,0.9211,0.9361,0.9917,1.0072,1.0379,1.146,1.1778,1.1927,1.2421,1.2997,1.3457,1.3515,1.3967,1.4514,1.5,1.5593,1.6101,1.6454,1.7506,1.82,1.7955,1.8672,1.9113,1.887,1.8548,1.86,1.9318,1.9872,2.0459,2.1164,2.2538,2.3394,2.3463,2.3649,2.3862,2.406,2.4081,2.3877,2.3446,2.4219,2.4233,2.3534,2.3586,2.3256,2.2557,2.1698,2.1456,2.171,2.1706,2.2653,2.4132,2.3417,2.4102,2.5585,2.5515,2.5483,2.5486,2.5483,2.5485,2.5452,-0.0673,-0.0337,0.0,0.0,0.0,0.0,0.0,0.0,-0.0059,-0.0169,-0.0224,-0.028,-0.028,-0.0336,-0.0393,-0.0393,-0.028,-0.0168,-0.0168,0.0,0.0056,-0.0168,0.0056,0.0,-0.0393,-0.0117,0.03,0.0718,0.1187,0.1775,0.2386,0.2775,0.3314,0.3913,0.425,0.4822,0.5572,0.5594,0.5824,0.6211,0.6133,0.6064,0.6046,0.6475,0.6961,0.7402,0.7182,0.7402,0.7836,0.7509,0.761,0.7877,0.8037,0.8362,0.8679,0.8784,0.9047,0.9413,0.9865,1.0012,1.0174,1.1015,1.1466,1.1769,1.1959,1.252,1.3142,1.3752,1.4575,1.5251,1.5444,1.5728,1.6002,1.6239,1.6479,1.6851,1.7487,1.7667,1.7955,1.8563,1.8781,1.9119,1.9657,2.0233,2.0661,2.0866,2.266,2.3854,2.3974,2.407,2.4239,2.4465,2.4176,2.3949,2.3787,2.4278,2.3857,2.2596,2.273,2.2147,2.0947,2.069,2.0898,2.1459,2.1463,2.2474,2.4108,2.3789,2.4433,2.5605,2.5566,2.5564,2.5561,2.5517,2.5492,2.5492,-0.1143,-0.0602,-0.0198,0.0,0.0064,0.0124,0.0119,0.0117,0.0115,0.0112,0.0056,-0.0056,-0.0112,-0.0224,-0.028,-0.028,-0.028,-0.028,-0.028,-0.028,-0.028,-0.028,0.0,0.0,-0.028,0.0116,0.0353,0.047,0.097,0.1348,0.1763,0.2048,0.2591,0.3403,0.3793,0.4435,0.5255,0.5229,0.5495,0.5778,0.5686,0.5605,0.5609,0.5828,0.6426,0.7025,0.648,0.681,0.7467,0.7192,0.7348,0.7664,0.7771,0.809,0.8408,0.8408,0.8778,0.9302,0.9562,0.9762,1.0028,1.0632,1.1065,1.1455,1.1751,1.2224,1.2871,1.3716,1.4574,1.5203,1.5344,1.541,1.5558,1.5813,1.5581,1.5664,1.6625,1.6597,1.6913,1.7907,1.8324,1.8822,1.9569,1.9933,2.021,2.0404,2.2316,2.3447,2.3371,2.3746,2.3972,2.4034,2.3791,2.3714,2.3798,2.4115,2.3565,2.2216,2.2148,2.1405,2.0114,2.0012,2.0306,2.0906,2.1186,2.2173,2.3602,2.3922,2.4626,2.5502,2.5512,2.5542,2.5554,2.5526,2.5526,2.5559,-0.121,-0.092,-0.058,0.0065,0.0307,0.0413,0.0412,0.0401,0.0393,0.0393,0.0393,0.028,0.0,0.0,0.0,0.0,0.0,0.0,0.0,0.0,0.0,0.0,0.0,0.0,0.0,0.0,0.0,0.0,0.085,0.1212,0.1117,0.2002,0.2796,0.3533,0.3857,0.4307,0.4877,0.4921,0.5188,0.56,0.5409,0.566,0.6209,0.6209,0.6593,0.7031,0.6701,0.6972,0.7467,0.7192,0.7085,0.7139,0.7413,0.7521,0.7568,0.7824,0.8349,0.883,0.8804,0.9211,0.974,1.0283,1.0502,1.0854,1.1877,1.2332,1.2627,1.3027,1.3372,1.376,1.4218,1.445,1.4657,1.5042,1.4981,1.4946,1.5037,1.5492,1.602,1.6671,1.6533,1.6978,1.8397,1.84,1.8715,1.9647,2.1169,2.1679,2.0889,2.2165,2.2688,2.2252,2.2626,2.2912,2.3118,2.3717,2.3558,2.2682,2.2168,2.1551,2.0862,2.0195,1.9922,1.9979,2.0906,2.1805,2.2677,2.355,2.4455,2.5293,2.5293,2.5382,2.5505,2.5504,2.5574,2.5691,-0.2025,-0.1195,-0.0435,-0.0244,0.0119,0.0409,0.04,0.0395,0.0393,0.0393,0.0393,0.0393,0.028,0.0168,0.0112,0.0112,0.0056,0.0,0.0,0.0,0.0,0.0,0.0,0.0,0.0,0.0113,0.0115,0.0118,0.0523,0.064,0.0647,0.1036,0.1649,0.2373,0.3059,0.3745,0.4303,0.4755,0.4949,0.4962,0.48,0.4846,0.5062,0.5062,0.5391,0.5882,0.5769,0.5991,0.6406,0.6739,0.6686,0.6582,0.7056,0.7483,0.7771,0.7871,0.8349,0.8778,0.8784,0.9131,0.9526,0.9651,1.0261,1.0872,1.1217,1.2157,1.3132,1.361,1.4046,1.4394,1.4549,1.4947,1.5198,1.4998,1.4982,1.5207,1.5678,1.5598,1.5899,1.6913,1.7306,1.7679,1.8172,1.8535,1.8691,1.8697,2.071,2.1851,2.1631,2.2404,2.2772,2.2688,2.2468,2.2478,2.2813,2.3136,2.2779,2.1668,2.1495,2.0822,1.9763,2.0285,2.0843,2.1451,2.229,2.321,2.4113,2.4455,2.4843,2.5244,2.5284,2.5322,2.5357,2.541,2.5427,2.5434,-0.2458,-0.1707,-0.0964,-0.0709,-0.0175,0.023,0.0225,0.0449,0.0561,0.0561,0.0561,0.0561,0.0561,0.0449,0.0336,0.028,0.0224,0.0168,0.0168,0.0168,0.0168,0.0168,0.0168,0.0168,0.0168,0.0224,0.0283,0.0289,0.0453,0.051,0.052,0.0679,0.1154,0.1816,0.2421,0.3144,0.3928,0.4351,0.4565,0.4596,0.4556,0.4429,0.4389,0.4494,0.4772,0.5145,0.5263,0.5513,0.5854,0.6289,0.6451,0.6519,0.6888,0.7414,0.7883,0.7664,0.8031,0.8461,0.8474,0.8928,0.9422,0.9422,1.0049,1.0736,1.1015,1.2049,1.3074,1.3409,1.4014,1.4433,1.4433,1.4801,1.4994,1.4674,1.4593,1.4699,1.5151,1.5084,1.536,1.6303,1.6929,1.7361,1.7644,1.8058,1.8229,1.8012,1.9633,2.0624,2.0681,2.1975,2.2491,2.2005,2.1856,2.1886,2.2113,2.2617,2.2183,2.0841,2.0485,2.0029,1.9518,2.0213,2.0991,2.185,2.2782,2.3545,2.417,2.4628,2.4902,2.5068,2.5126,2.5201,2.5273,2.5303,2.5311,2.5318,-0.2568,-0.2271,-0.1933,-0.1288,-0.0571,-0.0056,-0.0056,0.0449,0.0842,0.0842,0.0898,0.0898,0.0898,0.0785,0.0617,0.0449,0.0393,0.0393,0.0393,0.0393,0.0393,0.0393,0.0393,0.0393,0.0393,0.0393,0.0449,0.0449,0.0617,0.0729,0.0729,0.0842,0.1197,0.1758,0.1939,0.264,0.3682,0.3748,0.4083,0.4463,0.4519,0.4429,0.426,0.445,0.4636,0.4878,0.5144,0.5452,0.5692,0.5829,0.6261,0.6804,0.6821,0.7298,0.7771,0.7295,0.7503,0.7883,0.7919,0.8593,0.9354,0.9361,0.9888,1.0522,1.1175,1.1968,1.2559,1.2559,1.3266,1.3931,1.3931,1.4071,1.4222,1.4176,1.3894,1.3689,1.3718,1.4123,1.4618,1.5056,1.5652,1.6292,1.6921,1.7191,1.7413,1.7679,1.8256,1.8556,1.85,2.1009,2.1828,2.0491,2.0909,2.1166,2.1198,2.2074,2.1764,2.0357,1.9394,1.9326,2.0062,2.0209,2.0678,2.1438,2.2575,2.307,2.3143,2.4215,2.4714,2.4772,2.4865,2.5013,2.5176,2.5195,2.5224,2.5263,-0.2651,-0.2221,-0.1812,-0.1641,-0.1125,-0.0671,-0.0671,-0.0168,0.0224,0.0224,0.0617,0.0898,0.0898,0.0898,0.0842,0.0785,0.0561,0.0393,0.0393,0.0393,0.0393,0.0393,0.0393,0.0393,0.0393,0.0561,0.0673,0.0785,0.0842,0.0842,0.0842,0.0898,0.0957,0.1136,0.1745,0.2087,0.2322,0.3477,0.3966,0.4018,0.4567,0.4696,0.4509,0.4548,0.454,0.4515,0.4603,0.4645,0.4804,0.514,0.5417,0.5585,0.6049,0.6653,0.7212,0.7623,0.7788,0.7895,0.7907,0.8362,0.8862,0.9162,1.002,1.0922,1.1477,1.1769,1.1968,1.2107,1.2628,1.3102,1.3102,1.3789,1.4233,1.3952,1.414,1.4233,1.4092,1.4484,1.4838,1.5052,1.5856,1.6462,1.6757,1.7181,1.7545,1.7679,1.867,1.9047,1.8528,1.9905,2.0475,1.996,2.0429,2.0844,2.1198,2.1337,2.1209,2.0839,2.0488,2.0442,2.0636,2.1532,2.2048,2.2265,2.3202,2.3646,2.3724,2.4137,2.4391,2.4522,2.4753,2.4856,2.4907,2.5082,2.5032,2.4936,-0.2709,-0.2439,-0.2224,-0.2189,-0.1734,-0.1285,-0.1285,-0.0783,-0.0392,-0.0392,0.0112,0.0505,0.0505,0.0729,0.0898,0.0898,0.0729,0.0617,0.0617,0.0617,0.0617,0.0617,0.0617,0.0617,0.0617,0.0729,0.0842,0.0898,0.0898,0.0898,0.0898,0.0898,0.0898,0.0898,0.1314,0.1651,0.1961,0.2732,0.3234,0.3519,0.4239,0.4372,0.4239,0.4505,0.4462,0.4304,0.4349,0.43,0.4247,0.4654,0.4978,0.5278,0.5682,0.6436,0.7233,0.7587,0.7848,0.8062,0.8109,0.8468,0.8928,0.9592,1.0431,1.1175,1.1469,1.1728,1.1927,1.2017,1.2452,1.289,1.3074,1.3552,1.3952,1.3915,1.4104,1.4133,1.38,1.4126,1.4481,1.4648,1.5295,1.5978,1.6642,1.7005,1.7269,1.7461,1.814,1.8371,1.8016,1.8705,1.9243,1.9457,1.9767,2.0104,2.0548,2.0528,2.058,2.0783,2.0357,2.037,2.0769,2.1546,2.2118,2.2558,2.3294,2.3664,2.3728,2.3978,2.4116,2.4192,2.4371,2.4472,2.4538,2.4651,2.467,2.4639,-0.2748,-0.2793,-0.2821,-0.2687,-0.2217,-0.1871,-0.1805,-0.1296,-0.09,-0.0895,-0.0392,0.0,-0.0056,0.0449,0.0785,0.0785,0.0785,0.0842,0.0898,0.0898,0.0898,0.0898,0.0898,0.0898,0.0898,0.0898,0.0898,0.0898,0.0898,0.0898,0.0898,0.0898,0.0954,0.0954,0.0954,0.1289,0.1903,0.2014,0.246,0.3072,0.3688,0.3884,0.3921,0.4344,0.4426,0.431,0.4345,0.4191,0.4036,0.4365,0.4782,0.5198,0.5426,0.6273,0.72,0.7233,0.7623,0.8165,0.8362,0.8692,0.9211,1.0138,1.0812,1.1276,1.1326,1.1719,1.2026,1.1977,1.2431,1.2871,1.3132,1.3276,1.3478,1.3868,1.3862,1.3686,1.3231,1.3584,1.3867,1.3923,1.4476,1.5277,1.6416,1.6625,1.685,1.7115,1.7323,1.7393,1.7393,1.776,1.8279,1.8912,1.9072,1.9391,1.9788,1.9903,2.0188,2.0577,2.0,2.0129,2.0877,2.1181,2.1708,2.2449,2.2982,2.3259,2.3353,2.3667,2.3795,2.3858,2.3946,2.4062,2.4155,2.4174,2.4247,2.4372,-0.2993,-0.2984,-0.2869,-0.2495,-0.2372,-0.2168,-0.1875,-0.1285,-0.0926,-0.09,-0.0392,-0.0112,-0.0336,-0.0056,0.0112,0.0112,0.0336,0.0617,0.0898,0.0898,0.0898,0.0898,0.0898,0.0898,0.0898,0.0898,0.0898,0.0898,0.101,0.101,0.0898,0.101,0.1066,0.1066,0.1066,0.1178,0.1458,0.2124,0.2512,0.2679,0.3347,0.3878,0.4128,0.4233,0.4434,0.4714,0.4714,0.4606,0.4463,0.4835,0.4816,0.4689,0.4919,0.54,0.5832,0.5948,0.6772,0.7698,0.8252,0.8692,0.9211,1.002,1.0592,1.1074,1.1519,1.1728,1.1728,1.1469,1.1877,1.2224,1.2264,1.2666,1.3104,1.3573,1.3336,1.3034,1.2977,1.3411,1.3586,1.3164,1.4245,1.5241,1.5635,1.6107,1.6484,1.6765,1.7144,1.7393,1.7393,1.7747,1.7963,1.8069,1.876,1.931,1.9711,2.0104,2.0509,2.0926,2.1168,2.1394,2.1645,2.1745,2.1869,2.2027,2.2275,2.2476,2.2669,2.3069,2.3369,2.3588,2.3819,2.3941,2.3946,2.4006,2.4081,2.4155,-0.266,-0.2716,-0.264,-0.2225,-0.2157,-0.2074,-0.1831,-0.1588,-0.1395,-0.1407,-0.0841,-0.0505,-0.0673,-0.028,0.0,0.0,0.0336,0.0617,0.0785,0.0954,0.101,0.101,0.1066,0.1122,0.1122,0.1122,0.1122,0.1122,0.1178,0.1178,0.1122,0.1178,0.1234,0.1234,0.1234,0.1291,0.1459,0.1849,0.2071,0.2183,0.285,0.3427,0.3911,0.4102,0.4448,0.4792,0.4698,0.4548,0.4438,0.4702,0.4634,0.4546,0.4799,0.5222,0.5613,0.5708,0.6657,0.7826,0.8442,0.8949,0.9413,0.9762,1.0498,1.1175,1.1427,1.1728,1.1877,1.1778,1.1927,1.2175,1.2382,1.2627,1.2968,1.3621,1.334,1.3042,1.2987,1.3247,1.3363,1.3238,1.4071,1.4915,1.568,1.5988,1.6238,1.6454,1.671,1.6879,1.7115,1.7295,1.7515,1.7882,1.8475,1.8936,1.9199,1.9808,2.0261,2.0646,2.0974,2.1166,2.1261,2.1479,2.1601,2.1661,2.201,2.222,2.2368,2.2669,2.2849,2.2975,2.3116,2.3265,2.341,2.3275,2.3468,2.3792,-0.2382,-0.24,-0.2394,-0.1896,-0.1825,-0.1807,-0.1632,-0.1613,-0.1587,-0.1593,-0.1183,-0.0898,-0.101,-0.0505,-0.0224,-0.0224,0.0168,0.0449,0.0561,0.0785,0.0954,0.1122,0.1234,0.1291,0.1291,0.1291,0.1291,0.1291,0.1347,0.1347,0.1291,0.1347,0.1347,0.1347,0.1347,0.1459,0.1629,0.1629,0.1685,0.1853,0.2296,0.285,0.3448,0.3735,0.4212,0.4712,0.4534,0.4447,0.4422,0.4609,0.4542,0.4465,0.469,0.5035,0.5431,0.5478,0.6549,0.7824,0.8421,0.9001,0.9465,0.9562,1.0233,1.0956,1.1217,1.1628,1.1927,1.2076,1.2076,1.2175,1.248,1.2578,1.2764,1.3488,1.3243,1.2946,1.3024,1.3088,1.3217,1.3497,1.393,1.4674,1.5768,1.5856,1.5988,1.6151,1.6269,1.6497,1.6876,1.6876,1.7212,1.7828,1.8254,1.8553,1.8784,1.9369,1.9803,2.0185,2.0392,2.0527,2.0628,2.0958,2.1135,2.1245,2.1718,2.201,2.2136,2.2343,2.2443,2.2515,2.2515,2.2659,2.285,2.2669,2.29,2.336,-0.2267,-0.2209,-0.2078,-0.1672,-0.1604,-0.1523,-0.1096,-0.1065,-0.1034,-0.1002,-0.0915,-0.101,-0.1234,-0.101,-0.0842,-0.0842,-0.0505,-0.0224,0.0056,0.0168,0.0561,0.1234,0.1291,0.1291,0.1291,0.1291,0.1291,0.1291,0.1459,0.1459,0.1291,0.1515,0.1572,0.1572,0.1572,0.1629,0.1797,0.1797,0.1797,0.1797,0.1853,0.224,0.2792,0.2783,0.3495,0.4535,0.4525,0.4591,0.4792,0.4978,0.471,0.4325,0.4461,0.4564,0.4644,0.4808,0.5934,0.7295,0.7824,0.8415,0.8956,0.9458,0.9666,1.0028,1.1065,1.1318,1.1528,1.1977,1.2076,1.2126,1.2126,1.2126,1.2323,1.2803,1.2462,1.2329,1.2847,1.2913,1.3094,1.3531,1.4067,1.4697,1.5457,1.5558,1.5603,1.5824,1.6107,1.6497,1.6876,1.6876,1.7157,1.772,1.8016,1.8411,1.8784,1.9011,1.9384,1.9823,1.9874,1.9925,2.0076,2.0357,2.053,2.0697,2.1166,2.157,2.194,2.2068,2.2271,2.2515,2.2515,2.2515,2.2525,2.2579,2.2712,2.2868,-0.1834,-0.1795,-0.1681,-0.1344,-0.1277,-0.1192,-0.1013,-0.0996,-0.0971,-0.0921,-0.0905,-0.0954,-0.1066,-0.0954,-0.0898,-0.0898,-0.0505,-0.0224,-0.0112,0.0168,0.0561,0.1178,0.1459,0.1628,0.1628,0.1628,0.1628,0.1628,0.1685,0.1685,0.1628,0.1685,0.1741,0.1741,0.1741,0.1741,0.1797,0.1797,0.1797,0.1797,0.1797,0.2242,0.2905,0.2736,0.3361,0.4328,0.4431,0.4555,0.4721,0.509,0.4992,0.4683,0.4705,0.468,0.4666,0.4751,0.5788,0.6957,0.7165,0.7973,0.8857,0.9061,0.9361,0.9718,1.0233,1.0533,1.0939,1.1719,1.1778,1.1877,1.2274,1.2332,1.2471,1.2832,1.2619,1.2512,1.2919,1.2788,1.2845,1.3434,1.3637,1.4176,1.5153,1.5244,1.5379,1.5792,1.5913,1.6163,1.6497,1.6795,1.7102,1.7393,1.7639,1.8082,1.8784,1.9035,1.9295,1.9624,1.9818,1.994,1.999,2.0096,2.0185,2.0308,2.0613,2.0828,2.1055,2.1229,2.1462,2.1768,2.1768,2.1957,2.2243,2.213,2.2343,2.2659,-0.1437,-0.1394,-0.1345,-0.1143,-0.1076,-0.1062,-0.1022,-0.1008,-0.0984,-0.0932,-0.0926,-0.0919,-0.09,-0.0906,-0.0908,-0.0898,-0.0617,-0.0393,-0.0393,0.0,0.0393,0.0842,0.1347,0.1572,0.1572,0.1741,0.1797,0.1797,0.1797,0.1797,0.1797,0.1797,0.1797,0.1797,0.1797,0.1797,0.1797,0.1797,0.1797,0.1797,0.1908,0.2296,0.2796,0.274,0.3249,0.4044,0.4254,0.4473,0.4746,0.5194,0.5216,0.5004,0.4957,0.491,0.4909,0.5061,0.584,0.6638,0.6706,0.7693,0.8699,0.8857,0.9159,0.9562,0.9814,1.0064,1.0474,1.1267,1.1377,1.1528,1.2126,1.2234,1.2363,1.2842,1.2706,1.2666,1.2939,1.2764,1.2813,1.342,1.3467,1.3836,1.4777,1.5006,1.5244,1.5558,1.5703,1.5913,1.6194,1.6658,1.699,1.7131,1.7248,1.7731,1.8461,1.8793,1.9109,1.9384,1.9617,1.9741,1.9741,1.9812,1.9889,2.005,2.0292,2.0478,2.0595,2.0728,2.0925,2.1151,2.1151,2.1386,2.1688,2.1554,2.1735,2.2056,-0.1143,-0.1076,-0.1076,-0.1076,-0.1076,-0.1076,-0.1075,-0.1052,-0.1023,-0.0992,-0.0988,-0.0965,-0.0905,-0.0925,-0.0873,-0.0901,-0.0898,-0.0898,-0.0898,-0.0449,0.0,0.0393,0.0842,0.1122,0.1122,0.1572,0.1797,0.1797,0.1797,0.1797,0.1797,0.1797,0.1797,0.1797,0.1797,0.1797,0.1797,0.1797,0.1797,0.1853,0.2074,0.2184,0.224,0.2577,0.3077,0.3624,0.4067,0.452,0.4972,0.534,0.5415,0.53,0.53,0.526,0.5294,0.5681,0.6023,0.6369,0.6528,0.7503,0.8474,0.8903,0.9113,0.9361,0.9865,1.0012,1.0174,1.0761,1.0922,1.1074,1.1628,1.1728,1.1927,1.2578,1.2676,1.2735,1.2881,1.2881,1.3065,1.3525,1.361,1.38,1.4258,1.4777,1.5108,1.5108,1.5513,1.5869,1.5976,1.6421,1.6784,1.6967,1.6956,1.7217,1.7774,1.8266,1.8707,1.9101,1.9101,1.9101,1.9101,1.9384,1.9645,1.9899,2.0243,2.0545,2.0794,2.0794,2.0794,2.0794,2.0794,2.0794,2.0827,2.0861,2.0893,2.0926,-0.1143,-0.1076,-0.1076,-0.1076,-0.1076,-0.1069,-0.1049,-0.1039,-0.1023,-0.0992,-0.0988,-0.0982,-0.0963,-0.0969,-0.0971,-0.0962,-0.0942,-0.092,-0.0899,-0.0785,-0.0617,-0.0505,0.0224,0.0617,0.0617,0.0729,0.0842,0.0842,0.1122,0.1291,0.1291,0.1629,0.1797,0.1797,0.1797,0.1797,0.1797,0.1797,0.1908,0.2074,0.2184,0.2462,0.2796,0.2745,0.3081,0.3635,0.3852,0.4152,0.4551,0.5317,0.5461,0.5349,0.5511,0.5515,0.5435,0.5549,0.6004,0.6526,0.6445,0.7167,0.799,0.8474,0.8896,0.9263,0.951,0.9517,0.9673,1.0403,1.049,1.0584,1.1209,1.1719,1.2026,1.2234,1.2578,1.2832,1.2881,1.2881,1.2978,1.3113,1.3113,1.3296,1.3752,1.3941,1.4165,1.449,1.4696,1.491,1.5069,1.5216,1.5348,1.55,1.5543,1.5932,1.6824,1.7624,1.8068,1.8187,1.8187,1.8187,1.8187,1.8266,1.8563,1.8983,1.9095,1.9442,1.9955,1.9955,2.01,2.0395,2.0395,2.0545,2.0794,2.0827,2.0877,2.0893,-0.1076,-0.1076,-0.1076,-0.1076,-0.1076,-0.107,-0.1053,-0.105,-0.1039,-0.101,-0.1016,-0.1014,-0.099,-0.0999,-0.1001,-0.0989,-0.0964,-0.0875,-0.09,-0.0898,-0.0898,-0.0898,-0.0393,0.0,0.0168,0.0336,0.0393,0.0393,0.0673,0.0898,0.1122,0.1403,0.1628,0.1797,0.1797,0.1853,0.1964,0.1964,0.213,0.241,0.2517,0.2796,0.3074,0.3081,0.3304,0.3638,0.3852,0.4073,0.4301,0.5069,0.5379,0.55,0.5774,0.5772,0.5666,0.5747,0.6062,0.6347,0.6312,0.6871,0.7509,0.7836,0.8468,0.9099,0.9413,0.9413,0.9517,0.9984,1.0028,1.0174,1.0744,1.1158,1.1569,1.2026,1.2372,1.2676,1.2881,1.2881,1.2881,1.2881,1.2881,1.3017,1.3296,1.3478,1.38,1.4351,1.4519,1.4568,1.4492,1.4345,1.4317,1.4423,1.4216,1.4479,1.5341,1.6087,1.6924,1.7787,1.7787,1.7787,1.7787,1.7787,1.7988,1.8344,1.8344,1.8616,1.8997,1.9064,1.9332,1.9666,1.9558,1.9788,2.012,2.012,2.0154,2.0208,-0.1076,-0.1076,-0.1076,-0.1076,-0.1076,-0.1076,-0.1076,-0.1076,-0.1067,-0.1041,-0.106,-0.1055,-0.1002,-0.102,-0.1027,-0.0999,-0.0973,-0.0883,-0.09,-0.0898,-0.0898,-0.0898,-0.0898,-0.0673,-0.028,0.0112,0.028,0.028,0.0336,0.0561,0.101,0.101,0.129,0.1685,0.174,0.1906,0.2183,0.224,0.241,0.2747,0.3021,0.313,0.3188,0.3471,0.3585,0.3638,0.4018,0.4138,0.4206,0.4688,0.512,0.5622,0.6009,0.6042,0.5925,0.6122,0.6091,0.5982,0.6176,0.6603,0.7031,0.7085,0.7877,0.883,0.9406,0.9562,0.9614,0.9614,0.9614,0.9769,1.0241,1.0352,1.0753,1.1769,1.2026,1.2274,1.2783,1.2881,1.2881,1.2881,1.2881,1.2881,1.2929,1.3296,1.3779,1.4343,1.4607,1.4552,1.4084,1.3723,1.3541,1.3576,1.312,1.3143,1.3691,1.4171,1.5447,1.7545,1.7598,1.7625,1.7666,1.7666,1.7787,1.7908,1.7948,1.8014,1.8106,1.8252,1.8525,1.8817,1.8616,1.8707,1.9064,1.9064,1.9064,1.9101,-0.1076,-0.1076,-0.1076,-0.1076,-0.1076,-0.1076,-0.1076,-0.1076,-0.1074,-0.1067,-0.1072,-0.1071,-0.1058,-0.1063,-0.1064,-0.1057,-0.1011,-0.0958,-0.0901,-0.0898,-0.0898,-0.0898,-0.0898,-0.0842,-0.0729,-0.0673,-0.0617,-0.0617,-0.0224,0.0,0.0112,0.0393,0.0673,0.0954,0.1456,0.1734,0.1902,0.2408,0.2745,0.3021,0.3077,0.3244,0.3527,0.3583,0.3585,0.3585,0.3694,0.3749,0.3808,0.4203,0.4636,0.512,0.5567,0.5701,0.5729,0.6109,0.6145,0.6117,0.6164,0.6282,0.65,0.6977,0.7295,0.7717,0.8725,0.9295,0.9614,0.9614,0.9614,0.9614,0.9769,1.0138,1.0506,1.071,1.1519,1.2126,1.2274,1.2627,1.2881,1.2881,1.2881,1.2929,1.3036,1.319,1.3351,1.3536,1.3594,1.3444,1.306,1.2952,1.2762,1.2447,1.2625,1.3025,1.3622,1.4098,1.4771,1.5707,1.6058,1.6441,1.6765,1.6765,1.7018,1.7393,1.7407,1.772,1.8106,1.8252,1.8422,1.8577,1.85,1.8553,1.863,1.863,1.863,1.863,-0.1076,-0.1076,-0.1076,-0.1076,-0.1076,-0.1076,-0.1076,-0.1076,-0.1076,-0.1076,-0.1076,-0.107,-0.1057,-0.1067,-0.1065,-0.1037,-0.0997,-0.0952,-0.0901,-0.0898,-0.0898,-0.0898,-0.0898,-0.0898,-0.0898,-0.0898,-0.0898,-0.0898,-0.0673,-0.0393,-0.0112,0.0112,0.0393,0.0785,0.112,0.1512,0.2015,0.2352,0.28,0.3357,0.3357,0.3469,0.3585,0.3585,0.3585,0.3585,0.3585,0.3585,0.3641,0.4039,0.4363,0.4622,0.5128,0.5403,0.5622,0.5845,0.6064,0.6178,0.6178,0.6178,0.6258,0.6468,0.6755,0.7197,0.8159,0.8823,0.919,0.919,0.9406,0.9614,0.9614,0.9821,1.0087,1.0352,1.0905,1.1368,1.161,1.2175,1.2529,1.2529,1.2735,1.2929,1.3085,1.3238,1.3307,1.3351,1.3432,1.3252,1.2826,1.2782,1.2617,1.2228,1.2407,1.2658,1.2973,1.3401,1.3894,1.4456,1.5154,1.5579,1.5812,1.5812,1.5988,1.6312,1.6343,1.6672,1.7188,1.7312,1.7639,1.8108,1.7948,1.7988,1.8187,1.8187,1.8305,1.85,-0.1076,-0.1076,-0.1076,-0.1076,-0.1076,-0.1076,-0.1076,-0.1076,-0.1076,-0.1076,-0.1076,-0.1067,-0.1044,-0.1061,-0.1054,-0.1001,-0.098,-0.095,-0.09,-0.0902,-0.0903,-0.0898,-0.0898,-0.0898,-0.0898,-0.0898,-0.0898,-0.0842,-0.0842,-0.0617,-0.0056,-0.0056,0.0224,0.0729,0.0842,0.1345,0.2127,0.2238,0.2798,0.3585,0.3585,0.3585,0.3585,0.3585,0.3585,0.3585,0.3585,0.3585,0.3641,0.3981,0.4086,0.4181,0.4632,0.5073,0.5508,0.5563,0.5896,0.6178,0.6178,0.6178,0.6126,0.5963,0.6292,0.6873,0.7453,0.8174,0.8756,0.8756,0.9207,0.9614,0.9614,0.9614,0.9718,1.019,1.0344,1.0549,1.1006,1.1619,1.1977,1.1977,1.252,1.292,1.3123,1.3334,1.3409,1.3409,1.3515,1.3414,1.2948,1.2882,1.272,1.2318,1.238,1.2422,1.2422,1.2824,1.3191,1.3564,1.4451,1.4915,1.5108,1.5108,1.5187,1.5311,1.5311,1.5591,1.61,1.6194,1.6655,1.7338,1.706,1.7173,1.7449,1.7449,1.7666,1.7956,-0.1076,-0.1076,-0.1076,-0.1076,-0.1076,-0.1076,-0.1076,-0.1076,-0.1076,-0.1076,-0.1076,-0.1074,-0.107,-0.1073,-0.1063,-0.103,-0.1025,-0.0988,-0.0903,-0.0922,-0.0925,-0.0898,-0.0898,-0.0898,-0.0898,-0.0898,-0.0842,-0.0729,-0.0729,-0.0617,-0.0336,-0.0336,-0.0224,-0.0056,0.0505,0.112,0.1902,0.2402,0.3019,0.3585,0.3585,0.3585,0.3585,0.3585,0.3585,0.3585,0.3585,0.3585,0.3585,0.3641,0.3697,0.3747,0.4184,0.4622,0.5066,0.5454,0.5896,0.6178,0.6178,0.6178,0.6126,0.5963,0.6101,0.625,0.6191,0.7383,0.8561,0.8561,0.9118,0.9614,0.9614,0.9614,0.9614,0.9718,1.0087,1.0454,1.0506,1.1116,1.1578,1.1578,1.2215,1.2852,1.3324,1.3467,1.3563,1.3563,1.3573,1.3414,1.2948,1.2882,1.272,1.2318,1.2637,1.2834,1.2834,1.3289,1.332,1.3017,1.3533,1.4269,1.5108,1.5108,1.5187,1.5311,1.5344,1.549,1.568,1.5844,1.5964,1.6051,1.6008,1.6008,1.6083,1.6083,1.5844,1.5691,-0.1076,-0.1076,-0.1076,-0.1076,-0.1076,-0.1076,-0.1076,-0.1076,-0.1076,-0.1076,-0.1076,-0.1069,-0.1054,-0.1052,-0.1047,-0.1035,-0.0969,-0.0939,-0.0812,-0.076,-0.0813,-0.0787,-0.0785,-0.0842,-0.0898,-0.0842,-0.0729,-0.0505,-0.0673,-0.0561,-0.028,-0.028,-0.0224,-0.0056,0.0168,0.0672,0.1344,0.1956,0.2573,0.3137,0.3474,0.3585,0.3585,0.3585,0.3585,0.3585,0.3585,0.3585,0.3585,0.3585,0.3585,0.3638,0.3802,0.4184,0.4622,0.5066,0.5508,0.59,0.6123,0.6178,0.6126,0.5963,0.5982,0.5996,0.5788,0.6683,0.7676,0.8088,0.8684,0.9242,0.9562,0.9614,0.9614,0.9614,0.9821,0.9984,1.0051,1.0608,1.1167,1.1578,1.1968,1.2314,1.255,1.2638,1.2686,1.2686,1.2686,1.2609,1.2416,1.2406,1.2319,1.2136,1.231,1.2549,1.2822,1.307,1.3212,1.331,1.3517,1.371,1.3878,1.4139,1.4362,1.4605,1.4593,1.4869,1.5334,1.5367,1.5579,1.5788,1.5788,1.5788,1.5788,1.5788,1.5688,1.5531]},{"header":{"parameterUnit":"m.s-1","parameterCategory":1,"la1":30.6,"la2":28.766,"lo1":-90.7593,"lo2":-88.6598,"dy":0.0162,"dx":0.0183,"nx":116,"ny":114,"refTime":"2023-05-27T12:00:00:Z","depth":0,"parameterNumber":3,"parameterNumberName":"V-component_of_WINDS"},"data":[0.0,0.0,0.0,0.0,0.0,0.0,0.0,0.0,0.0,0.0,0.0,0.0,0.0,0.0,0.0,0.0,0.0,0.0,0.0,0.0,0.0,0.0,0.0,0.0,0.0,0.0,0.0,0.0,0.0,0.0,0.0,0.0,0.0,0.0,0.0,0.0,0.0,0.0,0.0,0.0,0.0,0.0,0.0,0.0,0.0,0.0,0.0,0.0,0.0,0.0,0.0,0.0,0.0,0.0,0.0,0.0,0.0,0.0,0.0,0.0,0.0,0.0,0.0,0.0,0.0,0.0,0.0,0.0,0.0,0.0,0.0,0.0,0.0,0.0,0.0,0.0,0.0,0.0,0.0,0.0,0.0,0.0,0.0,0.0,0.0,0.0,0.0,0.0,0.0,0.0,0.0,0.0,0.0,0.0,0.0,0.0,0.0,0.0,0.0,0.0,0.0,0.0,0.0,0.0,0.0,0.0,0.0,0.0,0.0,0.0,0.0,0.0,0.0,0.0,0.0,0.0,0.0,0.0,0.0,0.0,0.0,0.0,0.0,0.0,0.0,0.0,0.0,0.0,0.0,0.0,0.0,0.0,0.0,0.0,0.0,0.0,0.0,0.0,0.0,0.0,0.0,0.0,0.0,0.0,0.0,0.0,0.0,0.0,0.0,0.0,0.0,0.0,0.0,0.0,0.0,0.0,0.0,0.0,0.0,0.0,0.0,0.0,0.0,0.0,0.0,0.0,0.0,0.0,0.0,0.0,0.0,0.0,0.0,0.0,0.0,0.0,0.0,0.0,0.0,0.0,0.0,0.0,0.0,0.0,0.0,0.0,0.0,0.0,0.0,0.0,0.0,0.0,0.0,0.0,0.0,0.0,0.0,0.0,0.0,0.0,0.0,0.0,0.0,0.0,0.0,0.0,0.0,0.0,0.0,0.0,0.0,0.0,0.0,0.0,0.0,0.0,0.0,0.0,0.0,0.0,0.0,0.0,0.0,0.0,0.0,0.0,0.0,0.0,0.0,0.0,0.0,0.0,0.0,0.0,0.0,0.0,0.0,0.0,0.0,0.0,0.0,0.0,0.0,0.0,0.0,0.0,0.0,0.0,0.0,0.0,0.0,0.0,0.0,0.0,0.0,0.0,0.0,0.0,0.0,0.0,0.0,0.0,0.0,0.0,0.0,0.0,0.0,0.0,0.0,0.0,0.0,0.0,0.0,0.0,0.0,0.0,0.0,0.0,0.0,0.0,0.0,0.0,0.0,0.0,0.0,0.0,0.0,0.0,0.0,0.0,0.0,0.0,0.0,0.0,0.0,0.0,0.0,0.0,0.0,0.0,0.0,0.0,0.0,0.0,0.0,0.0,0.0,0.0,0.0,0.0,0.0,0.0,0.0,0.0,0.0,0.0,0.0,0.0,0.0,0.0,0.0,0.0,0.0,0.0,0.0,0.0,0.0,0.0,0.0,0.0,0.0,0.0,0.0,0.0,0.0,0.0,0.0,0.0,0.0,0.0,0.0,0.0,0.0,0.0,0.0,0.0,0.0,0.0,0.0,0.0,0.0,0.0,0.0,0.0,0.0,0.0,0.0,0.0,0.0,0.0,0.0,0.0,0.0,0.0,0.0,0.0,0.0,0.0,0.0,0.0,0.0,0.0,0.0,0.0,0.0,0.0,0.0,0.0,0.0,0.0,0.0,0.0,0.0,0.0,0.0,0.0,0.0,0.0,0.0,0.0,0.0,0.0,0.0,0.0,0.0,0.0,0.0,0.0,0.0,0.0,0.0,0.0,0.0,0.0,0.0,0.0,0.0,0.0,0.0,0.0,0.0,0.0,0.0,0.0,0.0,0.0,0.0,0.0,0.0,0.0,0.0,0.0,0.0,0.0,0.0,0.0,0.0,0.0,0.0,0.0,0.0,0.0,0.0,0.0,0.0,0.0,0.0,0.0,0.0,0.0,0.0,0.0,0.0,0.0,0.0,0.0,0.0,0.0,0.0,0.0,0.0,0.0,0.0,0.0,0.0,0.0,0.0,0.0,0.0,0.0,0.0,0.0,0.0,0.0,0.0,0.0,0.0,0.0,0.0,0.0,0.0,0.0,0.0,0.0,0.0,0.0,0.0,0.0,0.0,0.0,0.0,0.0,0.0,0.0,0.0,0.0,0.0,0.0,0.0,0.0,0.0,0.0,0.0,0.0,0.0,0.0,0.0,0.0,0.0,0.0,0.0,0.0,0.0,0.0,0.0,0.0,0.0,0.0,0.0,0.0,0.0,0.0,0.0,0.0,0.0,0.0,0.0,0.0,0.0,0.0,0.0,0.0,0.0,0.0,0.0,0.0,0.0,0.0,0.0,0.0,0.0,0.0,0.0,0.0,0.0,0.0,0.0,0.0,0.0,0.0,0.0,0.0,0.0,0.0,0.0,0.0,0.0,0.0,0.0,0.0,0.0,0.0,0.0,0.0,0.0,0.0,0.0,0.0,0.0,0.0,0.0,0.0,0.0,0.0,0.0,0.0,0.0,0.0,0.0,0.0,0.0,0.0,0.0,0.0,0.0,0.0,0.0,0.0,0.0,0.0,0.0,0.0,0.0,0.0,0.0,0.0,0.0,0.0,0.0,0.0,0.0,0.0,0.0,0.0,0.0,0.0,0.0,0.0,0.0,0.0,0.0,0.0,0.0,0.0,0.0,0.0,0.0,0.0,0.0,0.0,0.0,0.0,0.0,0.0,0.0,0.0,0.0,0.0,0.0,0.0,0.0,0.0,0.0,0.0,0.0,0.0,0.0,0.0,0.0,0.0,0.0,0.0,0.0,0.0,0.0,0.0,0.0,0.0,0.0,0.0,0.0,0.0,0.0,0.0,0.0,0.0,0.0,0.0,0.0,0.0,0.0,0.0,0.0,0.0,0.0,0.0,0.0,0.0,0.0,0.0,0.0,0.0,0.0,0.0,0.0,0.0,0.0,0.0,0.0,0.0,0.0,0.0,0.0,0.0,0.0,0.0,0.0,0.0,0.0,0.0,0.0,0.0,0.0,0.0,0.0,0.0,0.0,0.0,0.0,0.0,0.0,0.0,0.0,0.0,0.0,0.0,0.0,0.0,0.0,0.0,0.0,0.0,0.0,0.0,0.0,0.0,0.0,0.0,0.0,0.0,0.0,0.0,0.0,0.0,0.0,0.0,0.0,0.0,0.0,0.0,0.0,0.0,0.0,0.0,0.0,0.0,0.0,0.0,0.0,0.0,0.0,0.0,0.0,0.0,0.0,0.0,0.0,0.0,0.0,0.0,0.0,0.0,0.0,0.0,0.0,0.0,0.0,0.0,0.0,0.0,0.0,0.0,0.0,0.0,0.0,0.0,0.0,0.0,0.0,0.0,0.0,0.0,0.0,0.0,0.0,0.0,0.0,0.0,0.0,0.0,0.0,0.0,0.0,0.0,0.0,0.0,0.0,0.0,0.0,0.0,0.0,0.0,0.0,0.0,0.0,0.0,0.0,0.0,0.0,0.0,0.0,0.0,0.0,0.0,0.0,0.0,0.0,0.0,0.0,0.0,0.0,0.0,0.0,0.0,0.0,0.0,0.0,0.0,0.0,0.0,0.0,0.0,0.0,0.0,0.0,0.0,0.0,0.0,0.0,0.0,0.0,0.0,0.0,0.0,0.0,0.0,0.0,0.0,0.0,0.0,0.0,0.0,0.0,0.0,0.0,0.0,0.0,0.0,0.0,0.0,0.0,0.0,0.0,0.0,0.0,0.0,0.0,0.0,0.0,0.0,0.0,0.0,0.0,0.0,0.0,0.0,0.0,0.0,0.0,0.0,0.0,0.0,0.0,0.0,0.0,0.0,0.0,0.0,0.0,0.0,0.0,0.0,0.0,0.0,0.0,0.0,0.0,0.0,0.0,0.0,0.0,0.0,0.0,0.0,0.0,0.0,0.0,0.0,0.0,0.0,0.0,0.0,0.0,0.0,0.0,0.0,0.0,0.0,0.0,0.0,0.0,0.0,0.0,0.0,0.0,0.0,0.0,0.0,0.0,0.0,0.0,0.0,0.0,0.0,0.0,0.0,0.0,0.0,0.0,0.0,0.0,0.0,0.0,0.0,0.0,0.0,0.0,0.0,0.0,0.0,0.0,0.0,0.0,0.0,0.0,0.0,0.0,0.0,0.0,0.0,0.0,0.0,0.0,0.0,0.0,0.0,0.0,0.0,0.0,0.0,0.0,0.0,0.0,0.0,0.0,0.0,0.0,0.0,0.0,0.0,0.0,0.0,0.0,0.0,0.0,0.0,0.0,0.0,0.0,0.0,0.0,0.0,0.0,0.0,0.0,0.0,0.0,0.0,0.0,0.0,0.0,0.0,0.0,0.0,0.0,0.0,0.0,0.0,0.0,0.0,0.0,0.0,0.0,0.0,0.0,0.0,0.0,0.0,0.0,0.0,0.0,0.0,0.0,0.0,0.0,0.0,0.0,0.0,0.0,0.0,0.0,0.0,0.0,0.0,0.0,0.0,0.0,0.0,0.0,0.0,0.0,0.0,0.0,0.0,0.0,0.0,0.0,0.0,0.0,0.0,0.0,0.0,0.0,0.0,0.0,0.0,0.0,0.0,0.0,0.0,0.0,0.0,0.0,0.0,0.0,0.0,0.0,0.0,0.0,0.0,0.0,0.0,0.0,0.0,0.0,0.0,0.0,0.0,0.0,0.0,0.0,0.0,0.0,0.0,0.0,0.0,0.0,0.0,0.0,0.0,0.0,0.0,0.0,0.0,0.0,0.0,0.0,0.0,0.0,0.0,0.0,0.0,0.0,0.0,0.0,0.0,0.0,0.0,0.0,0.0,0.0,0.0,0.0,0.0,0.0,0.0,0.0,0.0,0.0,0.0,0.0,0.0,0.0,0.0,0.0,0.0,0.0,0.0,0.0,0.0,0.0,0.0,0.0,0.0,0.0,0.0,0.0,0.0,0.0,0.0,0.0,0.0,0.0,0.0,0.0,0.0,0.0,0.0,0.0,0.0,0.0,0.0,0.0,0.0,0.0,0.0,0.0,0.0,0.0,0.0,0.0,0.0,0.0,0.0,0.0,0.0,0.0,0.0,0.0,0.0,0.0,0.0,0.0,0.0,0.0,0.0,0.0,0.0,0.0,0.0,0.0,0.0,0.0,0.0,0.0,0.0,0.0,0.0,0.0,0.0,0.0,0.0,0.0,0.0,0.0,0.0,0.0,0.0,0.0,0.0,0.0,0.0,0.0,0.0,0.0,0.0,0.0,0.0,0.0,0.0,0.0,0.0,0.0,0.0,0.0,0.0,0.0,0.0,0.0,0.0,0.0,0.0,0.0,0.0,0.0,0.0,0.0,0.0,0.0,0.0,0.0,0.0,0.0,0.0,0.0,0.0,0.0,0.0,0.0,0.0,0.0,0.0,0.0,0.0,0.0,0.0,0.0,0.0,0.0,0.0,0.0,0.0,0.0,0.0,0.0,0.0,0.0,0.0,0.0,0.0,0.0,0.0,0.0,0.0,0.0,0.0,0.0,0.0,0.0,0.0,0.0,0.0,0.0,0.0,0.0,0.0,0.0,0.0,0.0,0.0,0.0,0.0,0.0,0.0,0.0,0.0,0.0,0.0,0.0,0.0,0.0,0.0,0.0,0.0,0.0,0.0,0.0,0.0,0.0,0.0,0.0,0.0,0.0,0.0,0.0,0.0,0.0,0.0,0.0,0.0,0.0,0.0,0.0,0.0,0.0,0.0,0.0,0.0,0.0,0.0,0.0,0.0,0.0,0.0,0.0,0.0,0.0,0.0,0.0,0.0,0.0,0.0,0.0,0.0,0.0,0.0,0.0,0.0,0.0,0.0,0.0,0.0,0.0,0.0,0.0,0.0,0.0,0.0,0.0,0.0,0.0,0.0,0.0,0.0,0.0,0.0,0.0,0.0,0.0,0.0,0.0,0.0,0.0,0.0,0.0,0.0,0.0,0.0,0.0,0.0,0.0,0.0,0.0,0.0,0.0,0.0,0.0,0.0,0.0,0.0,0.0,0.0,0.0,0.0,0.0,0.0,0.0,0.0,0.0,0.0,0.0,0.0,0.0,0.0,0.0,0.0,0.0,0.0,0.0,0.0,-2.4231,-2.4139,0.0,0.0,0.0,0.0,0.0,0.0,0.0,0.0,0.0,0.0,0.0,0.0,0.0,0.0,0.0,0.0,0.0,0.0,0.0,0.0,0.0,0.0,0.0,0.0,0.0,0.0,0.0,0.0,0.0,0.0,0.0,0.0,0.0,0.0,0.0,0.0,0.0,0.0,0.0,0.0,0.0,0.0,0.0,0.0,0.0,0.0,0.0,0.0,0.0,0.0,0.0,0.0,0.0,0.0,0.0,0.0,0.0,0.0,0.0,0.0,0.0,0.0,0.0,0.0,0.0,0.0,0.0,0.0,0.0,0.0,0.0,0.0,0.0,0.0,0.0,0.0,0.0,0.0,0.0,0.0,0.0,0.0,0.0,0.0,0.0,0.0,0.0,0.0,0.0,0.0,0.0,0.0,0.0,0.0,0.0,0.0,0.0,0.0,0.0,0.0,0.0,0.0,0.0,0.0,0.0,0.0,0.0,0.0,0.0,0.0,0.0,0.0,0.0,0.0,-2.5259,-2.4964,0.0,0.0,0.0,0.0,0.0,0.0,0.0,0.0,0.0,0.0,0.0,0.0,0.0,0.0,0.0,0.0,0.0,0.0,0.0,0.0,0.0,0.0,0.0,0.0,0.0,0.0,0.0,0.0,0.0,0.0,0.0,0.0,0.0,0.0,0.0,0.0,0.0,0.0,0.0,0.0,0.0,0.0,0.0,0.0,0.0,0.0,0.0,0.0,0.0,0.0,0.0,0.0,0.0,0.0,0.0,0.0,0.0,0.0,0.0,0.0,0.0,0.0,0.0,0.0,0.0,0.0,0.0,0.0,0.0,0.0,0.0,0.0,0.0,0.0,0.0,0.0,0.0,0.0,0.0,0.0,0.0,0.0,0.0,0.0,0.0,0.0,0.0,0.0,0.0,0.0,0.0,0.0,0.0,0.0,0.0,0.0,0.0,0.0,0.0,0.0,0.0,0.0,0.0,0.0,0.0,0.0,0.0,0.0,-2.673,-2.713,-2.7948,-2.807,-2.8183,-2.8197,-2.6767,-2.6344,-2.6571,-2.5994,0.0,0.0,0.0,0.0,0.0,0.0,0.0,0.0,0.0,0.0,0.0,0.0,0.0,0.0,0.0,0.0,0.0,0.0,0.0,0.0,0.0,0.0,-0.8935,-0.8846,-0.891,-0.903,0.0,0.0,0.0,0.0,0.0,0.0,0.0,0.0,0.0,0.0,0.0,0.0,-1.6301,-1.6514,-1.6893,-1.7421,-1.8417,0.0,0.0,0.0,0.0,0.0,0.0,0.0,0.0,0.0,0.0,0.0,0.0,0.0,0.0,0.0,0.0,0.0,0.0,0.0,0.0,0.0,0.0,0.0,0.0,0.0,0.0,0.0,0.0,0.0,0.0,0.0,0.0,0.0,0.0,0.0,0.0,0.0,0.0,0.0,0.0,0.0,0.0,0.0,-2.2797,-2.2959,0.0,0.0,0.0,0.0,0.0,0.0,0.0,0.0,0.0,0.0,0.0,0.0,0.0,-2.5917,-2.7371,-2.6588,-2.7024,-2.8645,-2.7273,-2.7124,-2.8066,-2.792,-2.8398,-2.9401,-2.9748,0.0,-2.757,-2.815,0.0,0.0,0.0,0.0,0.0,0.0,0.0,0.0,0.0,0.0,0.0,0.0,0.0,0.0,0.0,0.0,0.0,0.0,0.0,0.0,0.0,-0.848,-0.848,-0.8308,-0.8504,-0.8626,0.0,0.0,0.0,0.0,0.0,0.0,0.0,0.0,0.0,0.0,-1.6627,-1.7146,-1.8097,-1.7626,-1.7818,-1.8511,-1.9429,-1.9718,-1.958,-1.9928,0.0,0.0,0.0,0.0,0.0,0.0,0.0,0.0,0.0,0.0,0.0,0.0,0.0,0.0,0.0,0.0,0.0,0.0,0.0,0.0,0.0,0.0,0.0,0.0,0.0,0.0,0.0,0.0,0.0,0.0,0.0,0.0,0.0,0.0,0.0,0.0,0.0,0.0,0.0,-2.2764,-2.3045,-2.3239,-2.3476,-2.3666,0.0,0.0,0.0,0.0,0.0,0.0,0.0,0.0,0.0,-2.751,-2.6841,-2.7214,-2.8792,-2.7452,-2.7779,-2.9775,-2.881,-2.9063,-3.0394,-3.0509,-3.1016,-3.1863,-3.2047,-3.1376,-3.0134,-2.9556,-2.8558,-2.7414,0.0,0.0,0.0,0.0,-2.6628,-2.6508,0.0,0.0,0.0,0.0,0.0,0.0,0.0,0.0,0.0,0.0,0.0,0.0,-0.7799,-0.7799,-0.7765,-0.7599,-0.7848,-0.8013,-0.7915,0.0,0.0,0.0,0.0,0.0,0.0,0.0,0.0,-1.8173,-1.7707,-1.8175,-1.9449,-1.8693,-1.8726,-1.9493,-2.0063,-1.9957,-1.94,-2.0133,-2.0563,0.0,0.0,0.0,0.0,0.0,0.0,0.0,0.0,0.0,0.0,0.0,0.0,0.0,0.0,0.0,0.0,0.0,0.0,0.0,0.0,0.0,0.0,0.0,0.0,0.0,0.0,0.0,0.0,0.0,0.0,0.0,0.0,0.0,0.0,0.0,0.0,0.0,0.0,-2.3366,-2.3649,-2.3977,-2.4021,-2.4109,0.0,0.0,0.0,0.0,0.0,0.0,-2.7455,-2.8558,-2.9118,-2.9102,-2.8515,-2.8851,-3.0227,-2.8914,-2.9005,-3.0494,-3.0338,-3.0847,-3.1902,-3.252,-3.3121,-3.3691,-3.3714,-3.3296,-3.2468,-3.0809,-2.9716,-2.9001,-2.8427,-2.7586,-2.6834,-2.7749,-2.7675,-2.7227,0.0,0.0,0.0,0.0,0.0,0.0,0.0,0.0,0.0,0.0,0.0,-0.679,-0.6615,-0.6579,-0.6537,-0.6416,-0.6634,-0.6803,-0.6761,-0.655,0.0,0.0,0.0,0.0,0.0,0.0,0.0,-1.866,-1.8768,-1.9118,-1.9681,-1.9176,-1.9275,-1.9874,-1.9976,-1.9926,-1.9845,-2.0969,-2.126,-2.1007,0.0,0.0,0.0,0.0,0.0,0.0,0.0,0.0,0.0,0.0,0.0,0.0,0.0,0.0,0.0,0.0,0.0,0.0,0.0,0.0,0.0,0.0,0.0,0.0,0.0,0.0,0.0,0.0,0.0,0.0,0.0,0.0,0.0,0.0,0.0,0.0,0.0,0.0,0.0,-2.5621,-2.4852,0.0,0.0,0.0,0.0,-2.6933,-2.5431,-2.5911,-2.9193,-3.1146,-3.1972,-3.1544,-3.0941,-3.1167,-3.2234,-3.1862,-3.1366,-3.0788,-3.146,-3.1541,-3.1109,-3.2454,-3.341,-3.3999,-3.4583,-3.4469,-3.377,-3.2231,-3.0307,-2.8352,-2.8455,-2.7894,-2.7154,-2.7979,-2.8222,-2.8126,0.0,0.0,0.0,0.0,0.0,0.0,0.0,0.0,0.0,-0.5905,-0.5856,-0.5813,-0.5728,-0.5728,-0.569,-0.5647,-0.5862,-0.5947,-0.5819,-0.5513,0.0,0.0,0.0,0.0,0.0,0.0,-1.9269,-2.018,-1.9999,-2.0497,-2.1625,-2.0746,-2.0517,-2.0814,-2.1368,-2.1094,-2.0313,-2.1239,-2.1672,-2.1702,-2.1777,-2.194,0.0,0.0,0.0,0.0,0.0,0.0,0.0,0.0,0.0,0.0,0.0,0.0,0.0,0.0,0.0,0.0,0.0,0.0,0.0,0.0,0.0,0.0,0.0,0.0,0.0,0.0,0.0,0.0,0.0,0.0,0.0,0.0,0.0,0.0,0.0,0.0,0.0,-2.6329,-2.6169,0.0,-2.6079,-2.6953,-2.7904,-2.877,-2.9416,-3.0263,-3.1374,-3.2667,-3.3191,-3.2822,-3.2419,-3.2577,-3.3353,-3.2737,-3.2766,-3.3431,-3.3279,-3.3351,-3.3669,-3.4242,-3.4543,-3.4577,-3.4622,-3.4241,-3.3488,-3.2776,-3.1867,-3.0956,-3.0992,-3.0394,-2.9645,-3.0452,-3.0076,-2.9177,0.0,0.0,0.0,0.0,0.0,0.0,0.0,0.0,0.0,-0.4918,-0.4874,-0.487,-0.4822,-0.4913,-0.4961,-0.4961,-0.5178,-0.5221,-0.5009,0.0,0.0,0.0,0.0,0.0,0.0,-1.8712,-2.0337,-2.1036,-2.104,-2.1583,-2.2615,-2.1676,-2.1375,-2.1613,-2.1922,-2.187,-2.1532,-2.188,-2.2006,-2.2027,-2.2169,-2.2479,-2.276,0.0,0.0,0.0,0.0,0.0,0.0,0.0,0.0,0.0,0.0,0.0,0.0,0.0,0.0,0.0,0.0,0.0,0.0,0.0,0.0,0.0,0.0,0.0,0.0,0.0,0.0,0.0,0.0,0.0,0.0,0.0,0.0,0.0,0.0,-2.536,-2.6004,-2.7113,-2.7305,-2.7456,-2.7773,-2.8241,-2.8987,-3.0088,-3.2199,-3.3185,-3.26,-3.4053,-3.4932,-3.4978,-3.4174,-3.4093,-3.4845,-3.398,-3.3901,-3.4562,-3.4418,-3.4418,-3.458,-3.492,-3.5035,-3.4888,-3.4634,-3.4141,-3.3506,-3.3138,-3.2908,-3.2748,-3.2448,-3.1902,-3.1334,-3.1956,-3.1468,-3.0546,0.0,0.0,0.0,0.0,0.0,0.0,0.0,0.0,-0.4666,-0.4391,-0.4216,-0.4001,-0.3909,-0.4092,-0.4276,-0.4272,-0.4583,-0.467,-0.4364,-0.4184,0.0,0.0,0.0,0.0,-1.4427,-1.8643,-2.0939,-2.1159,-2.1815,-2.2264,-2.248,-2.1816,-2.1772,-2.2192,-2.1542,-2.2061,-2.3464,-2.2934,-2.2399,-2.1923,-2.2494,-2.3103,-2.3557,0.0,0.0,0.0,0.0,0.0,0.0,0.0,0.0,0.0,0.0,0.0,0.0,0.0,0.0,0.0,0.0,0.0,0.0,0.0,0.0,0.0,0.0,0.0,0.0,0.0,0.0,0.0,0.0,0.0,0.0,0.0,0.0,0.0,-2.5031,-2.6082,-2.7173,-2.8067,-2.8238,-2.8651,-2.9588,-2.9812,-3.0205,-3.0979,-3.345,-3.4338,-3.2919,-3.5419,-3.7255,-3.8004,-3.6222,-3.5699,-3.6661,-3.5726,-3.4805,-3.3961,-3.4805,-3.4632,-3.3601,-3.4356,-3.4774,-3.4888,-3.4615,-3.4301,-3.3941,-3.3446,-3.3346,-3.3431,-3.2561,-3.2123,-3.204,-3.2259,-3.224,-3.2217,0.0,0.0,0.0,0.0,0.0,0.0,0.0,0.0,-0.4192,-0.3917,-0.3653,-0.3435,-0.3388,-0.348,-0.3435,-0.3306,-0.3744,-0.3877,-0.3568,0.0,0.0,0.0,0.0,0.0,-1.6333,-1.9735,-2.1792,-2.248,-2.2818,-2.2779,-2.2429,-2.1978,-2.2111,-2.2632,-2.2341,-2.2648,-2.3342,-2.3342,-2.3244,-2.3129,-2.3555,-2.3998,-2.4381,0.0,0.0,0.0,0.0,0.0,0.0,0.0,0.0,0.0,0.0,0.0,0.0,0.0,0.0,0.0,0.0,0.0,0.0,0.0,0.0,0.0,0.0,0.0,0.0,0.0,0.0,0.0,0.0,0.0,0.0,0.0,-2.4787,-2.5302,-2.599,-2.6927,-2.8128,-2.9802,-3.0053,-3.043,-3.133,-3.2029,-3.2806,-3.3715,-3.5021,-3.5894,-3.6235,-3.652,-3.6562,-3.6291,-3.633,-3.6194,-3.5834,-3.6138,-3.5859,-3.5067,-3.5302,-3.522,-3.4875,-3.4902,-3.4832,-3.4675,-3.4551,-3.4244,-3.3873,-3.4008,-3.3962,-3.3727,-3.2985,-3.2691,-3.2668,-3.2814,-3.2547,-3.2123,0.0,0.0,0.0,0.0,0.0,0.0,0.0,0.0,-0.3836,-0.3615,-0.3347,-0.317,-0.3126,-0.3214,-0.3217,-0.304,-0.3435,-0.3612,-0.3398,0.0,0.0,0.0,0.0,-0.9959,-1.3921,-1.7325,-1.9469,-2.0304,-2.1421,-2.2122,-2.2442,-2.2209,-2.2374,-2.2833,-2.2733,-2.2983,-2.3519,-2.341,-2.3927,-2.4697,-2.4424,-2.463,-2.5088,-2.4812,-2.488,-2.5088,-2.4781,-2.4632,-2.4564,-2.4092,0.0,0.0,0.0,0.0,0.0,0.0,0.0,0.0,0.0,0.0,0.0,0.0,0.0,0.0,0.0,0.0,0.0,0.0,0.0,0.0,0.0,0.0,0.0,0.0,-2.6036,-2.6714,-2.7585,-2.8146,-2.9159,-3.1059,-3.1329,-3.1706,-3.257,-3.3481,-3.4221,-3.4733,-3.625,-3.7315,-3.7697,-3.7527,-3.7373,-3.7319,-3.7135,-3.6782,-3.6255,-3.6473,-3.6159,-3.532,-3.532,-3.543,-3.5566,-3.542,-3.5245,-3.5058,-3.5055,-3.478,-3.4367,-3.4363,-3.4221,-3.3993,0.0,0.0,0.0,0.0,-3.3484,-3.3156,0.0,0.0,0.0,0.0,0.0,0.0,0.0,0.0,-0.3663,-0.3462,-0.3328,-0.3197,-0.3119,-0.3308,-0.3347,-0.3194,-0.3503,-0.3684,0.0,0.0,0.0,-0.3782,-0.5875,-0.7844,-0.9626,-1.325,-1.5637,-1.6608,-1.8793,-2.0671,-2.215,-2.2198,-2.2463,-2.287,-2.2828,-2.3189,-2.3786,-2.3354,-2.4306,-2.6078,-2.5073,-2.5115,-2.5761,-2.5079,-2.5215,-2.5707,-2.5125,-2.4917,-2.49,-2.4815,0.0,0.0,0.0,0.0,0.0,0.0,0.0,0.0,0.0,0.0,0.0,0.0,0.0,0.0,0.0,0.0,0.0,0.0,0.0,0.0,0.0,0.0,0.0,0.0,-2.7569,-2.8606,-2.9667,-2.982,-3.0424,-3.2021,-3.2154,-3.2475,-3.3456,-3.4356,-3.4866,-3.4886,-3.709,-3.8323,-3.8075,-3.8335,0.0,0.0,0.0,-3.7468,-3.7296,-3.6767,-3.606,-3.5204,-3.5204,-3.5363,-3.5706,-3.5854,-3.5791,-3.5556,-3.5728,-3.5466,-3.4908,-3.4476,-3.4301,-3.4303,-3.4282,-3.4269,-3.4245,-3.4473,-3.4539,-3.4561,0.0,0.0,0.0,0.0,0.0,0.0,0.0,0.0,-0.3839,-0.3734,-0.3615,-0.3567,-0.3623,-0.3642,-0.3501,-0.3152,-0.3429,-0.3711,0.0,0.0,-0.4226,-0.4315,-0.4944,-0.6778,-1.0018,-1.2298,-1.4551,-1.6761,-1.7929,-1.9031,-2.0116,-2.0847,-2.1705,-2.2571,-2.2728,-2.3147,-2.3781,-2.3586,-2.4237,-2.5397,-2.5188,-2.571,-2.65,-2.5865,-2.5911,-2.6319,-2.6202,-2.6152,-2.6068,-2.5511,-2.5374,-2.5319,-2.4788,0.0,0.0,0.0,0.0,0.0,0.0,0.0,0.0,0.0,0.0,0.0,0.0,0.0,0.0,0.0,0.0,0.0,0.0,0.0,0.0,-2.8261,-2.8889,-2.9848,-3.2073,-3.2374,-3.253,-3.2951,-3.2456,-3.2705,-3.4226,-3.4532,-3.519,-3.6521,-3.7061,-3.784,-3.9056,-3.8675,-3.838,-3.826,-3.8321,-3.8017,-3.7312,-3.7124,-3.6631,-3.5835,-3.5776,0.0,-3.5116,-3.6316,-3.6076,-3.4771,-3.5484,-3.5091,-3.3979,-3.4221,-3.4587,-3.4921,-3.3954,-3.3671,-3.3842,-3.4049,-3.4221,-3.4363,0.0,0.0,0.0,0.0,0.0,0.0,0.0,0.0,-0.3776,-0.3722,-0.3644,-0.3579,-0.3601,-0.35,-0.3364,-0.3178,-0.3413,0.0,0.0,-0.4204,-0.4466,-0.4883,-0.4955,-0.6042,-0.836,-1.0019,-1.1935,-1.421,-1.561,-1.737,-1.9391,-2.0026,-2.1063,-2.2411,-2.244,-2.2732,-2.3143,-2.3009,-2.3655,-2.4786,-2.443,-2.5213,-2.6557,-2.619,-2.6243,-2.6508,-2.641,-2.6399,-2.6469,-2.6118,-2.6017,-2.5983,-2.5696,-2.5404,-2.504,0.0,0.0,0.0,0.0,0.0,0.0,0.0,0.0,0.0,0.0,0.0,0.0,0.0,0.0,-2.6359,-2.698,0.0,-2.8305,-3.0097,-3.0506,-3.1129,-3.2813,-3.2724,-3.2847,-3.3739,-3.3543,-3.3642,-3.4508,-3.533,-3.5964,-3.6358,-3.7504,-3.8353,-3.8737,-3.8777,-3.8702,-3.8573,-3.8713,-3.8402,-3.7547,-3.7582,-3.6967,-3.5762,-3.5721,-3.5518,-3.5168,-3.5923,-3.5754,-3.4918,-3.5487,-3.5086,-3.3947,-3.3998,-3.416,-3.4385,-3.3684,-3.3832,-3.4412,-3.412,-3.4074,-3.4148,0.0,0.0,0.0,0.0,0.0,0.0,0.0,0.0,0.0,-0.3526,-0.3484,-0.3452,-0.3388,-0.3287,-0.3253,0.0,0.0,0.0,0.0,-0.4248,-0.4657,-0.5322,-0.5309,-0.5651,-0.646,-0.7723,-0.93,-1.1151,-1.3148,-1.566,-1.8643,-1.9266,-2.0407,-2.1927,-2.1941,-2.2152,-2.2498,-2.2419,-2.3186,-2.4368,-2.3879,-2.4731,-2.6214,-2.6006,-2.6116,-2.6341,-2.6129,-2.6026,-2.6007,-2.6243,-2.6229,-2.6215,-2.6504,-2.6236,-2.5627,-2.4842,-2.4692,0.0,0.0,0.0,0.0,0.0,0.0,0.0,0.0,-2.5805,-2.6136,-2.6863,-2.7583,-2.8286,-2.9015,-2.9844,-3.0715,-3.169,-3.1955,-3.2302,-3.312,-3.272,-3.2881,-3.4282,-3.4364,-3.4349,-3.4561,-3.5885,-3.6536,-3.5993,-3.7922,-3.888,-3.8338,-3.8856,-3.9183,-3.9156,-3.8897,-3.8442,-3.7794,-3.7559,-3.6775,-3.5442,-3.5423,-3.5312,-3.5157,-3.546,-3.5416,-3.5062,-3.5027,-3.4599,-3.3808,-3.3469,-3.3623,-3.4014,-3.3683,-3.4291,-3.5349,-3.4457,-3.4089,-3.4044,0.0,0.0,0.0,0.0,0.0,0.0,0.0,0.0,0.0,-0.319,-0.3158,-0.3203,-0.3314,-0.3314,0.0,0.0,0.0,0.0,-0.4262,-0.4652,-0.5115,-0.5575,-0.5769,-0.5946,-0.6055,-0.6858,-0.8053,-0.9555,-1.1701,-1.3962,-1.631,-1.8191,-1.9626,-2.062,-2.1064,-2.173,-2.2495,-2.2594,-2.3349,-2.4484,-2.4651,-2.5135,-2.568,-2.5005,-2.5107,-2.5623,-2.5587,-2.4878,-2.4163,-2.5255,-2.5297,-2.5083,-2.6164,-2.6487,-2.6253,-2.4901,-2.4588,-2.4475,-2.3767,-2.4372,-2.5404,-2.6321,-2.6695,-2.7441,0.0,-2.9745,-2.9315,-2.9551,-2.9667,-2.9807,-3.002,-3.0254,-3.09,-3.241,-3.2789,-3.3138,-3.3956,-3.3974,-3.4041,-3.4298,-3.3811,-3.3727,-3.4442,-3.5319,-3.6143,-3.6817,-3.7667,-3.8428,-3.9043,-3.91,-3.9073,-3.9007,-3.8303,-3.7868,-3.771,-3.6242,-3.543,-3.5219,-3.5101,-3.4768,-3.4309,-3.5718,-3.5562,-3.409,-3.3111,-3.263,-3.2502,-3.2231,-3.3376,-3.5199,-3.4267,-3.4878,-3.6107,-3.4963,-3.4413,-3.4286,0.0,0.0,0.0,0.0,0.0,0.0,0.0,0.0,0.0,0.0,0.0,-0.3044,-0.277,0.0,0.0,0.0,0.0,0.0,-0.4341,-0.4614,-0.5077,-0.5823,-0.6,-0.6426,-0.7074,-0.7616,-0.8402,-0.9577,-1.149,-1.3336,-1.5112,-1.682,-1.8398,-1.9747,-2.0269,-2.0978,-2.1836,-2.2115,-2.2844,-2.3904,-2.4365,-2.4668,-2.4778,-2.4775,-2.4198,-2.3451,-2.3861,-2.3752,0.0,0.0,-2.3649,-2.3619,-2.4332,-2.4656,-2.4646,-2.3844,-2.4365,-2.5176,-2.5111,-2.5772,-2.6504,-2.663,-2.7434,-2.8553,-2.9789,-2.9881,-2.9872,-3.0511,-3.1045,-3.1425,-3.1528,-3.2022,-3.2656,-3.3389,-3.3574,-3.3759,-3.416,-3.4197,-3.4221,-3.4245,-3.4484,-3.4797,-3.5161,-3.6739,-3.7891,-3.8264,-3.8987,-3.9519,-3.9779,-3.886,-3.8313,-3.8266,-3.7433,-3.698,-3.6952,-3.6205,-3.556,-3.5018,-3.4962,-3.455,-3.3825,-3.4513,-3.4403,-3.3662,-3.2581,-3.2141,-3.2058,-3.1415,-3.1739,-3.2688,-3.3166,-3.3425,-3.3606,-3.4082,-3.4203,-3.4049,0.0,0.0,0.0,0.0,0.0,0.0,0.0,0.0,0.0,0.0,0.0,0.0,0.0,0.0,0.0,0.0,0.0,0.0,0.0,-0.454,-0.4998,-0.59,-0.607,-0.663,-0.761,-0.7996,-0.8626,-0.9503,-1.117,-1.2707,-1.4294,-1.5612,-1.7059,-1.8602,-1.9022,-1.9782,-2.0757,-2.1415,-2.2368,-2.3406,-2.3981,-2.4262,-2.4292,-2.4307,-2.327,-2.1911,-2.2469,-2.2458,0.0,0.0,-2.2167,-2.217,-2.2758,-2.3138,-2.3266,-2.3144,-2.4158,-2.5334,-2.549,-2.6427,-2.7282,-2.6935,-2.8463,-3.0057,-3.0036,-3.0646,-3.1366,-3.1908,-3.2546,-3.3058,-3.3131,-3.3542,-3.3895,-3.3947,-3.4023,-3.4099,-3.4148,-3.4173,-3.4266,-3.4488,-3.5157,-3.5764,-3.6261,-3.8055,-3.921,-3.921,-3.9909,-4.0306,-4.023,-3.8645,-3.7748,-3.7663,-3.685,-3.626,-3.5993,-3.5936,-3.5457,-3.453,-3.453,-3.4209,-3.3577,-3.3491,-3.3306,-3.2954,-3.2247,-3.1781,-3.153,-3.0808,-3.0659,-3.0945,-3.2022,-3.2282,-3.2166,-3.3186,-3.3557,-3.3504,0.0,0.0,0.0,0.0,0.0,0.0,0.0,0.0,0.0,0.0,0.0,0.0,0.0,0.0,0.0,0.0,0.0,0.0,0.0,-0.4641,-0.4992,-0.5681,-0.5958,-0.6373,-0.6928,-0.7306,-0.7937,-0.883,-1.0331,-1.1933,-1.3629,-1.4535,-1.5736,-1.7056,-1.7191,-1.7978,-1.9281,-2.073,-2.2046,-2.3266,-2.3855,-2.4341,-2.452,-2.3041,-2.2181,-2.1754,-2.2034,0.0,0.0,-2.0834,-2.1039,-2.0926,-2.1985,-2.2551,0.0,-2.3264,-2.3918,-2.4461,-2.4145,-2.5654,-2.7355,-2.7607,-3.0047,-3.2256,-3.1738,-3.3548,-3.5112,-3.4434,-3.448,-3.4666,-3.4707,-3.421,-3.3788,-3.3807,-3.3921,-3.3998,-3.3998,-3.4074,-3.4414,-3.5273,-3.5454,-3.6136,-3.7671,-3.8654,-3.921,-3.921,-3.9834,-4.0211,-4.0182,-3.8607,-3.7681,-3.7595,-3.6822,-3.5937,-3.4971,-3.4952,-3.4493,-3.3642,-3.3642,-3.3595,-3.3491,-3.3238,-3.2611,-3.176,-3.1711,-3.1278,-3.0547,-3.0384,-3.0765,-3.1469,-3.1311,-3.2159,-3.3371,-3.2669,-3.2458,-3.2529,0.0,0.0,0.0,0.0,0.0,0.0,0.0,0.0,0.0,0.0,0.0,0.0,0.0,0.0,0.0,0.0,0.0,0.0,0.0,-0.4256,-0.4738,-0.5616,-0.5902,-0.6425,-0.73,-0.7515,-0.7937,-0.8521,-0.9977,-1.1178,-1.2197,-1.3375,-1.4655,-1.596,-1.6727,-1.7674,-1.8708,-1.998,-2.1043,-2.1885,-2.2008,-2.214,-2.2186,-2.12,-2.0256,-1.9481,0.0,0.0,-1.8976,-1.915,-1.9177,-1.9214,-1.9801,-2.0176,-2.0749,-2.2321,-2.3799,-2.4873,-2.4711,-2.6,-2.7386,-2.7397,-2.9045,-3.0937,-3.2009,-3.3277,-3.423,-3.4145,-3.3489,-3.2773,-3.2306,-3.2165,-3.2166,-3.2199,-3.3195,-3.3947,-3.3998,-3.4522,-3.5003,-3.5299,-3.6305,-3.7183,-3.772,-3.8053,-3.8498,-3.9036,-3.8748,-3.8514,-3.8493,-3.6934,-3.5975,-3.5797,-3.5027,-3.4421,-3.4045,-3.4045,-3.386,-3.352,-3.3357,-3.3268,-3.3208,-3.3073,-3.2787,-3.2474,-3.1831,-3.1408,-3.1071,-2.9814,-2.947,-2.9751,-3.0114,-3.0258,-3.0346,-3.1149,-3.1131,-3.08,0.0,0.0,0.0,0.0,0.0,0.0,0.0,0.0,0.0,0.0,0.0,0.0,0.0,0.0,0.0,0.0,0.0,0.0,0.0,0.0,-0.4479,-0.5263,-0.5549,-0.6098,-0.695,-0.7304,-0.7623,-0.7949,-0.9391,-1.0524,-1.1241,-1.2225,-1.3423,-1.4818,-1.5355,-1.6156,-1.7236,-1.8628,-1.9575,-2.0094,-2.0279,-2.0349,-2.0217,-1.9479,-1.8855,0.0,0.0,0.0,-1.816,-1.7936,-1.7962,-1.8108,-1.8344,-1.9055,-2.0147,-2.1786,-2.3305,-2.4585,-2.5013,-2.5889,-2.6789,-2.7097,-2.839,-2.9882,-3.1029,-3.2319,-3.3354,-3.3452,-3.2844,-3.2158,-3.1685,-3.1347,-3.1071,-3.083,-3.1756,-3.2732,-3.3416,-3.3736,-3.4463,-3.5938,-3.6537,-3.7193,-3.8061,-3.735,-3.7433,-3.8868,-3.8422,-3.7929,-3.7566,-3.5974,-3.5165,-3.5279,-3.4804,-3.4345,-3.3985,-3.4287,-3.4055,-3.3345,-3.3117,-3.2993,-3.293,-3.2834,-3.2737,-3.2621,-3.1994,-3.1432,-3.0818,-2.9624,-2.8827,-2.8373,-2.8798,-2.8992,-2.9149,-3.0176,-3.0576,-3.068,0.0,0.0,0.0,0.0,0.0,0.0,0.0,0.0,0.0,0.0,0.0,0.0,0.0,0.0,0.0,0.0,0.0,0.0,0.0,0.0,0.0,-0.4764,-0.4996,-0.5381,-0.599,-0.6691,-0.7078,-0.7161,-0.867,-0.9953,-1.0902,-1.101,-1.203,-1.364,-1.3218,-1.3716,-1.5023,-1.6827,-1.7698,-1.7985,-1.8802,-1.8915,-1.8646,-1.7967,0.0,0.0,0.0,0.0,-1.7205,-1.7183,-1.7419,-1.7733,-1.7746,-1.9238,-2.109,-2.1657,-2.2581,-2.3668,-2.491,-2.5336,-2.5697,-2.6618,-2.8042,-2.921,-2.9149,-3.0962,-3.2656,-3.2475,-3.2568,-3.266,-3.2652,-3.1649,-3.0577,-2.9818,-2.9958,-3.075,-3.2418,-3.2019,-3.3051,-3.7061,-3.6233,-3.6261,-3.8586,-3.6611,-3.6141,-3.8512,-3.8601,-3.8173,-3.7342,-3.5732,-3.5151,-3.5848,-3.5866,-3.549,-3.4624,-3.5381,-3.486,-3.3086,-3.2948,-3.277,-3.2606,-3.2573,-3.2438,-3.2179,-3.2179,-3.1307,-2.9863,-2.981,-2.8923,-2.7548,-2.7513,-2.8436,-2.976,-2.9725,-3.0715,-3.1916,0.0,0.0,0.0,0.0,0.0,0.0,0.0,0.0,0.0,0.0,0.0,0.0,0.0,0.0,0.0,0.0,0.0,0.0,0.0,0.0,0.0,0.0,0.0,0.0,0.0,0.0,0.0,0.0,-0.8273,-0.9291,-1.0704,-1.0811,-1.1615,-1.2877,-1.3018,-1.3663,-1.4754,-1.5679,-1.6246,-1.65,0.0,-1.6869,-1.7206,0.0,0.0,0.0,0.0,0.0,-1.5916,-1.661,-1.7329,-1.8096,-1.8531,-1.9634,-2.0893,-2.1611,-2.2735,-2.3822,-2.4036,-2.4744,-2.5469,-2.5657,-2.6525,-2.7656,-2.8882,-3.0437,-3.1585,-3.1531,-3.1098,-3.0378,-2.9306,-2.9558,-2.9891,-2.9728,-3.1383,-3.2839,-3.3268,-3.3679,-3.4576,-3.6282,-3.6146,-3.6384,-3.7661,-3.6622,-3.586,-3.5849,-3.5329,-3.4907,-3.4687,-3.4201,-3.3988,-3.412,-3.4138,-3.4018,-3.3731,-3.3792,-3.3512,-3.2948,-3.277,-3.2606,-3.2523,-3.2387,-3.2249,-3.2108,-3.2108,-3.1551,-3.0559,-2.9952,-2.9121,-2.8184,-2.7584,-2.8261,-2.9523,-2.8969,-2.9713,-3.1009,0.0,0.0,0.0,0.0,0.0,0.0,0.0,0.0,0.0,0.0,0.0,0.0,0.0,0.0,0.0,0.0,0.0,0.0,0.0,0.0,0.0,0.0,0.0,0.0,0.0,0.0,0.0,0.0,0.0,0.0,-0.9653,-1.0032,-1.0773,-1.1681,-1.2235,-1.279,-1.3428,-1.4571,0.0,0.0,0.0,0.0,0.0,0.0,0.0,0.0,0.0,0.0,0.0,0.0,-1.6884,-1.7869,-1.8561,-1.9453,-2.0422,-2.1397,-2.2314,-2.3073,-2.3568,-2.4044,-2.4405,-2.4549,-2.4954,-2.5607,-2.6574,-2.7879,-2.8953,-2.9231,-2.9104,-2.8766,-2.8166,-2.8382,-2.861,-2.8499,-2.984,-3.1296,-3.2379,-3.2613,-3.3491,-3.5587,-3.5527,-3.5806,-3.7064,-3.6314,-3.5535,-3.5002,-3.4483,-3.4026,-3.3633,-3.3502,-3.3549,-3.3834,-3.3792,-3.3767,-3.3705,-3.3172,-3.2834,-3.2722,-3.2506,-3.237,-3.2318,-3.2214,-3.1934,-3.1533,-3.1533,-3.0872,-2.978,-2.9314,-2.8882,-2.8399,-2.7969,-2.8696,-2.9972,-2.9489,-3.0074,-3.1089,0.0,0.0,0.0,0.0,0.0,0.0,0.0,0.0,0.0,0.0,0.0,0.0,0.0,0.0,0.0,0.0,0.0,0.0,0.0,0.0,0.0,0.0,0.0,0.0,0.0,0.0,0.0,0.0,0.0,0.0,0.0,0.0,0.0,0.0,0.0,0.0,0.0,0.0,0.0,0.0,0.0,0.0,0.0,0.0,0.0,0.0,0.0,0.0,0.0,0.0,-1.6332,-1.7525,-1.8362,-1.9056,-1.9783,-2.1106,-2.1518,-2.1856,-2.307,-2.3233,-2.3098,-2.354,-2.3713,-2.3773,-2.3849,-2.4901,-2.6045,-2.6515,-2.7068,-2.7607,-2.7956,-2.7607,-2.7258,-2.7192,-2.7518,-2.8617,-3.1105,-3.0753,-3.1582,-3.5119,-3.4699,-3.4803,-3.6608,-3.5743,-3.5002,-3.4918,-3.4597,-3.4167,-3.3499,-3.3268,-3.3435,-3.4105,-3.3999,-3.3901,-3.3886,-3.3009,-3.2504,-3.2315,-3.2092,-3.1987,-3.1933,-3.1933,-3.1585,-3.0941,-3.0941,-3.0007,-2.8507,-2.8507,-2.8404,-2.8215,-2.8318,-2.9248,-3.0505,-3.0484,-3.0945,-3.1596,0.0,0.0,0.0,0.0,0.0,0.0,0.0,0.0,0.0,0.0,-0.3001,-0.2957,0.0,0.0,0.0,0.0,0.0,0.0,0.0,0.0,0.0,0.0,0.0,0.0,0.0,0.0,0.0,0.0,0.0,0.0,0.0,0.0,0.0,0.0,0.0,0.0,0.0,0.0,0.0,0.0,0.0,0.0,0.0,0.0,0.0,0.0,0.0,0.0,0.0,0.0,-1.6032,-1.7822,-1.8896,-1.9229,-1.9459,-2.0924,-2.0991,-2.0769,-2.1712,-2.2287,-2.2778,-2.3618,-2.3748,-2.3816,-2.4442,-2.5288,-2.5715,-2.5195,-2.6057,-2.6792,-2.6266,-2.64,-2.7012,-2.8424,-2.8938,-2.9987,-3.2421,-3.2161,-3.2704,-3.535,-3.4133,-3.389,-3.5951,-3.4733,-3.3687,-3.3406,-3.2811,-3.2697,-3.3232,-3.3055,-3.3001,-3.3144,-3.3112,-3.2983,-3.2769,-3.2594,-3.2053,-3.1201,-3.1115,-3.1098,-3.1028,-3.1028,-3.1271,-3.1629,-3.1629,-3.0731,-2.9214,-2.9214,-2.8459,-2.7296,-2.7912,-2.8682,-2.9537,-3.0167,-3.0868,-3.1517,0.0,0.0,0.0,0.0,0.0,0.0,0.0,-0.2947,-0.2912,-0.2912,-0.2912,-0.2912,-0.2912,-0.2912,0.0,0.0,0.0,0.0,0.0,0.0,0.0,0.0,0.0,0.0,0.0,0.0,-0.4567,-0.5079,0.0,-0.6214,-0.7069,-0.7597,-0.7946,-0.8187,0.0,0.0,0.0,0.0,0.0,0.0,0.0,0.0,0.0,0.0,0.0,0.0,0.0,0.0,0.0,0.0,-1.4576,-1.6059,-1.7743,-1.8436,-1.8826,-1.9523,-1.9781,-1.994,-2.0706,-2.1369,-2.2038,-2.2833,-2.3031,-2.301,-2.2847,-2.3709,-2.438,-2.3774,-2.4688,-2.5536,-2.5513,-2.5681,-2.6244,-2.7587,-2.8012,-2.8943,-3.1124,-3.1168,-3.1489,-3.2895,-3.2598,-3.2938,-3.4497,-3.3929,-3.2979,-3.1823,-3.1301,-3.1625,-3.2983,-3.2866,-3.2722,-3.2641,-3.2557,-3.2296,-3.1774,-3.1705,-3.1218,-3.0299,-3.0299,-3.0387,-3.0644,-3.0644,-3.0556,-3.045,-3.045,-2.9556,-2.8151,-2.8151,-2.7912,-2.7622,-2.7964,-2.8818,-2.986,-3.0162,-3.0776,-3.1406,0.0,0.0,0.0,0.0,0.0,0.0,0.0,-0.2898,-0.2912,-0.2912,-0.2868,-0.2821,-0.2821,-0.2868,-0.2912,0.0,0.0,0.0,0.0,0.0,0.0,0.0,0.0,0.0,0.0,0.0,0.0,-0.4224,-0.4914,0.0,0.0,0.0,0.0,0.0,-0.8201,-0.8806,-0.9042,0.0,0.0,0.0,0.0,-1.2044,0.0,0.0,0.0,0.0,0.0,0.0,0.0,0.0,-1.3065,-1.3941,-1.5613,-1.6832,-1.7679,-1.7901,-1.8317,-1.8891,-1.971,-2.0294,-2.0881,-2.1623,-2.1988,-2.1974,-2.1068,-2.2033,-2.2995,-2.2453,-2.3277,-2.4284,-2.4866,-2.4883,-2.5192,-2.6333,-2.6545,-2.7383,-2.9638,-2.98,-3.0049,-3.0999,-3.1495,-3.1812,-3.1947,-3.2535,-3.2117,-3.0138,-3.0025,-3.0698,-3.2168,-3.2269,-3.2209,-3.2091,-3.2144,-3.1812,-3.1027,-3.0924,-3.0386,-2.9401,-2.9523,-2.9799,-3.0225,-3.0225,-2.9949,-2.9467,-2.9467,-2.8698,-2.7452,-2.7452,-2.7691,-2.8049,-2.8049,-2.8867,-3.0131,-3.0156,-3.0645,-3.1274,0.0,0.0,0.0,0.0,0.0,0.0,0.0,-0.2807,-0.2912,-0.2912,-0.2687,-0.2551,-0.2551,-0.2776,-0.2912,0.0,0.0,0.0,0.0,0.0,0.0,0.0,0.0,0.0,0.0,0.0,0.0,-0.4174,-0.4682,0.0,0.0,0.0,0.0,0.0,0.0,-0.768,-0.8347,-0.9141,0.0,0.0,0.0,0.0,0.0,0.0,0.0,0.0,0.0,0.0,0.0,0.0,0.0,-1.2654,-1.2724,-1.3995,-1.5663,-1.6641,-1.6957,-1.7169,-1.8359,-1.8867,-1.9248,-2.0306,-2.0899,-2.1084,-2.0553,-2.1538,-2.2304,-2.1364,-2.2263,-2.3304,-2.367,-2.3523,-2.386,-2.5534,-2.556,-2.6462,-2.9639,-2.9436,-2.9928,-3.2473,-3.1888,-3.0208,-2.7552,-2.9795,-3.0472,-2.8122,-2.9181,-2.9974,-3.0164,-3.0865,-3.1183,-3.1028,-3.1725,-3.1707,-3.0838,-3.0733,-2.9955,-2.8457,-2.8956,-2.928,-2.9313,-2.9313,-2.9655,-3.0307,-3.0307,-2.9756,-2.89,-2.89,-2.8472,-2.7824,-2.7824,-2.8367,-2.9197,-2.9854,-3.0565,-3.119,0.0,0.0,0.0,0.0,0.0,0.0,-0.1851,-0.2157,-0.2281,-0.215,-0.2328,-0.2417,-0.2286,-0.2194,-0.2284,0.0,0.0,0.0,0.0,0.0,0.0,0.0,0.0,0.0,0.0,0.0,-0.3896,-0.3955,-0.4609,0.0,0.0,0.0,0.0,0.0,0.0,-0.6905,-0.7695,-0.84,0.0,0.0,0.0,0.0,0.0,0.0,0.0,0.0,0.0,0.0,-1.0691,-1.0673,-1.0959,0.0,-1.1239,-1.201,0.0,-1.4191,-1.5109,-1.5877,-1.6504,-1.7182,-1.7868,-1.8551,-1.9056,-1.9355,-1.9346,-2.0515,-2.1513,-2.1182,-2.2045,-2.2934,-2.3246,-2.3342,-2.3724,-2.4694,-2.4842,0.0,-2.7517,-2.7672,-2.8073,-2.9359,-2.9597,-2.8892,-2.6783,-2.7572,-2.8008,-2.7624,-2.7917,-2.8157,-2.8387,-2.9617,-3.0262,-3.0161,-3.0387,-3.0128,-2.9299,-2.9197,-2.8596,-2.7535,-2.7742,-2.8322,-2.9138,-2.9138,-2.9291,-2.9561,-2.9561,-2.8829,-2.7657,-2.7657,-2.7436,-2.7148,-2.7096,-2.7533,-2.8311,-2.8996,-2.9698,-3.0404,0.0,0.0,0.0,0.0,0.0,-0.1119,-0.1119,-0.1456,-0.1655,-0.1478,-0.1744,-0.188,-0.1703,-0.1478,-0.1521,-0.1923,-0.2328,0.0,0.0,0.0,0.0,0.0,0.0,0.0,0.0,0.0,-0.3775,-0.3813,-0.4478,-0.4798,0.0,0.0,-0.5513,-0.5686,0.0,0.0,0.0,0.0,0.0,0.0,0.0,0.0,0.0,0.0,0.0,0.0,0.0,0.0,0.0,0.0,0.0,0.0,0.0,0.0,0.0,0.0,-1.3405,-1.4431,-1.475,-1.5444,-1.6103,-1.6582,-1.7067,-1.7566,-1.805,-1.9311,-2.0487,-2.0854,-2.1661,-2.2434,-2.2768,-2.3157,-2.3551,0.0,0.0,-2.4889,-2.5957,-2.6126,-2.6387,-2.7022,-2.767,-2.7664,-2.6656,-2.6352,-2.6336,-2.6738,-2.6773,-2.6889,-2.7201,-2.8247,-2.9004,-2.9263,-2.9403,-2.9076,-2.8236,-2.8118,-2.7708,-2.6992,-2.7163,-2.776,-2.8691,-2.8691,-2.8672,-2.86,-2.86,-2.7956,-2.6978,-2.6978,-2.6978,-2.6944,-2.6656,-2.7026,-2.7748,-2.8448,-2.9013,-2.9599,0.0,0.0,0.0,0.0,0.0,0.0,-0.0716,-0.094,-0.1119,-0.1119,-0.0895,-0.0716,-0.0716,-0.0716,-0.0716,-0.0716,-0.1344,0.0,0.0,0.0,0.0,0.0,0.0,0.0,0.0,0.0,-0.3681,-0.3813,-0.4268,-0.4588,-0.4691,-0.4963,-0.5183,-0.5301,0.0,0.0,0.0,0.0,0.0,0.0,0.0,0.0,0.0,0.0,0.0,0.0,0.0,0.0,0.0,0.0,0.0,0.0,0.0,0.0,0.0,0.0,-1.2089,-1.2657,-1.3277,-1.3558,-1.3821,-1.4437,-1.5189,-1.5936,-1.6747,-1.7952,-1.9177,-2.0114,-2.0894,-2.1568,-2.2137,-2.2723,-2.3127,-2.3275,-2.3882,0.0,-2.5561,-2.5211,-2.5305,-2.6638,-2.6655,-2.6564,-2.6693,-2.6414,-2.5879,-2.5114,-2.5947,-2.6539,-2.6691,-2.664,-2.7148,-2.8303,-2.9025,-2.8973,-2.8118,-2.8049,-2.7624,-2.691,-2.7504,-2.7824,-2.7806,-2.7735,-2.77,-2.77,-2.7645,-2.7609,-2.7593,-2.7593,-2.7593,-2.7526,-2.6805,-2.6956,-2.7693,-2.8448,-2.8716,-2.8934,0.0,0.0,0.0,0.0,0.0,0.0,0.0,0.0313,-0.0,-0.0,-0.0313,-0.0582,-0.0805,-0.0626,-0.0403,-0.0224,-0.1119,0.0,0.0,0.0,0.0,0.0,0.0,0.0,0.0,0.0,-0.3343,-0.3531,-0.4019,-0.4321,-0.4374,-0.479,-0.5055,-0.5173,-0.5625,-0.59,0.0,0.0,0.0,0.0,0.0,0.0,0.0,0.0,0.0,0.0,0.0,0.0,0.0,0.0,0.0,0.0,0.0,0.0,0.0,0.0,0.0,-1.1239,-1.1564,-1.1826,-1.2219,-1.2776,-1.3511,-1.445,-1.5686,-1.7194,-1.8667,-1.9722,-2.0739,-2.1471,-2.1616,-2.2296,-2.2844,-2.2889,-2.3465,-2.407,-2.4368,-2.5201,-2.5823,-2.5902,-2.6264,-2.6082,-2.4946,-2.5425,-2.5518,-2.4855,-2.5209,-2.5678,-2.6193,-2.6218,-2.6563,-2.7382,-2.7605,-2.7521,-2.7165,-2.7131,-2.7012,-2.6759,-2.6894,-2.7247,-2.7719,-2.7664,-2.7629,-2.7629,-2.7593,-2.7308,-2.6872,-2.6872,-2.6872,-2.6803,-2.6482,-2.6516,-2.6816,-2.7494,-2.7724,-2.7873,0.0,0.0,0.0,0.0,0.0,0.0,0.0,0.1385,0.1072,0.1072,0.0847,0.0491,0.0,0.0268,0.0491,0.0403,-0.0313,0.0,0.0,0.0,0.0,0.0,0.0,0.0,0.0,-0.2799,-0.3135,-0.3372,-0.3797,-0.4017,-0.4125,-0.447,-0.4757,-0.4984,-0.5362,-0.5666,0.0,0.0,0.0,0.0,0.0,0.0,-0.9152,0.0,0.0,0.0,0.0,0.0,0.0,0.0,0.0,0.0,0.0,0.0,0.0,0.0,-0.9071,-0.9692,0.0,-1.0598,-1.0967,-1.1385,-1.1953,-1.2909,-1.4697,-1.5975,-1.7182,-1.8855,-1.9887,-2.0541,-2.0651,-2.1424,-2.2081,-2.2128,-2.2905,-2.367,-2.4139,-2.5399,-2.6269,-2.622,-2.564,-2.483,-2.3687,-2.4244,-2.4384,-2.3705,-2.4281,-2.4857,-2.5281,-2.5645,-2.6084,-2.6657,-2.6759,-2.6792,-2.6691,-2.6674,-2.664,-2.664,-2.664,-2.6824,-2.7244,-2.7138,-2.7102,-2.7102,-2.7083,-2.6797,0.0,-2.6397,-2.6397,-2.638,-2.6293,-2.6277,-2.6341,-2.7035,-2.7135,-2.7015,0.0,0.0,0.0,0.0,0.0,0.0,0.0,0.2273,0.2097,0.2053,0.2317,0.2228,0.1477,0.1743,0.1743,0.1119,0.0,0.0,0.0,0.0,0.0,0.0,0.0,0.0,0.0,-0.2239,-0.2874,-0.3263,-0.3457,-0.3713,-0.3939,-0.4101,-0.4336,-0.4632,-0.4968,-0.5288,0.0,0.0,0.0,0.0,0.0,0.0,0.0,0.0,0.0,0.0,0.0,0.0,0.0,0.0,0.0,0.0,0.0,0.0,0.0,0.0,0.0,0.0,0.0,-0.9658,-0.9961,-1.021,-1.0533,-1.1379,-1.3776,0.0,0.0,-1.7553,-1.8473,-1.892,-1.9177,-2.0103,-2.0864,-2.0962,-2.1965,-2.3201,-2.4559,-2.569,-2.6623,-2.7247,-2.4957,-2.3208,-2.2859,-2.2945,-2.2796,-2.2106,-2.3296,-2.4079,-2.4255,-2.5072,-2.5709,-2.6068,-2.647,-2.6674,-2.6708,-2.6623,-2.6572,-2.6572,-2.6572,-2.6521,-2.6401,-2.6264,-2.6195,-2.6145,-2.6073,-2.6054,-2.6054,-2.6054,-2.6087,-2.6137,-2.6137,-2.617,-2.6286,-2.6949,-2.6783,-2.6402,0.0,0.0,0.0,0.0,0.0,0.0,0.0,0.0,0.0,0.0,0.2763,0.245,0.1517,0.1472,0.1383,0.0,0.0,0.0,0.0,0.0,0.0,0.0,0.0,0.0,0.0,-0.0849,-0.1436,-0.2999,-0.323,-0.3384,-0.3465,-0.3752,-0.3914,-0.4052,-0.4649,-0.5177,0.0,0.0,0.0,0.0,0.0,0.0,0.0,0.0,0.0,0.0,-0.8609,-0.8517,0.0,0.0,0.0,0.0,0.0,0.0,0.0,0.0,-0.7235,-0.723,-0.761,0.0,-0.8935,-0.8981,-0.9703,-1.0732,0.0,0.0,0.0,0.0,0.0,-1.7335,-1.7385,-1.8215,-1.8859,-1.8909,-1.972,-2.0981,-2.2804,-2.5112,-2.6573,-2.6424,-2.5374,-2.3978,-2.2236,-2.2378,-2.2613,-2.2742,-2.3032,-2.3634,-2.468,-2.4903,-2.5278,-2.5921,-2.6225,-2.6435,-2.6537,-2.652,-2.652,-2.652,-2.6417,-2.6081,-2.548,-2.5411,-2.5078,-2.4547,-2.4514,-2.453,-2.453,-2.453,-2.4862,-2.5359,-2.5359,-2.5706,-2.6236,-2.6402,-2.6352,-2.6234,0.0,0.0,0.0,0.0,0.0,0.0,0.0,0.0,0.0,0.0,0.0,0.0,0.0,0.0,0.0,0.0,0.0,0.0,0.0,0.0,0.0,0.0,0.0,0.0,-0.0403,-0.0493,-0.1073,-0.2194,-0.237,-0.2687,-0.3233,-0.3391,-0.3592,-0.3852,-0.4513,-0.5018,-0.5399,0.0,0.0,0.0,-0.6573,0.0,0.0,0.0,0.0,0.0,-0.7592,-0.7573,0.0,-0.6965,-0.6824,-0.6812,0.0,0.0,0.0,0.0,-0.6485,-0.6367,-0.6317,-0.7074,-0.7937,-0.7984,-0.8448,-0.9299,-1.0889,0.0,0.0,0.0,0.0,-1.5367,-1.5235,-1.6362,-1.694,-1.5913,-1.8493,-2.1338,-2.3332,-2.3923,-2.4369,-2.483,-2.3965,-2.3107,-2.2666,-2.2476,-2.2499,-2.2723,-2.2942,-2.3389,-2.4044,-2.4633,-2.513,-2.5513,-2.599,-2.6329,-2.6485,-2.6434,-2.6399,-2.6382,-2.5997,-2.5579,-2.5145,-2.5025,-2.4725,-2.4379,-2.4709,-2.4676,-2.4363,-2.448,-2.4547,-2.463,-2.4978,-2.5359,-2.5721,-2.5964,-2.6043,-2.6007,0.0,0.0,0.0,0.0,0.0,0.0,0.0,0.0,0.0,0.0,0.0,0.0,0.0,0.0,0.0,0.0,0.0,0.0,0.0,0.0,0.0,0.0,0.0,0.0718,0.0539,-0.0313,-0.0851,-0.1119,-0.125,-0.1832,-0.2823,-0.2912,-0.3212,-0.3693,-0.4245,-0.4623,-0.4904,-0.4959,-0.5069,-0.5281,-0.5655,0.0,0.0,0.0,0.0,0.0,0.0,0.0,0.0,-0.597,-0.5855,-0.5929,-0.5861,0.0,0.0,0.0,0.0,0.0,-0.519,-0.5855,-0.6642,-0.6966,-0.7122,-0.7651,-0.9369,0.0,0.0,0.0,0.0,0.0,-1.2979,-1.4158,0.0,-1.2051,-1.7247,-2.2428,-2.4796,-2.3562,-2.2807,-2.3777,-2.2767,-2.2329,-2.3194,-2.2654,-2.2298,-2.2397,-2.2809,-2.3105,-2.3264,-2.4326,-2.4974,-2.5052,-2.5733,-2.6151,-2.6293,-2.6277,-2.6158,-2.6077,-2.5445,-2.4978,-2.466,-2.4541,-2.4407,-2.4307,-2.4928,-2.4846,-2.4274,-2.4611,-2.4447,-2.4034,-2.4778,-2.5125,-2.5273,-2.5704,-2.5844,-2.577,0.0,0.0,0.0,0.0,0.0,0.0,0.0,0.0,0.0,0.0,0.0,0.0,0.0,0.0,0.0,0.0,0.0,0.0,0.0,0.0,0.0,0.0,0.1524,0.121,0.1075,0.103,0.0716,0.0134,-0.0492,-0.1029,-0.1521,-0.2148,-0.2606,-0.2988,-0.3327,-0.3684,-0.4018,-0.4245,-0.4632,-0.5124,-0.4846,0.0,0.0,0.0,0.0,0.0,0.0,0.0,0.0,-0.4613,-0.4726,-0.5092,-0.499,0.0,0.0,0.0,0.0,0.0,-0.4354,-0.4304,-0.4567,-0.5614,-0.6209,-0.6681,0.0,0.0,0.0,0.0,0.0,0.0,0.0,-1.0995,-0.967,-0.704,-1.3954,-2.1142,-2.5551,-2.7253,-2.746,-2.5901,-2.5648,-2.4596,-2.2059,-2.1674,-2.1786,-2.2278,-2.2085,-2.2566,-2.4045,-2.4184,-2.4436,-2.4752,-2.5253,-2.5497,-2.5384,-2.5754,-2.5625,-2.5036,-2.4903,-2.4161,-2.2834,-2.2965,-2.2589,-2.1843,-2.1956,-2.194,-2.1891,-2.272,-2.3326,-2.3818,-2.4556,-2.5212,-2.577,-2.5684,-2.5659,-2.5621,0.0,0.0,0.0,0.0,0.0,0.0,0.0,0.0,0.0,0.0,0.0,0.0,0.0,0.0,0.0,0.0,0.0,0.0,0.0,0.0,0.0,0.222,0.196,0.1698,0.1478,0.1524,0.1389,0.1119,0.0671,0.0,-0.085,-0.1743,-0.2335,-0.2666,-0.2916,-0.3297,-0.3683,-0.3796,-0.4018,-0.4291,0.0,0.0,0.0,0.0,0.0,0.0,0.0,0.0,0.0,0.0,-0.3832,-0.4017,-0.4277,0.0,0.0,0.0,0.0,0.0,-0.3485,-0.3364,-0.3461,-0.4021,-0.4622,-0.5269,0.0,0.0,0.0,0.0,0.0,0.0,0.0,-0.8044,-0.8026,-1.1239,-1.6718,-2.1883,-2.5751,-2.5284,-2.4467,-2.4283,-2.3528,-2.2852,-2.2378,-2.2125,-2.2198,-2.2685,-2.2697,-2.3038,-2.3879,-2.3979,-2.409,-2.4282,-2.4728,-2.4942,-2.4863,-2.5169,-2.5083,-2.4645,-2.3979,-2.321,-2.2394,-2.2508,-2.2248,-2.1745,-2.2131,-2.2083,-2.1778,-2.2329,-2.2492,-2.2492,-2.3225,-2.3821,-2.4321,-2.4728,-2.4815,-2.4735,0.0,0.0,0.0,0.0,0.0,0.0,0.0,0.0,0.0,0.0,0.0,0.0,0.0,0.0,0.0,0.0,0.0,0.0,0.0,0.0,0.3034,0.2999,0.3008,0.2622,0.1834,0.1837,0.1794,0.1703,0.1523,0.076,-0.0447,-0.1431,-0.2009,-0.2216,-0.2413,-0.2722,-0.3181,-0.3239,-0.335,-0.3405,0.0,0.0,0.0,0.0,0.0,0.0,0.0,0.0,0.0,0.0,0.0,0.0,0.0,0.0,0.0,-0.3292,-0.3161,-0.2826,-0.2663,-0.2595,-0.2567,-0.2552,0.0,0.0,0.0,0.0,0.0,0.0,0.0,0.0,0.0,-0.5582,-0.6881,-1.4633,-1.8959,-2.2682,-2.6681,-2.4382,-2.2741,-2.3964,-2.2623,-2.2051,-2.3182,-2.2847,-2.2693,-2.3041,-2.3158,-2.3287,-2.3508,-2.3681,-2.3767,-2.3724,-2.4173,-2.4302,-2.4163,-2.4324,-2.4374,-2.4211,-2.3329,-2.2731,-2.2401,-2.2351,-2.2237,-2.2091,-2.2722,-2.2531,-2.182,-2.2374,-2.215,-2.1585,-2.2473,-2.3007,-2.3343,-2.3933,-2.4039,-2.4009,0.0,0.0,0.0,0.0,0.0,0.0,0.0,0.0,0.0,0.0,0.0,0.0,0.0,0.0,0.0,0.0,0.0,0.0,0.0,0.0,0.5432,0.5451,0.5453,0.4418,0.2224,0.2148,0.2064,0.1794,0.1524,0.085,-0.0224,-0.094,-0.1264,-0.1311,-0.1463,-0.168,-0.1958,-0.2183,-0.2573,-0.2905,-0.2462,0.0,0.0,0.0,0.0,0.0,0.0,0.0,0.0,0.0,0.0,0.0,0.0,0.0,-0.2203,-0.265,-0.2592,-0.2378,-0.2,-0.1814,-0.161,-0.1239,-0.2242,0.0,-0.1563,-0.1001,0.0,-0.2211,0.0,0.0,0.0,-0.3646,-0.4957,-1.1341,-1.6729,-2.2524,-2.9409,-2.8743,-2.7727,-2.8211,-2.6795,-2.5322,-2.4224,-2.3259,-2.2787,-2.298,-2.2599,-2.2641,-2.329,-2.3363,-2.3275,-2.3171,-2.3551,-2.3465,-2.2825,-2.3132,-2.3326,-2.3319,-2.3498,-2.3192,-2.2375,-2.22,-2.2061,-2.1916,-2.2306,-2.1873,-2.1001,-2.2524,-2.2756,-2.2242,-2.3538,-2.4214,-2.4321,-2.3763,-2.3763,-2.3891,0.0,0.0,0.0,0.0,0.0,0.0,0.0,0.0,0.0,0.0,0.0,0.0,0.0,0.0,0.0,0.0,0.0,0.0,0.0,0.0,0.6632,0.7722,0.802,0.7179,0.5057,0.3716,0.3023,0.2901,0.2188,0.1609,0.1206,0.0321,-0.0144,-0.0252,-0.0775,-0.1219,-0.1523,-0.1609,-0.1935,-0.245,-0.228,-0.206,0.0,0.0,0.0,0.0,0.0,0.0,0.0,0.0,-0.0849,-0.1165,-0.1546,-0.1418,-0.1245,-0.1636,-0.1649,-0.1444,-0.1406,-0.119,-0.1001,-0.0967,-0.1236,0.0,0.0,0.0,0.0447,0.0837,-0.0167,0.0,0.0,-0.2602,-0.4904,-1.3232,-1.0646,-1.2592,-2.7063,-2.3971,-2.2363,-2.82,-2.6358,-2.4613,-2.4687,-2.2483,-2.1541,-2.2802,-2.2498,-2.235,-2.2614,-2.2382,-2.2206,-2.2161,-2.2046,-2.2232,-2.2644,-2.2706,-2.2832,-2.3007,-2.2812,-2.2616,-2.2377,-2.2202,-2.2026,-2.1894,-2.2026,-2.171,-2.1148,-2.159,-2.151,-2.1133,-2.1698,-2.2309,-2.2827,-2.2179,-2.2295,-2.2768,0.0,0.0,0.0,0.0,0.0,0.0,0.0,0.0,0.0,0.0,0.0,0.0,0.0,0.0,0.0,0.0,0.0,0.0,0.8307,0.7762,0.7964,0.9147,0.9547,0.9073,0.7664,0.5882,0.4539,0.3693,0.2719,0.223,0.2277,0.1517,0.0999,0.0644,0.0203,-0.0259,-0.0682,-0.0697,-0.0914,-0.1173,-0.1201,-0.0905,0.0,0.0,0.0,0.0,0.0,0.0,0.0,0.0,0.0134,0.0089,-0.0446,-0.0402,-0.027,-0.0555,-0.0528,-0.0398,-0.0459,-0.0319,-0.011,-0.016,0.0,0.0,0.0279,0.0723,0.1274,0.2074,0.1008,-0.0394,-0.1267,-0.1565,-0.3848,-1.0319,-0.6599,-0.6753,-1.7918,-1.7511,-1.7892,-2.2899,-2.2933,-2.2815,-2.3558,-2.1097,-2.0479,-2.2906,-2.2424,-2.1993,-2.209,-2.1614,-2.1341,-2.1196,-2.1067,-2.1238,-2.1713,-2.1886,-2.2102,-2.244,-2.1932,-2.2043,-2.272,-2.245,-2.2184,-2.1955,-2.2049,-2.1622,-2.0911,-2.0929,-2.0782,-2.0593,-2.0654,-2.1181,-2.1886,-2.1253,-2.1352,-2.1828,0.0,0.0,0.0,0.0,0.0,0.0,0.0,0.0,0.0,0.0,0.0,0.0,0.0,0.0,0.0,0.0,0.0,0.0,0.9677,0.9699,0.9695,0.9721,0.969,0.9713,0.9685,0.851,0.6592,0.3906,0.2978,0.2583,0.2719,0.2495,0.2003,0.1232,0.1614,0.1359,0.0605,0.0605,0.0771,0.106,0.106,0.109,0.1155,0.0,0.0,0.0,0.0,0.0,0.0,0.0,0.1703,0.1614,0.1074,0.0895,0.0851,0.0582,0.0599,0.0714,0.0806,0.1004,0.1221,0.0,0.0,0.0,0.1118,0.1364,0.1401,0.1281,0.1176,0.1006,0.0726,-0.0504,-0.1347,-0.0954,-0.5461,-0.7105,-0.165,-1.0353,-1.5836,-1.1957,-1.6563,-2.021,-2.0628,-1.9201,-1.9768,-2.3477,-2.2353,-2.1568,-2.1787,-2.1225,-2.0726,-2.0387,-2.0781,-2.0616,-1.9824,-2.0384,-2.0961,-2.1475,-2.0961,-2.1628,-2.3406,-2.3038,-2.2568,-2.2024,-2.2327,-2.153,-2.0066,-2.071,-2.0983,-2.0983,-2.0983,-2.1409,-2.1888,-2.1227,-2.1181,-2.1401,0.0,0.0,0.0,0.0,0.0,0.0,0.0,0.0,0.0,0.0,0.0,0.0,0.0,0.0,0.0,0.0,0.0,0.0,0.9909,0.9787,0.9826,1.0124,1.0126,0.9988,0.9631,0.8675,0.7231,0.5221,0.4735,0.4387,0.418,0.3886,0.3727,0.3638,0.2672,0.2293,0.2411,0.2434,0.2837,0.3584,0.3889,0.359,0.2841,0.0,0.0,0.0,0.0,0.0,0.0,0.0,0.0,0.0,0.1299,0.1254,0.1208,0.1119,0.113,0.1239,0.1483,0.1618,0.0,0.2733,0.0,0.0,0.0,0.1038,0.0,0.0,0.0952,0.1062,0.0448,-0.0448,-0.1119,-0.1178,-0.2056,-0.2263,-0.1093,-0.3738,-0.5548,-0.4805,-0.7258,-1.1693,-1.8503,-1.928,-1.9897,-2.1111,-2.0758,-2.0405,-2.0146,-1.9948,-1.9739,-1.9489,-1.9464,-1.9669,-2.0161,-1.9921,-2.0185,-2.0934,-2.0782,-2.141,-2.2753,-2.1942,-2.1491,-2.1304,-2.1413,-2.1035,-2.0311,-2.0079,-2.0094,-2.0342,-1.9855,-2.019,-2.0833,-1.999,-1.9834,-2.0154,0.0,0.0,0.0,0.0,0.0,0.0,0.0,0.0,0.0,0.0,0.0,0.0,0.0,0.0,0.0,0.0,0.0,0.0,0.0,1.0568,1.049,1.1009,1.0797,1.0371,0.9697,0.9266,0.8326,0.6868,0.6355,0.5851,0.5356,0.5159,0.4992,0.4834,0.3908,0.3615,0.382,0.3828,0.4185,0.4688,0.4861,0.4498,0.3785,0.0,0.0,0.0,0.0,0.0,0.0,0.0,0.0,0.0,0.2156,0.2037,0.1928,0.1928,0.1949,0.2077,0.2355,0.2415,0.0,0.3374,0.3118,0.2331,0.1138,0.0,0.0,0.0,0.0952,0.112,0.0561,0.0112,-0.0392,-0.1009,-0.0505,-0.0282,-0.1153,-0.1022,-0.107,-0.1435,-0.2959,-0.6345,-1.2282,-1.4705,-1.73,-2.0653,-2.003,-1.9503,-1.9502,-1.8989,-1.8686,-1.8618,-1.8607,-1.8906,-1.9585,-1.9139,-1.9401,-2.0326,-1.9905,-2.031,-2.1427,-2.1034,-2.0748,-2.0503,-2.0229,-2.0055,-1.9891,-1.9509,-1.9485,-1.9653,-1.9185,-1.9395,-1.99,-1.9255,-1.9184,-1.9428,0.0,0.0,0.0,0.0,0.0,0.0,0.0,0.0,0.0,0.0,0.0,0.0,0.0,0.0,0.0,0.0,0.0,0.0,0.0,0.0,1.1531,1.209,1.161,1.094,1.0011,1.0225,0.9778,0.8715,0.7878,0.7058,0.6362,0.6398,0.6021,0.5361,0.526,0.5168,0.5043,0.4981,0.4958,0.4997,0.4767,0.4495,0.4318,0.4318,0.0,0.0,0.0,0.0,0.0,0.0,0.0,0.0,0.3356,0.3035,0.279,0.2887,0.295,0.2989,0.3139,0.3262,0.3417,0.3579,0.3778,0.0,0.162,0.1064,0.0897,0.0898,0.1122,0.1178,0.0954,0.101,0.0729,-0.0393,-0.0224,-0.028,-0.1403,-0.1125,-0.0858,-0.0913,-0.2564,-0.3895,-0.4469,-0.7958,-1.3302,-2.0951,-1.9646,-1.8765,-1.9377,-1.8331,-1.7774,-1.7882,-1.8135,-1.8319,-1.8439,-1.8282,-1.8679,-1.9629,-1.8665,-1.8733,-1.9658,-2.0228,-2.0212,-1.9655,-1.9041,-1.8912,-1.9064,-1.9064,-1.9064,-1.9064,-1.886,-1.8921,-1.9109,-1.9003,-1.9026,-1.9147,0.0,0.0,0.0,0.0,0.0,0.0,0.0,0.0,0.0,0.0,0.0,0.0,0.0,0.0,0.0,0.0,0.0,0.0,0.0,0.0,1.2579,1.222,1.1906,1.1664,1.1457,1.1308,1.096,1.0456,0.9235,0.8228,0.7446,0.7294,0.7298,0.7341,0.6557,0.6403,0.6742,0.6194,0.6264,0.6777,0.6691,0.6355,0.5848,0.5848,0.5077,0.0,0.0,0.0,0.0,0.0,0.0,0.0,0.3943,0.3638,0.3125,0.3263,0.3272,0.3188,0.316,0.3426,0.0,0.3646,0.3616,0.3697,0.3699,0.2237,0.0896,0.0897,0.0954,0.0954,0.0898,0.1682,0.2244,0.1965,0.1234,0.0617,0.0336,0.0,-0.0177,-0.0229,-0.2525,-0.4681,-0.5989,-0.9819,-1.3654,-1.6977,-1.7587,-1.7841,-1.7851,-1.7773,-1.7733,-1.772,-1.7962,-1.8082,-1.8121,-1.8029,-1.8152,-1.8556,-1.8297,-1.8311,-1.8556,-1.8855,-1.892,-1.8793,-1.8652,-1.8697,-1.886,-1.886,-1.886,-1.886,-1.8822,-1.876,-1.8715,-1.9117,-1.903,-1.8768,0.0,0.0,0.0,0.0,0.0,0.0,0.0,0.0,0.0,0.0,0.0,0.0,0.0,0.0,0.0,0.0,0.0,0.0,0.0,0.0,1.3084,1.2555,1.2437,1.2223,1.1909,1.1872,1.1579,1.1094,1.0532,0.9817,0.8939,0.8723,0.8627,0.8588,0.7741,0.756,0.7816,0.721,0.7168,0.7543,0.7256,0.6915,0.6622,0.6713,0.6155,0.5379,0.5211,0.0,0.0,0.0,0.0,0.0,0.0,0.0,0.3767,0.3718,0.3641,0.3642,0.3565,0.0,0.0,0.3605,0.0,0.3691,0.3981,0.3079,0.2181,0.2188,0.1514,0.0898,0.0898,0.1401,0.185,0.1853,0.1066,0.0449,0.0449,0.0173,0.0,0.0,-0.181,-0.4122,-0.6793,-0.9588,-1.2152,-1.4317,-1.5857,-1.6715,-1.6629,-1.6951,-1.7282,-1.7569,-1.7666,-1.7814,-1.7988,-1.7935,-1.8003,-1.8202,-1.8083,-1.8043,-1.8043,-1.8282,-1.8361,-1.8361,-1.8361,-1.8464,-1.8644,-1.8644,-1.8644,-1.8644,-1.8528,-1.8464,-1.8388,-1.8588,-1.8545,-1.8442,0.0,0.0,0.0,0.0,0.0,0.0,0.0,0.0,0.0,0.0,0.0,0.0,0.0,0.0,0.0,0.0,0.0,0.0,0.0,0.0,0.0,1.3225,1.3123,1.2812,1.2259,1.2342,1.2126,1.1568,1.1788,1.1509,1.0702,1.0186,0.9843,0.9612,0.8869,0.8643,0.8823,0.826,0.8127,0.8252,0.7661,0.7379,0.7363,0.7377,0.7126,0.6784,0.6523,0.6481,0.65,0.5942,0.0,0.0,0.0,0.0,0.4579,0.4299,0.4179,0.4117,0.4124,0.0,0.4144,0.3966,0.3895,0.0,0.3633,0.358,0.3583,0.3538,0.2132,0.0842,0.0784,0.0729,0.0729,0.0729,0.0336,0.0,0.0,-0.0115,-0.0175,-0.0175,-0.1129,-0.3098,-0.6511,-0.844,-1.0465,-1.2731,-1.446,-1.5525,-1.576,-1.617,-1.6693,-1.7267,-1.7321,-1.7502,-1.7868,-1.7855,-1.7922,-1.8123,-1.7922,-1.7828,-1.7719,-1.7988,-1.8123,-1.8163,-1.8163,-1.8282,-1.8439,-1.8439,-1.8439,-1.8439,-1.8282,-1.8163,-1.8137,-1.8085,-1.8085,-1.8176,0.0,0.0,0.0,0.0,0.0,0.0,0.0,0.0,0.0,0.0,0.0,0.0,0.0,0.0,0.0,0.0,0.0,0.0,0.0,0.0,0.0,1.4392,1.4038,1.3789,1.3656,1.3251,1.3067,1.3088,1.3123,1.302,1.2672,1.1265,1.0723,1.0914,0.9946,0.9802,1.027,0.9811,0.973,0.9952,0.9612,0.9209,0.8755,0.8317,0.7578,0.6758,0.6263,0.578,0.546,0.5764,0.5882,0.0,0.0,0.0,0.5512,0.5091,0.4776,0.4591,0.4605,0.0,0.6398,0.0,0.5058,0.4835,0.0,0.3616,0.3511,0.3251,0.1962,0.0728,0.0224,0.0112,0.0112,0.0112,0.0056,0.0,0.0,-0.045,-0.079,-0.0788,-0.1384,-0.2397,-0.3952,-0.7432,-1.0508,-1.2739,-1.3471,-1.4329,-1.5576,-1.592,-1.6349,-1.696,-1.7002,-1.7115,-1.7323,-1.7475,-1.7625,-1.776,-1.772,-1.7437,-1.6979,-1.7518,-1.7842,-1.7922,-1.7922,-1.8043,-1.8242,-1.8242,-1.8242,-1.8242,-1.8202,-1.8083,-1.799,-1.8507,-1.8371,-1.799,0.0,0.0,0.0,0.0,0.0,0.0,0.0,0.0,0.0,0.0,0.0,0.0,0.0,0.0,0.0,0.0,0.0,0.0,0.0,0.0,0.0,1.4814,1.4658,1.4406,1.4057,1.3776,1.3589,1.3408,1.334,1.3353,0.0,1.2787,1.222,1.1752,1.0919,1.0758,1.1028,1.0565,1.0423,1.0542,1.0281,1.0057,0.9933,0.9688,0.9044,0.8253,0.7815,0.7133,0.6435,0.6328,0.6104,0.5911,0.6394,0.0,0.0,0.0,0.575,0.5674,0.5664,0.6355,0.6963,0.0,0.6301,0.6092,0.5246,0.4791,0.4346,0.3691,0.274,0.1789,0.0894,0.0056,-0.028,0.0393,-0.0056,-0.0561,-0.0729,-0.1403,-0.1908,-0.1903,-0.2431,-0.3076,-0.3753,-0.6184,-0.8454,-1.0265,-1.1637,-1.2934,-1.4046,-1.4755,-1.5522,-1.6392,-1.6398,-1.657,-1.7044,-1.7295,-1.7515,-1.7679,-1.7679,-1.7397,-1.6819,-1.7437,-1.7531,-1.7301,-1.7733,-1.7963,-1.8043,-1.8043,-1.8043,-1.8043,-1.8043,-1.7963,-1.7909,-1.8221,-1.8154,-1.7923,0.0,0.0,0.0,0.0,0.0,0.0,0.0,0.0,0.0,0.0,0.0,0.0,0.0,0.0,0.0,0.0,0.0,0.0,0.0,0.0,0.0,1.5345,1.524,1.4954,1.4523,1.4392,1.42,1.3927,1.3842,0.0,1.4092,1.4193,1.3852,0.0,1.2146,1.1637,1.1503,1.1257,1.1124,1.1019,1.0927,1.0949,1.1019,1.0905,1.0475,0.9865,0.9412,0.8502,0.7493,0.6968,0.6392,0.5976,0.631,0.6291,0.0,0.0,0.0,0.6422,0.0,0.0,0.7002,0.6956,0.6999,0.6815,0.0,0.5635,0.5018,0.4132,0.3574,0.2905,0.1845,0.0616,-0.0056,0.0505,0.028,-0.0336,-0.1402,-0.2359,-0.2979,-0.3028,-0.3418,-0.3808,-0.4082,-0.5412,-0.6811,-0.8156,-1.0023,-1.1483,-1.2397,-1.3554,-1.4538,-1.5365,-1.5576,-1.594,-1.6607,-1.6944,-1.7246,-1.7515,-1.7396,-1.709,-1.6703,-1.7317,-1.7263,-1.6755,-1.7531,-1.7842,-1.7842,-1.7842,-1.7882,-1.7882,-1.7842,-1.7882,-1.7882,-1.7882,-1.7882,-1.7882,0.0,0.0,0.0,0.0,0.0,0.0,0.0,0.0,0.0,0.0,0.0,0.0,0.0,0.0,1.7648,1.7625,0.0,0.0,0.0,0.0,0.0,1.6351,1.5838,0.0,1.5448,1.5299,1.5285,1.5389,0.0,0.0,1.5391,1.5216,1.5321,1.5625,1.374,1.2497,1.1816,0.0,0.0,1.1761,1.2083,1.2211,1.2151,1.1718,1.1365,1.0994,1.0148,0.9095,0.8,0.7452,0.6823,0.6241,0.6013,0.6213,0.6514,0.0,0.0,0.0,0.0,0.6778,0.0,0.6633,0.6648,0.639,0.5517,0.5336,0.5062,0.4187,0.3965,0.3691,0.28,0.2076,0.1234,-0.0056,0.1291,0.1402,-0.1734,-0.2974,-0.3652,-0.3925,-0.3981,-0.4092,-0.4425,-0.569,-0.689,-0.7848,-0.8992,-1.0074,-1.1113,-1.2493,-1.3443,-1.3799,-1.4538,-1.5254,-1.5832,-1.6189,-1.6595,-1.7031,-1.6582,-1.6336,-1.6362,-1.6937,-1.6967,-1.6573,-1.737,-1.772,-1.772,-1.772,-1.7801,-1.7882,-1.776,-1.7801,-1.7882,-1.7882,-1.7882,-1.7882,0.0,0.0,0.0,0.0,0.0,0.0,0.0,0.0,0.0,0.0,0.0,0.0,0.0,1.8415,1.8217,1.8038,1.7625,0.0,0.0,0.0,0.0,1.686,1.6496,1.62,1.6009,1.5838,1.5737,0.0,0.0,1.5817,1.6406,1.631,1.6383,1.6452,1.4927,1.405,1.3706,1.3552,1.3171,1.2741,1.3297,1.319,1.2709,1.2926,1.2516,1.1793,1.1278,1.0106,0.8776,0.8639,0.78,0.6921,0.7452,0.7303,0.6943,0.6943,0.0,0.0,0.0,0.0,0.0,0.7197,0.7045,0.6764,0.6244,0.5778,0.5285,0.4463,0.4245,0.3858,0.2965,0.2238,0.1681,0.1287,0.0952,0.0617,0.0112,-0.1401,-0.2693,-0.3471,-0.3869,-0.4147,-0.4307,-0.5191,-0.59,-0.6381,-0.7623,-0.875,-0.9775,-1.0806,-1.1868,-1.284,-1.349,-1.4155,-1.4885,-1.494,-1.5023,-1.5134,-1.4977,-1.4745,-1.4473,-1.5296,-1.5376,-1.4866,-1.5814,-1.6731,-1.757,-1.757,-1.7411,-1.7129,-1.7089,-1.6835,-1.6563,-1.6667,-1.6896,-1.7207,0.0,0.0,0.0,0.0,0.0,0.0,0.0,0.0,0.0,0.0,0.0,0.0,0.0,0.0,1.8605,1.8378,1.7773,1.7461,1.7631,1.7206,1.7056,1.728,1.6986,1.6747,1.6565,1.6647,1.6565,1.6266,1.6373,1.6598,0.0,1.6909,1.6962,1.7108,1.5913,1.5134,0.0,1.4553,1.4,1.3303,1.4088,1.402,1.3521,1.4052,1.3849,1.3265,1.2911,1.1843,1.0551,1.0427,0.9476,0.8429,0.8693,0.8114,0.7351,0.7527,0.0,0.0,0.7492,0.0,0.0,0.0,0.7234,0.7067,0.6478,0.6004,0.5508,0.4791,0.4467,0.4135,0.3294,0.2683,0.2238,0.2017,0.0952,0.0336,0.0898,-0.0336,-0.1682,-0.2685,-0.3471,-0.3978,-0.3968,-0.4688,-0.5238,-0.5508,-0.6568,-0.7629,-0.8528,-0.9511,-1.0679,-1.2033,-1.2628,-1.3181,-1.3718,-1.3725,-1.3773,-1.3818,-1.3733,-1.3646,-1.3531,-1.4189,-1.4281,-1.4012,-1.4778,-1.5893,-1.7142,-1.7156,-1.697,-1.6717,-1.6864,-1.6452,-1.5848,-1.615,-1.6458,-1.678,0.0,0.0,0.0,0.0,0.0,0.0,0.0,0.0,0.0,0.0,0.0,0.0,0.0,0.0,0.0,1.8698,1.7804,1.7605,1.8397,1.7261,1.6896,1.7642,0.0,0.0,0.0,1.7769,1.775,1.7018,1.7551,1.7614,1.7205,1.6969,1.7151,1.7687,1.676,1.5705,1.4612,1.5244,1.4653,1.3425,1.4443,1.4766,1.4669,1.5044,1.5314,1.5449,1.4993,1.4173,1.3273,1.2728,1.1855,1.0723,0.9513,0.8529,0.7835,0.0,0.0,0.0,0.0,0.0,0.0,0.6974,0.7188,0.7228,0.6113,0.5965,0.5837,0.5066,0.4794,0.4467,0.3738,0.3519,0.3079,0.202,0.1291,0.0785,0.0449,-0.0056,-0.0728,-0.1679,-0.2685,-0.3411,-0.3572,-0.4343,-0.4952,-0.5222,-0.5941,-0.6707,-0.7413,-0.8659,-0.999,-1.1316,-1.1984,-1.2368,-1.2387,-1.2603,-1.2907,-1.3215,-1.2963,-1.3092,-1.361,-1.3743,-1.3886,-1.4058,-1.4362,-1.5233,-1.6402,-1.6389,-1.6481,-1.6664,-1.7155,-1.6652,-1.5798,-1.6411,-1.6664,-1.6664,0.0,0.0,0.0,0.0,0.0,0.0,0.0,0.0,0.0,0.0,0.0,0.0,0.0,1.9196,1.8879,1.812,1.8448,1.8413,1.768,1.7693,1.7546,1.713,1.7401,1.7486,1.7392,1.7699,1.7693,1.7288,1.7565,1.7757,1.7773,1.7662,1.7753,0.0,1.7899,1.7273,1.6338,1.5509,1.4791,1.4349,1.5599,1.5831,1.5557,1.655,1.65,1.5918,1.5795,1.4922,1.3952,1.4377,1.3572,1.203,1.0251,0.931,0.0,0.0,0.0,0.0,0.7829,0.0,0.0,0.0,0.0,0.0,0.7355,0.6865,0.6263,0.5664,0.5336,0.4901,0.4187,0.403,0.3811,0.3193,0.1681,0.0449,0.0168,-0.0168,-0.056,-0.1062,-0.1789,-0.2404,-0.2903,-0.3624,-0.4181,-0.434,-0.512,-0.595,-0.6652,-0.8031,-0.934,-1.0517,-1.0813,-1.1077,-1.1369,-1.1352,-1.1271,-1.1128,-1.1143,-1.1226,-1.1347,-1.1746,-1.1976,-1.209,-1.2467,-1.316,-1.4045,-1.5095,-1.5323,-1.5036,-1.5229,-1.4862,-1.4297,-1.5042,-1.5618,-1.6055,0.0,0.0,0.0,0.0,0.0,0.0,0.0,0.0,0.0,0.0,0.0,0.0,0.0,0.0,1.9166,1.8489,1.897,1.8945,1.811,1.7339,1.6905,1.6896,1.7601,1.7843,1.7517,1.8186,1.8293,1.7715,1.8138,1.8135,1.7762,1.7727,1.7727,0.0,0.0,0.0,0.0,1.5946,1.5315,1.51,1.6329,1.656,1.6253,1.7398,1.7529,1.7098,1.7098,1.6467,1.5672,1.612,1.5175,1.3563,1.2235,1.1136,1.0103,0.9023,0.0,0.0,0.0,0.0,0.0,0.785,0.0,0.0,0.7688,0.7349,0.6912,0.6312,0.5764,0.5222,0.4736,0.4363,0.4033,0.3805,0.2629,0.1455,0.0672,0.0224,-0.0112,-0.0392,-0.123,-0.1956,-0.2291,-0.3016,-0.3514,-0.3677,-0.4508,-0.5395,-0.6431,-0.7563,-0.8567,-0.9399,-0.9651,-0.9946,-1.0333,-1.0349,-1.0262,-0.9947,-1.0233,-1.0268,-1.0157,-1.0649,-1.0878,-1.0943,-1.1394,-1.1957,-1.2585,-1.3654,-1.4111,-1.4208,-1.4864,-1.4475,-1.3684,-1.4654,-1.5249,-1.564,0.0,0.0,0.0,0.0,0.0,0.0,0.0,0.0,0.0,0.0,0.0,0.0,0.0,0.0,0.0,0.0,1.9268,1.9353,1.9401,1.6994,1.5971,1.687,1.7781,1.8081,1.7631,1.8865,1.9132,1.8371,1.8897,1.862,1.7619,1.7512,1.7368,1.7224,0.0,0.0,0.0,1.6628,1.6163,1.5623,1.6922,1.7234,1.6972,1.8071,1.8504,1.8592,1.8592,1.8226,1.7787,1.772,1.6561,1.5109,1.461,1.3328,1.1749,1.0634,1.0176,0.0,0.0,0.0,0.0,0.7814,0.8042,0.0,0.7653,0.7601,0.7576,0.7004,0.6249,0.5597,0.5386,0.4666,0.4061,0.4076,0.379,0.3121,0.1733,0.1064,0.0617,0.0336,-0.084,-0.1623,-0.1679,-0.2348,-0.2903,-0.3178,-0.395,-0.4995,-0.6312,-0.6966,-0.7616,-0.8209,-0.8573,-0.8909,-0.9338,-0.9577,-0.9628,-0.9476,-0.9838,-0.9902,-0.9744,-1.0108,-1.0302,-1.0351,-1.0878,-1.133,-1.1749,-1.2207,-1.2974,-1.3939,-1.5221,-1.4838,-1.3711,-1.4874,-1.5311,-1.5413,0.0,0.0,0.0,0.0,0.0,0.0,0.0,0.0,0.0,0.0,0.0,0.0,1.869,0.0,0.0,0.0,1.8974,2.0055,2.1266,1.956,1.8037,1.7029,1.7324,1.7816,1.8466,1.8842,1.9161,1.9404,1.9063,1.8886,1.8846,1.8185,1.772,1.7442,0.0,0.0,0.0,1.778,1.721,1.5725,1.8203,1.8964,1.8748,2.0152,1.9967,1.8988,1.8988,1.8707,1.8266,1.7828,1.7055,1.6065,1.4813,1.3691,1.2582,1.1382,1.0891,1.0614,0.9851,0.9306,0.898,0.8988,0.865,0.0,0.8747,0.835,0.778,0.7452,0.6956,0.6475,0.5941,0.5061,0.4431,0.456,0.3932,0.3309,0.2961,0.2128,0.1231,0.0392,-0.0112,-0.056,-0.1009,-0.1623,-0.2125,-0.2404,-0.335,-0.4177,-0.4772,-0.5642,-0.6406,-0.7063,-0.7883,-0.8495,-0.8899,-0.9165,-0.9303,-0.9257,-0.9378,-0.9346,-0.9177,-0.9527,-0.9725,-0.9872,-1.0283,-1.0716,-1.1104,-1.1686,-1.2726,-1.397,-1.3924,-1.3986,-1.4141,-1.4953,-1.5248,-1.5376,0.0,0.0,0.0,0.0,0.0,0.0,0.0,0.0,0.0,2.0544,2.0627,2.0232,1.9311,1.9412,1.936,0.0,0.0,0.0,2.3041,2.0636,1.9542,2.0545,1.9543,1.895,1.8999,1.9847,2.0174,1.9951,1.9969,1.9814,1.9454,1.9412,1.8909,1.7996,0.0,0.0,1.7839,1.8591,1.8568,1.8203,1.9913,2.0448,2.0362,2.1616,2.1085,1.9705,2.007,1.9597,1.8792,1.8879,1.8123,1.704,1.6478,1.5393,1.407,1.2643,1.2086,1.1694,1.0527,0.9953,0.9625,0.9286,0.9021,0.0,0.0,0.9208,0.8862,0.8495,0.8019,0.7379,0.6588,0.5748,0.5127,0.5167,0.4457,0.389,0.368,0.2685,0.179,0.112,0.0448,-0.0112,-0.0449,-0.1008,-0.1568,-0.2071,-0.2794,-0.3458,-0.3953,-0.4553,-0.5261,-0.6136,-0.6681,-0.7385,-0.815,-0.8378,-0.8486,-0.8501,-0.8716,-0.8727,-0.8594,-0.9047,-0.9297,-0.9395,-0.9823,-1.0371,-1.1051,-1.1481,-1.2399,-1.3522,-1.3373,-1.3445,-1.3717,-1.42,-1.4488,-1.4776,2.0701,0.0,0.0,0.0,2.0565,0.0,0.0,0.0,2.0134,2.1254,2.1407,2.1053,2.0116,1.9955,1.9945,2.0015,2.0137,0.0,2.3839,2.1535,2.1138,2.3553,2.2035,2.0651,1.9649,2.1011,2.1423,2.0771,2.1094,2.0922,2.0279,2.0735,2.025,1.9027,1.9628,1.97,1.936,1.9554,2.0025,2.081,2.1735,2.1758,2.1375,2.2537,2.1878,2.0404,2.1049,2.0509,1.9572,1.9948,1.9086,1.7882,1.8104,1.7154,1.5602,1.4017,1.3424,1.285,1.1238,1.0695,1.0408,0.9609,0.9441,0.9563,0.0,0.0,0.0,0.9548,0.8833,0.8115,0.7379,0.6548,0.5892,0.5773,0.5148,0.4535,0.4171,0.3234,0.2348,0.1846,0.0896,0.0168,0.0,-0.0561,-0.1177,-0.1792,-0.2181,-0.2681,-0.3236,-0.3566,-0.4171,-0.5046,-0.537,-0.6027,-0.7025,-0.735,-0.7542,-0.7551,-0.793,-0.8106,-0.8062,-0.8561,-0.8814,-0.8895,-0.9355,-1.0132,-1.1006,-1.1209,-1.197,-1.2969,-1.3008,-1.3094,-1.3143,-1.3374,-1.3689,-1.41,2.1716,2.2241,0.0,0.0,2.3224,0.0,0.0,0.0,2.215,2.1493,2.1445,2.1119,2.0194,2.0227,2.0277,2.0108,2.1522,2.238,2.2287,2.3488,2.346,2.1797,2.2543,2.2304,2.0828,2.1514,2.2173,2.2769,2.1899,2.1769,2.2368,2.171,2.1197,2.0825,2.1188,2.0787,1.9901,2.1256,2.1563,2.1335,2.3471,2.3031,2.1183,2.2678,2.2205,2.0774,2.11,2.1142,2.095,2.0323,1.9276,1.824,1.8149,1.7612,1.6749,1.5286,1.4675,1.4019,1.2221,1.1579,1.1292,1.0857,1.0302,0.9904,1.0029,0.0,0.9167,0.9642,0.0,0.8355,0.8567,0.0,0.0,0.6333,0.5734,0.5157,0.4707,0.4119,0.3287,0.1958,0.1398,0.0839,0.0056,-0.0673,-0.1122,-0.1178,-0.1346,-0.1625,-0.1958,-0.2569,-0.3067,-0.3508,-0.4223,-0.4827,-0.5378,-0.6054,-0.6478,-0.6744,-0.7193,-0.7426,-0.7496,-0.787,-0.8111,-0.83,-0.8846,-0.9663,-1.0669,-1.052,-1.1261,-1.257,-1.2488,-1.2765,-1.3182,-1.3222,-1.3345,-1.3615,2.2485,2.3221,0.0,0.0,2.3767,0.0,0.0,0.0,2.231,2.0938,2.1201,2.1174,2.0312,2.0284,2.0313,2.0283,2.1467,2.242,2.2908,2.3519,0.0,2.3446,2.3931,2.3663,2.248,2.3161,2.3456,2.3325,2.3277,2.3174,2.3044,2.3033,2.2539,2.1711,2.2188,2.2428,2.2465,2.2515,2.2686,2.3038,2.3898,2.3451,2.2531,2.438,2.4223,2.2932,2.237,2.1802,2.1322,2.1349,2.0209,1.8841,1.9272,1.8383,1.6952,1.5712,1.5007,1.4317,1.2675,1.2718,1.3011,1.2029,1.1886,1.179,1.1227,1.0897,1.0631,1.0445,0.0,0.0,0.0,0.0,0.0,0.0,0.6455,0.5833,0.5479,0.4831,0.4009,0.2852,0.2069,0.1286,0.0615,0.0224,-0.0112,-0.0449,-0.0561,-0.0897,-0.1345,-0.1736,-0.2237,-0.2956,-0.3231,-0.3895,-0.4948,-0.5383,-0.5817,-0.618,-0.6707,-0.6943,-0.6907,-0.737,-0.7663,-0.778,-0.8308,-0.9139,-1.0092,-1.0197,-1.0867,-1.1864,-1.1811,-1.2277,-1.2946,-1.2744,-1.2888,-1.3234,2.3263,0.0,2.3634,2.3478,2.3984,2.4245,2.3752,2.3612,2.3045,2.1564,2.1887,2.1849,2.0791,2.0695,2.0623,2.0433,2.1266,2.2144,2.2967,2.3236,2.356,2.3953,2.4645,2.4486,2.3328,2.4289,2.4496,2.3875,2.4304,2.4188,0.0,0.0,0.0,0.0,2.3206,2.3875,2.463,2.386,2.4133,2.5093,2.4908,2.4656,2.4543,2.5576,2.5513,2.4736,2.38,2.2658,2.169,2.2269,2.1059,1.9501,2.0168,1.9258,1.7732,1.6664,1.6081,1.5421,1.3703,1.3946,1.435,1.298,1.2878,1.2886,1.2141,1.1885,1.1681,1.121,1.1201,0.0,0.0,0.0,0.8748,0.0,0.0,0.6722,0.6303,0.5601,0.4783,0.3799,0.2683,0.1733,0.1006,0.0894,0.0727,0.0224,0.0112,-0.0168,-0.0842,-0.0954,-0.1401,-0.2293,-0.2293,-0.2847,-0.4064,-0.4341,-0.4836,-0.5471,-0.5934,-0.6259,-0.6415,-0.6898,-0.7159,-0.7283,-0.7864,-0.8671,-0.9588,-0.9814,-1.0475,-1.1331,-1.1223,-1.1762,-1.252,-1.2287,-1.2496,-1.2851,2.4101,2.2796,2.2406,2.4062,2.4374,2.4631,2.5315,2.5471,2.5154,2.4206,2.4096,2.3487,2.1838,2.1699,2.1409,2.0575,2.1305,2.1725,2.1574,2.3139,2.3335,2.1685,2.3966,2.4505,2.2866,2.4259,2.4947,2.4864,2.4632,2.4487,0.0,0.0,0.0,0.0,2.4403,2.4903,2.5649,2.5412,2.6121,2.7378,2.7182,2.7148,2.7087,2.5468,2.5169,2.5526,2.5079,2.3818,2.2425,2.2702,2.1557,2.0116,2.0481,2.0227,1.9647,1.8838,1.856,1.7977,1.5733,1.5141,1.4863,1.3501,1.2731,1.2342,1.2378,1.1763,1.1312,1.1688,1.1377,1.0838,1.0174,0.9904,0.9411,0.0,0.0,0.0,0.0,0.6431,0.5719,0.4625,0.3289,0.2122,0.1174,0.095,0.0838,0.067,0.0782,0.0559,-0.0168,-0.0224,-0.0561,-0.1346,-0.1346,-0.1513,-0.1902,-0.251,-0.3335,-0.4365,-0.4711,-0.5314,-0.6099,-0.6334,-0.6619,-0.6955,-0.7544,-0.8385,-0.9324,-0.9197,-0.9899,-1.1065,-1.0831,-1.1208,-1.1953,-1.1978,-1.2161,-1.2497,2.3007,2.2718,2.2952,2.3903,2.4721,2.5598,2.6597,2.6062,2.5238,2.4388,2.423,2.3589,2.1947,2.2259,2.2279,2.1496,2.2185,2.2613,2.2492,2.4117,2.4538,2.3346,2.5131,2.5889,2.533,2.5179,2.538,2.5882,2.5232,2.4898,0.0,0.0,0.0,0.0,0.0,2.5455,2.6824,2.5963,2.643,2.7702,2.7211,2.7103,2.712,2.5715,2.5419,2.5603,2.4776,2.3701,2.2652,2.2571,2.1657,2.0648,2.1118,2.0702,1.9909,1.9345,1.8928,1.8361,1.6909,1.7236,1.751,1.5646,1.533,1.5066,1.3557,1.2962,1.277,1.2693,1.2324,1.185,1.1223,0.0,0.0,0.0,0.0,0.0,0.0,0.7753,0.6676,0.5382,0.4398,0.3514,0.2683,0.2571,0.2235,0.151,0.1454,0.123,0.0559,0.0168,-0.0168,-0.0449,-0.0898,-0.1233,-0.1398,-0.2178,-0.2905,-0.3644,-0.3915,-0.4364,-0.4843,-0.5296,-0.5729,-0.6229,-0.6905,-0.7702,-0.8523,-0.8868,-0.9574,-1.0498,-1.063,-1.1006,-1.156,-1.192,-1.231,-1.2628,2.3586,2.3762,2.3949,2.3669,2.4775,2.6085,2.7223,2.7054,2.6418,2.5386,2.5226,2.4564,2.2913,2.3198,2.317,2.2403,2.2806,2.3088,2.3046,2.4365,2.4744,2.3839,2.535,2.6204,2.6207,2.562,2.5705,2.6521,2.56,2.5172,2.5125,0.0,0.0,0.0,0.0,2.5737,2.7452,2.6481,2.699,2.8315,2.7398,2.71,2.7079,2.5665,2.5212,2.5299,2.4679,2.3705,2.2727,2.2787,2.2159,2.1477,2.1849,2.1511,2.087,2.0533,2.0202,1.9711,1.8562,1.8933,1.9186,1.7359,1.7022,1.6646,1.49,1.4271,1.3937,1.3656,1.3252,1.2862,1.2551,0.0,0.0,0.0,0.0,0.0,0.0,0.8456,0.7349,0.6347,0.545,0.4567,0.3685,0.3799,0.3463,0.2348,0.2458,0.2233,0.1398,0.0896,0.056,0.0448,-0.0112,-0.0504,-0.0726,-0.1283,-0.2041,-0.2911,-0.3066,-0.3369,-0.3875,-0.4294,-0.4695,-0.5164,-0.5919,-0.6809,-0.7659,-0.8171,-0.8964,-0.9888,-1.0146,-1.0506,-1.1015,-1.1769,-1.2274,-1.2676,2.572,2.5779,2.5323,2.3758,2.4756,2.6197,2.739,2.8395,2.8564,2.7277,2.7005,2.629,2.4598,2.4444,2.4098,2.3181,2.3146,2.315,2.3091,2.3901,2.4015,2.3203,2.4713,2.5565,2.5565,2.5557,2.594,2.6691,2.5801,2.5332,2.5269,0.0,0.0,0.0,2.4836,2.5755,2.7464,2.7006,2.777,2.9156,2.7803,2.7252,2.7078,2.5285,2.4611,2.4599,2.4764,2.3877,2.2712,2.326,2.3027,2.2535,2.2651,2.2616,2.2476,2.2341,2.2275,2.1956,2.0655,2.0194,1.9791,1.8579,1.7767,1.7086,1.6419,1.558,1.4887,1.4691,1.4169,1.3802,1.4084,1.2992,0.0,0.0,0.0,0.0,0.0,0.8626,0.7797,0.7419,0.638,0.5265,0.4161,0.4611,0.4457,0.3297,0.3738,0.3516,0.235,0.2017,0.1736,0.1342,0.1064,0.0728,0.0279,0.0112,-0.067,-0.2063,-0.1997,-0.2389,-0.3071,-0.3307,-0.3568,-0.3902,-0.4681,-0.5667,-0.6768,-0.7213,-0.8084,-0.9099,-0.9256,-0.9621,-1.0249,-1.1418,-1.2126,-1.248,2.6033,2.6735,2.7885,2.8682,2.7791,2.7631,2.962,2.8746,2.802,2.8502,2.7097,2.5619,2.4512,2.4985,2.4749,2.3235,2.3684,2.3788,2.3137,2.452,2.4952,2.41,2.5661,2.6525,2.6471,2.6417,2.6478,2.663,2.6381,2.6237,2.6145,0.0,0.0,0.0,0.0,2.5878,2.7479,2.7165,2.7809,2.8986,2.8081,2.7287,2.6495,2.527,2.4536,2.41,2.3762,2.3383,2.3038,2.2876,2.2757,2.2647,2.2693,2.2668,2.2624,2.2554,2.25,2.2368,2.1719,2.1524,2.118,1.9853,1.9403,1.8936,1.7661,1.7078,1.6766,1.6613,1.5894,1.5141,1.465,1.3394,1.2439,0.0,0.0,0.0,0.0,0.9826,0.9329,0.82,0.7437,0.6455,0.5035,0.5197,0.5164,0.4512,0.4724,0.4509,0.3569,0.3249,0.2687,0.1903,0.1455,0.1343,0.1621,0.1062,0.0559,0.0112,-0.0378,-0.0915,-0.1539,-0.217,-0.2702,-0.3185,-0.389,-0.4665,-0.542,-0.6122,-0.672,-0.732,-0.7806,-0.8389,-0.9169,-1.0846,-1.1728,-1.2076,2.8182,2.8729,2.957,3.0137,2.949,2.9326,3.0596,2.9713,2.8938,2.9088,2.7556,2.621,2.5598,2.5634,2.5297,2.4313,2.4698,2.4757,2.4262,2.5168,2.5484,2.4997,2.5874,2.6706,2.7446,2.7055,2.6972,2.7304,2.6914,2.6486,2.6015,0.0,0.0,0.0,0.0,2.5969,2.7552,2.7627,2.7792,2.7994,2.753,2.6783,0.0,2.4874,2.4293,2.3976,2.3671,2.3473,2.3371,2.3111,2.3052,2.31,2.3151,2.3188,2.3164,2.3074,2.2968,2.2833,2.2483,2.2298,2.1972,2.1114,2.0749,2.0268,1.8967,1.8448,1.8152,1.788,1.7125,1.6466,1.6277,1.4673,1.3123,0.0,0.0,0.0,1.1137,1.0623,0.9966,0.8941,0.827,0.7502,0.6651,0.6178,0.5878,0.5651,0.5643,0.5433,0.4889,0.4014,0.3406,0.3186,0.2536,0.2204,0.2291,0.1818,0.1432,0.1061,0.0487,0.0,-0.0382,-0.1188,-0.1766,-0.2131,-0.2775,-0.3444,-0.4165,-0.4929,-0.5638,-0.6293,-0.695,-0.754,-0.8171,-0.9273,-1.0159,-1.0931,3.0784,3.0726,3.0437,2.9803,3.0311,3.0761,3.0604,3.0527,3.0039,2.8807,2.793,2.7245,2.6873,2.6146,2.5652,2.5533,2.562,2.5654,2.554,2.5637,2.5699,2.5693,2.5703,2.6406,2.7926,2.7439,2.745,2.8037,2.7491,2.6784,0.0,0.0,0.0,0.0,0.0,2.613,2.7622,2.8185,2.7904,2.6989,2.6762,2.6185,2.5314,2.4368,2.4016,2.4016,2.3996,2.3894,2.3747,2.3649,2.3606,2.3624,2.3732,2.3753,2.3714,2.361,2.3445,2.3247,2.301,2.2721,2.2443,2.2198,2.1823,2.1269,2.0252,1.9736,1.9344,1.8886,1.817,1.7757,1.8266,1.6251,1.4063,1.2571,1.2303,1.2308,1.2474,1.1372,1.0362,0.9781,0.8989,0.0,0.8443,0.7353,0.6768,0.694,0.6712,0.645,0.6195,0.4838,0.4242,0.468,0.3968,0.3358,0.2879,0.2653,0.2273,0.1609,0.1084,0.0695,0.0478,-0.0257,-0.0723,-0.1066,-0.1595,-0.2214,-0.2936,-0.3671,-0.4556,-0.5588,-0.6249,-0.6789,-0.7165,-0.7171,-0.8013,-0.9162,3.0735,3.0307,2.9994,3.0563,3.0778,3.0543,2.9549,2.9022,2.8144,2.6504,2.6949,2.7025,2.6035,2.5781,2.541,2.4683,2.5297,2.5391,2.4661,2.5301,2.5694,2.5703,2.5703,2.5839,2.6152,2.7402,2.7767,2.7128,2.8355,2.8845,0.0,0.0,0.0,0.0,0.0,2.6669,2.758,2.832,2.8435,2.8053,2.736,2.6468,2.5468,2.4467,2.4078,2.4058,2.3958,2.3961,2.3999,2.3765,2.3656,2.357,2.3491,2.3459,2.3477,2.3437,2.341,2.3335,2.3109,2.3003,2.2893,2.2443,2.2293,2.2056,2.1434,2.1019,2.0719,2.044,1.9844,1.9211,1.8638,1.7066,1.5209,1.3174,1.3368,1.3676,1.355,1.2708,1.1816,1.1053,1.0039,0.9267,0.9061,0.8537,0.8351,0.8731,0.8444,0.7984,0.7267,0.6683,0.6151,0.5614,0.5416,0.5177,0.4737,0.425,0.3818,0.3425,0.2413,0.1804,0.154,0.0949,0.0106,-0.0852,-0.0745,-0.1122,-0.183,-0.2323,-0.3181,-0.4177,-0.4732,-0.5062,-0.5386,-0.55,-0.5991,-0.6848,3.0816,3.0563,3.0405,3.0836,3.0895,3.0405,2.8902,2.82,2.7634,2.7127,2.6732,2.6534,2.6578,2.6053,2.5527,2.5117,2.5464,2.5519,2.5094,2.5466,2.5702,2.5703,2.5702,2.5916,2.6361,2.7636,2.7847,2.6899,2.8571,2.8902,0.0,0.0,0.0,2.8599,0.0,2.7459,2.6939,2.778,2.7801,2.7207,2.6679,2.5939,2.5069,2.445,2.4154,2.4116,2.4154,2.4132,2.4083,2.3912,2.3828,2.3801,2.3732,2.3714,2.3714,2.3735,2.3671,2.35,2.3312,2.3182,2.302,2.2632,2.2487,2.2304,2.1953,2.1612,2.1275,2.0926,2.0563,1.9924,1.8629,1.6995,1.5594,1.4866,1.4468,1.4316,1.4656,1.4191,1.3499,1.2528,1.1837,1.126,1.075,1.053,1.0189,0.9688,0.9225,0.8751,0.8277,0.7643,0.6958,0.6209,0.5886,0.5624,0.5526,0.519,0.4881,0.4547,0.3326,0.2644,0.2401,0.1672,0.0937,0.0151,0.0201,-0.0051,-0.0571,-0.145,-0.2199,-0.2843,-0.368,-0.4181,-0.4349,-0.468,-0.5069,-0.5609,3.0896,3.0896,3.0896,3.0896,3.0759,3.0095,2.8533,2.7791,2.7477,2.7711,2.6556,2.6047,2.6945,2.6247,2.5702,2.5702,2.5703,2.5701,2.5701,2.5703,2.5703,2.5703,2.5703,2.6013,2.6708,2.7751,2.7928,2.7181,2.8863,2.8846,2.7295,0.0,0.0,2.9264,2.8963,2.8092,2.6899,2.7407,2.7162,2.6418,2.6032,2.5405,2.4676,2.4428,2.4266,2.4174,2.4338,2.4284,2.4135,2.4096,2.4096,2.4096,2.4075,2.4056,2.4056,2.4074,2.3917,2.3714,2.35,2.3335,2.3133,2.2816,2.2605,2.2443,2.2226,2.1924,2.1568,2.1197,2.0814,2.0139,1.8672,1.7157,1.619,1.6364,1.5621,1.5209,1.5727,1.5358,1.4737,1.3915,1.3314,1.2759,1.2283,1.2067,1.1565,1.0629,0.9923,0.9496,0.9347,0.8482,0.7741,0.7117,0.6565,0.6225,0.6143,0.5967,0.5727,0.5423,0.4296,0.3513,0.3053,0.244,0.1799,0.1142,0.109,0.0828,0.0357,-0.0676,-0.1236,-0.1504,-0.2563,-0.3065,-0.3289,-0.379,-0.4181,-0.4622,3.0898,3.0898,3.0898,3.0898,3.0254,2.9394,2.8457,2.7793,2.705,2.6071,2.5798,2.5738,2.5855,2.5759,2.57,2.57,2.5703,2.5702,2.5702,2.5697,2.5696,2.5703,2.5703,2.5742,2.5816,2.7457,2.8223,2.8073,2.9764,3.0088,2.9156,2.9984,2.9951,2.9166,2.8315,2.823,2.869,2.8001,2.7527,2.7224,2.646,2.5578,2.4692,2.4476,2.4372,2.4373,2.4321,2.4303,2.4284,2.4338,2.4408,2.4426,2.4303,2.4266,2.4229,2.4056,2.3996,2.3917,2.3649,2.3584,2.345,2.2985,2.2868,2.279,2.2525,2.2175,2.1853,2.184,2.0805,1.9704,1.9113,1.8583,1.7803,1.6526,1.6905,1.7196,1.6744,1.5668,1.5,1.5212,1.3414,1.2311,1.2605,1.194,1.1634,1.1974,1.1175,1.06,1.0446,0.9917,0.934,0.8817,0.8587,0.8105,0.728,0.6945,0.6607,0.6196,0.5499,0.4521,0.3271,0.3582,0.2968,0.1709,0.1756,0.1386,0.0632,0.0255,0.0,-0.0223,-0.078,-0.1113,-0.1447,-0.2062,-0.2679,-0.3294,3.0832,3.0877,3.0742,3.0215,2.9824,2.9121,2.7734,2.7305,2.6816,2.5839,2.5702,2.5702,2.5702,2.5701,2.57,2.57,2.5702,2.5703,2.5703,2.5703,2.5703,2.5703,2.5703,2.5703,2.57,2.6894,2.7498,2.7412,2.8608,2.9028,2.871,2.9499,2.9659,2.9231,2.8868,2.8818,2.9001,2.8121,2.7695,2.745,2.6045,2.5259,2.4942,2.4814,2.4682,2.4594,2.4639,2.4594,2.4479,2.4561,2.451,2.4425,2.4373,2.4284,2.4173,2.4135,2.4037,2.3896,2.3671,2.3588,2.354,2.3223,2.2873,2.2608,2.273,2.247,2.2089,2.1691,2.0815,2.0055,1.9857,1.908,1.849,1.8517,1.8382,1.8229,1.803,1.7744,1.7339,1.6862,1.569,1.4803,1.4545,1.3906,1.3226,1.26,1.2049,1.1506,1.1116,1.0906,1.0477,0.9885,0.9341,0.8835,0.8365,0.7888,0.7408,0.6855,0.625,0.5471,0.4596,0.4398,0.4062,0.3591,0.3447,0.3159,0.2693,0.1924,0.1387,0.1006,0.0056,-0.0335,-0.0502,-0.1226,-0.1671,-0.195,3.0799,3.0639,3.0292,2.9707,2.918,2.8418,2.7187,2.6777,2.6406,2.5781,2.5703,2.5703,2.5703,2.5702,2.5702,2.5702,2.5702,2.5702,2.5702,2.5702,2.5702,2.5702,2.5703,2.5703,2.5702,2.6543,2.697,2.6929,2.7776,2.8073,2.7835,2.8403,2.8888,2.9295,2.9306,2.9236,2.906,2.8211,2.7623,2.7186,2.5647,2.5024,2.5043,2.4994,2.4847,2.4704,2.4832,2.4764,2.4615,2.4676,2.461,2.4493,2.4459,2.4355,2.4248,2.4248,2.4116,2.3919,2.3816,2.3714,2.3624,2.3465,2.3069,2.2726,2.2816,2.2632,2.2293,2.1738,2.0911,2.036,2.0548,1.9636,1.9042,1.9615,1.9501,1.9258,1.8957,1.9008,1.8701,1.7752,1.6718,1.6005,1.5776,1.5089,1.4415,1.3828,1.3409,1.273,1.178,1.2034,1.1887,1.108,1.0283,0.9762,0.9555,0.8837,0.8229,0.765,0.6983,0.634,0.5673,0.499,0.4688,0.4779,0.46,0.4461,0.4268,0.3522,0.2969,0.2512,0.1672,0.1115,0.0781,0.0223,-0.0223,-0.0613,3.0796,3.0103,2.9525,2.959,2.8182,2.7028,2.7009,2.6266,2.572,2.57,2.57,2.5702,2.5703,2.5703,2.5703,2.5703,2.5703,2.5703,2.5703,2.5703,2.5703,2.5703,2.5703,2.5703,2.5703,2.6543,2.6992,2.6992,2.7819,2.7766,2.693,2.6937,2.777,2.9299,2.9298,2.9255,2.9145,2.8266,2.7324,2.6345,2.5447,2.5012,2.4902,2.4902,2.4823,2.4723,2.4794,2.4719,2.4615,2.4676,2.4707,2.4692,2.4631,2.4599,2.4564,2.4442,2.4247,2.4097,2.419,2.3996,2.3807,2.3791,2.3588,2.3277,2.2816,2.2596,2.2432,2.2225,2.1193,2.0497,2.1178,2.0353,1.9451,1.9081,2.0063,2.0477,1.9333,1.8793,1.8267,1.7568,1.569,1.4824,1.5782,1.4768,1.4622,1.6052,1.5522,1.4417,1.2675,1.3583,1.37,1.2589,1.1904,1.1299,1.078,0.9703,0.9043,0.8764,0.7905,0.7054,0.618,0.5223,0.4783,0.4797,0.4779,0.4784,0.482,0.4845,0.4698,0.446,0.446,0.3793,0.285,0.2681,0.19,0.0785,2.8953,2.8803,2.8493,2.7929,2.7363,2.6794,2.6208,2.5876,2.57,2.57,2.57,2.57,2.5702,2.5703,2.5703,2.5703,2.5703,2.5703,2.5703,2.5703,2.5703,2.5703,2.5703,2.5703,2.5703,2.5976,2.6406,2.6992,2.6655,2.6652,2.6965,2.6366,2.6961,2.8554,2.8508,2.8446,2.8367,2.8037,2.7369,2.6453,2.5589,2.5222,2.516,2.516,2.5091,2.4981,2.4987,2.4955,2.4771,2.4095,2.3907,2.3936,2.3821,2.4099,2.4459,2.4407,2.4247,2.4116,2.4135,2.3943,2.3726,2.3738,2.3459,2.3183,2.3126,2.2624,2.2073,2.1781,2.1222,2.0845,2.107,2.0573,2.0169,2.0269,2.062,2.0552,1.9798,1.9786,1.9546,1.8701,1.7688,1.7147,1.7396,1.6689,1.6248,1.6181,1.6696,1.6243,1.4453,1.4342,1.4161,1.37,1.2842,1.2141,1.1499,1.0788,0.9964,0.9086,0.8685,0.7941,0.6853,0.6396,0.6174,0.6252,0.6444,0.6273,0.59,0.5815,0.5337,0.4622,0.4515,0.4294,0.3959,0.3458,0.3178,0.2954,2.8096,2.7917,2.76,2.7061,2.6718,2.6327,2.578,2.5699,2.5697,2.5697,2.5697,2.5697,2.5697,2.5699,2.5701,2.5702,2.5702,2.5703,2.5703,2.5703,2.5703,2.5703,2.5703,2.5703,2.5703,2.5702,2.5975,2.6502,2.5973,2.5971,2.6499,2.5948,2.642,2.7714,2.7668,2.7595,2.7514,2.747,2.692,2.6063,2.5514,2.512,2.4889,2.5168,2.4839,2.4205,2.45,2.4364,2.3923,2.3267,2.3263,2.3507,2.3442,2.3875,2.4444,2.4493,2.4355,2.4229,2.4266,2.404,2.3767,2.3767,2.353,2.3289,2.3223,2.266,2.2084,2.1882,2.1477,2.1197,2.1197,2.0942,2.0828,2.1055,2.1135,2.0895,2.0106,2.0108,1.9749,1.859,1.7996,1.7744,1.7876,1.7514,1.7223,1.7167,1.76,1.7383,1.623,1.5674,1.517,1.4703,1.3857,1.3215,1.2831,1.1837,1.0879,0.9885,0.9067,0.8348,0.7738,0.7507,0.7485,0.7631,0.7623,0.7424,0.7045,0.6714,0.6209,0.55,0.5226,0.4956,0.4684,0.4291,0.4122,0.3953,2.7949,2.7328,2.6805,2.6805,2.6185,2.5683,2.5683,2.5699,2.5709,2.5709,2.5707,2.5707,2.5707,2.5691,2.5696,2.5699,2.57,2.57,2.57,2.57,2.57,2.57,2.57,2.57,2.57,2.57,2.5699,2.5699,2.5696,2.5693,2.5693,2.5709,2.6105,2.6817,2.6883,2.6804,2.6621,2.6671,2.6148,2.5313,2.5303,2.4803,2.4159,2.4918,2.4129,2.2705,2.3446,2.3156,2.2413,2.2338,2.2768,2.3345,2.3401,2.387,2.4459,2.4626,2.4543,2.4444,2.4555,2.4266,2.3899,2.3917,2.3725,2.3494,2.3168,2.2747,2.2426,2.2426,2.1969,2.1554,2.1554,2.1462,2.1386,2.1417,2.1601,2.1384,2.0337,1.9891,1.9137,1.7706,1.7156,1.7093,1.7599,1.7418,1.772,1.863,1.8176,1.7842,1.7787,1.7318,1.6598,1.5582,1.4915,1.4547,1.4501,1.2938,1.1817,1.1053,0.9199,0.8453,0.8671,0.8526,0.8618,0.8825,0.8441,0.8283,0.8252,0.7635,0.7203,0.6928,0.6431,0.5832,0.5179,0.5183,0.4732,0.4171,2.6332,2.6038,2.5913,2.5905,2.5757,2.5616,2.5616,2.5663,2.5702,2.5702,2.5696,2.5707,2.5707,2.5707,2.5709,2.5691,2.5697,2.57,2.57,2.57,2.57,2.57,2.57,2.57,2.57,2.5697,2.5694,2.5691,2.5709,2.5709,2.5709,2.5707,2.5802,2.601,2.6623,2.6519,2.5892,2.6413,2.6146,2.5367,2.5254,2.4734,2.4034,2.4245,2.363,2.27,2.2881,2.2833,2.2601,2.2486,2.2562,2.2823,2.3391,2.3591,2.3774,2.4362,2.4515,2.4481,2.4518,2.4284,2.4023,2.3868,2.3606,2.3289,2.302,2.285,2.2747,2.2651,2.232,2.2022,2.2022,2.1645,2.1402,2.1587,2.1464,2.1003,2.0032,2.0305,2.0144,1.8923,1.8897,1.9022,1.9024,1.8668,1.8489,1.8711,1.8508,1.8233,1.7814,1.7765,1.7257,1.6163,1.5534,1.5006,1.4501,1.419,1.3382,1.2031,1.0383,0.9587,0.9678,0.9306,0.9189,0.9279,0.9257,0.9195,0.9047,0.8547,0.7984,0.7439,0.6923,0.6544,0.6268,0.5791,0.5837,0.5987,2.5776,2.5921,2.6077,2.5668,2.5605,2.5593,2.5593,2.5633,2.5641,2.5641,2.5683,2.5698,2.5698,2.5693,2.5707,2.5707,2.5693,2.5696,2.5696,2.5696,2.5696,2.5696,2.5696,2.5696,2.5696,2.5693,2.5709,2.5707,2.5707,2.5707,2.5707,2.5707,2.5707,2.5726,2.6158,2.6061,2.5628,2.599,2.5873,2.5441,2.5331,2.4793,2.4043,2.4015,2.3228,2.2144,2.2115,2.1866,2.1598,2.1894,2.2223,2.2635,2.3442,2.3813,2.4033,2.4435,2.4517,2.4447,2.4411,2.4248,2.404,2.3741,2.3427,2.3168,2.3003,2.2893,2.279,2.2721,2.2463,2.2215,2.2084,2.1794,2.1587,2.1634,2.1511,2.0953,1.9617,2.008,2.0115,1.8918,1.9229,1.9556,1.9485,1.9221,1.9011,1.8889,1.8784,1.8613,1.8333,1.8222,1.771,1.6765,1.6367,1.592,1.5344,1.471,1.3881,1.2736,1.1694,1.1233,1.1277,1.0801,1.0609,1.0639,1.025,0.9984,0.9829,0.9204,0.8778,0.8448,0.7919,0.7599,0.7385,0.7069,0.7074,0.7182,2.6145,2.6572,2.6844,2.6112,2.5999,2.5948,2.5816,2.5807,2.5765,2.5629,2.5661,2.5703,2.5703,2.5699,2.5691,2.5691,2.5691,2.5709,2.5707,2.5707,2.5707,2.5707,2.5707,2.5707,2.5707,2.5707,2.5707,2.5707,2.5707,2.5707,2.5707,2.5707,2.5705,2.5705,2.5705,2.5671,2.5613,2.5585,2.5546,2.5479,2.5437,2.4874,2.4077,2.4024,2.3036,2.1665,2.1598,2.1072,2.0525,2.1455,2.2026,2.2513,2.3503,2.4039,2.4308,2.442,2.4362,2.4227,2.4284,2.4209,2.3996,2.3598,2.3319,2.3119,2.3095,2.2876,2.2738,2.2764,2.2542,2.2293,2.2073,2.1986,2.1886,2.1664,2.1552,2.0874,1.9251,1.9672,1.9713,1.8561,1.9123,1.9641,1.9651,1.9551,1.9384,1.9176,1.8988,1.8898,1.8898,1.8553,1.8042,1.7406,1.7173,1.6782,1.6312,1.4998,1.4005,1.3427,1.2988,1.2824,1.2919,1.2414,1.2282,1.2316,1.1334,1.0846,1.0643,0.9925,0.9614,0.9458,0.9013,0.8639,0.8435,0.8383,0.8231,0.7978,2.7887,2.7809,2.788,2.7818,2.7809,2.7551,2.6809,2.6746,2.6527,2.5785,2.5681,2.5703,2.5701,2.5703,2.5703,2.5703,2.5701,2.5696,2.5707,2.5707,2.5707,2.5707,2.5707,2.5707,2.5707,2.5707,2.5707,2.5707,2.5703,2.5703,2.5707,2.5703,2.5701,2.5701,2.5701,2.5696,2.5681,2.5556,2.5502,2.5485,2.5425,2.4836,2.4023,2.4005,2.3352,2.242,2.242,2.1904,2.1455,2.2993,2.2658,2.1826,2.3395,2.3389,2.2962,2.3638,2.3618,2.3518,2.4136,2.4209,2.3996,2.3606,2.3376,2.3217,2.2977,2.2893,2.2893,2.3003,2.2816,2.2632,2.2588,2.2388,2.2135,2.1827,2.1238,2.0459,1.9329,1.979,1.9954,1.9154,1.9971,2.0503,2.0376,1.998,1.9645,1.9457,1.9124,1.8898,1.8898,1.862,1.8439,1.8307,1.757,1.6934,1.6466,1.5636,1.4969,1.4449,1.3879,1.3564,1.346,1.326,1.3205,1.317,1.2667,1.2267,1.1864,1.1065,1.0466,1.0012,0.9503,0.919,0.9013,0.8738,0.8646,0.8613,2.7626,2.8209,2.8727,2.8272,2.8199,2.7911,2.7028,2.6926,2.6624,2.5762,2.5689,2.5698,2.5694,2.5702,2.5703,2.5703,2.5701,2.5696,2.5691,2.5705,2.5703,2.5703,2.5701,2.5698,2.5698,2.5698,2.5698,2.5698,2.5696,2.5696,2.5698,2.5696,2.5693,2.5693,2.5693,2.571,2.5701,2.5636,2.56,2.5591,2.5505,2.5178,2.4692,2.4186,2.3429,2.2543,2.2104,2.1397,2.0881,2.2123,2.2038,2.1617,2.2821,2.2848,2.2514,2.2893,2.3408,2.3908,2.4174,2.4095,2.3896,2.3714,2.344,2.3168,2.3045,2.2893,2.2816,2.2868,2.279,2.2659,2.2569,2.2432,2.2237,2.1797,2.1558,2.1076,2.0094,2.0693,2.0874,1.9906,2.0569,2.0909,2.0342,2.01,1.9874,1.9696,1.9479,1.9332,1.9176,1.904,1.8865,1.8517,1.7841,1.7352,1.706,1.6256,1.5688,1.5277,1.4823,1.4547,1.4408,1.4082,1.3894,1.38,1.316,1.2764,1.2463,1.199,1.1642,1.1392,1.115,1.0787,1.0423,1.0485,1.0143,0.9673,2.7926,2.8885,2.9591,2.8922,2.8809,2.8517,2.7667,2.7355,2.6906,2.6045,2.5793,2.5707,2.5703,2.5698,2.5702,2.5702,2.5703,2.5699,2.5697,2.5691,2.5705,2.5698,2.5693,2.571,2.571,2.571,2.571,2.571,2.5707,2.5707,2.571,2.5707,2.5707,2.5707,2.5707,2.5701,2.571,2.571,2.5707,2.5695,2.56,2.5505,2.5333,2.4621,2.3889,2.3158,2.2537,2.1618,2.0805,2.1683,2.1598,2.1235,2.2066,2.225,2.2197,2.2386,2.3418,2.4442,2.4284,2.4075,2.3876,2.3816,2.3535,2.323,2.3126,2.2944,2.279,2.2712,2.2712,2.2659,2.2515,2.246,2.2332,2.1903,2.1824,2.1546,2.0742,2.1254,2.1358,2.0391,2.0947,2.1055,2.0273,2.0204,2.01,1.9945,1.9823,1.966,1.9413,1.9413,1.9116,1.8542,1.8095,1.776,1.7516,1.6837,1.6324,1.5913,1.5647,1.5468,1.5334,1.488,1.4593,1.4398,1.3637,1.316,1.2909,1.2706,1.2569,1.248,1.248,1.2175,1.1769,1.199,1.1543,1.0769,3.0502,3.0624,3.0672,3.0618,3.0602,3.0333,2.953,2.8711,2.7871,2.7013,2.6195,2.5703,2.5693,2.5703,2.5709,2.5709,2.5698,2.5702,2.5703,2.5703,2.5697,2.5693,2.571,2.571,2.571,2.571,2.571,2.571,2.5701,2.5701,2.571,2.5697,2.5694,2.5694,2.5694,2.571,2.5699,2.5699,2.5699,2.5699,2.5695,2.5605,2.5492,2.5414,2.5267,2.5081,2.5024,2.3899,2.2543,2.3422,2.2161,2.0346,2.1216,2.1473,2.1616,2.238,2.3581,2.4626,2.4442,2.4266,2.4113,2.3858,2.3774,2.3624,2.3199,2.3077,2.2995,2.2764,2.2712,2.2685,2.2685,2.2685,2.2579,2.2287,2.1695,2.114,2.0761,2.0766,2.0652,2.0251,2.0855,2.1087,2.0512,2.046,2.0426,2.0254,1.998,1.966,1.9413,1.9413,1.9139,1.8592,1.8333,1.7935,1.7516,1.7269,1.685,1.6269,1.6238,1.6207,1.6113,1.5691,1.54,1.5175,1.4547,1.3941,1.3314,1.3064,1.2793,1.248,1.248,1.248,1.2421,1.2323,1.2076,1.1778,2.9983,3.0435,3.0794,3.0791,3.0794,3.0348,2.9006,2.8518,2.7795,2.6371,2.5902,2.5705,2.5701,2.5705,2.5707,2.5707,2.5698,2.5702,2.5703,2.5703,2.5697,2.5696,2.5701,2.5691,2.5691,2.5691,2.5691,2.5691,2.5707,2.5707,2.5691,2.5707,2.5703,2.5703,2.5703,2.5703,2.5699,2.5699,2.5699,2.5699,2.5699,2.5625,2.5499,2.5498,2.5108,2.4543,2.4505,2.3707,2.2698,2.2958,2.2059,2.0908,2.1223,2.1329,2.1491,2.2352,2.3215,2.387,2.3808,2.4003,2.417,2.4074,2.3917,2.3753,2.3535,2.3382,2.3194,2.2876,2.2868,2.2816,2.2605,2.2596,2.2497,2.2226,2.2078,2.1891,2.1608,2.1709,2.1698,2.1292,2.151,2.1417,2.0761,2.0695,2.0595,2.0304,2.0185,1.996,1.966,1.9406,1.9161,1.8898,1.8669,1.824,1.7516,1.7214,1.6921,1.6539,1.6337,1.6219,1.6188,1.6057,1.5913,1.5724,1.5322,1.4994,1.4674,1.4387,1.4071,1.3668,1.3668,1.3324,1.2842,1.3035,1.2706,1.2175,2.9907,3.0398,3.081,3.0799,3.0801,3.0411,2.9259,2.8869,2.8186,2.6702,2.6527,2.6312,2.5765,2.5941,2.6,2.5726,2.5696,2.57,2.57,2.5703,2.57,2.5709,2.5707,2.5694,2.5694,2.5703,2.5699,2.5699,2.5699,2.5699,2.5699,2.5699,2.5699,2.5699,2.5699,2.5699,2.5699,2.5699,2.5699,2.5699,2.5671,2.56,2.5531,2.5537,2.5103,2.4493,2.4437,2.3842,2.3071,2.2955,2.2369,2.1676,2.1687,2.1698,2.1918,2.3065,2.3423,2.3535,2.3779,2.4033,2.4228,2.417,2.4016,2.3816,2.3692,2.3566,2.3387,2.3102,2.307,2.2995,2.2685,2.2649,2.2535,2.2243,2.2343,2.2388,2.2186,2.2332,2.2304,2.1899,2.1869,2.1615,2.1007,2.0844,2.0695,2.046,2.0373,2.0185,1.9909,1.9163,1.8869,1.9109,1.8659,1.8201,1.7828,1.7449,1.7131,1.685,1.6607,1.6491,1.6491,1.6405,1.625,1.602,1.5712,1.5501,1.5379,1.5198,1.4926,1.4605,1.4605,1.4222,1.3684,1.3931,1.3647,1.3122,3.0799,3.0801,3.0801,3.0801,3.0801,3.0801,3.0782,3.0118,2.9298,2.8401,2.8303,2.7639,2.5902,2.6488,2.6665,2.5805,2.5707,2.5707,2.5707,2.5699,2.5703,2.57,2.5709,2.5698,2.5698,2.5694,2.5699,2.5699,2.5699,2.5699,2.5699,2.5699,2.5699,2.5699,2.5699,2.5699,2.5699,2.5699,2.5699,2.5695,2.5639,2.561,2.5605,2.5593,2.5518,2.5387,2.532,2.4687,2.3902,2.3843,2.3225,2.2509,2.2509,2.2559,2.2932,2.4607,2.4384,2.3771,2.4577,2.4543,2.4266,2.4133,2.4054,2.3917,2.3671,2.3588,2.354,2.3342,2.3289,2.3217,2.2944,2.2893,2.279,2.246,2.2405,2.2394,2.231,2.231,2.218,2.1857,2.1781,2.1661,2.1339,2.1007,2.0794,2.0794,2.0494,2.022,2.0085,1.8643,1.8237,1.9177,1.8104,1.7829,1.8486,1.8028,1.7598,1.7199,1.7199,1.7199,1.7199,1.685,1.6484,1.6114,1.5744,1.5412,1.5108,1.5108,1.5108,1.5108,1.5108,1.5108,1.5062,1.4949,1.4903,1.4858,3.0799,3.0801,3.0801,3.0801,3.0801,3.0606,3.004,2.9747,2.9298,2.8401,2.8303,2.8108,2.7581,2.7756,2.7815,2.7542,2.6976,2.6351,2.5746,2.5691,2.5696,2.5698,2.5702,2.5696,2.5696,2.5693,2.5709,2.5709,2.5698,2.571,2.571,2.571,2.5699,2.5699,2.5699,2.5699,2.5699,2.5699,2.5671,2.5639,2.561,2.5565,2.5531,2.5576,2.5557,2.5464,2.5393,2.5148,2.486,2.4748,2.4136,2.34,2.3403,2.3422,2.3541,2.4036,2.4308,2.4356,2.4054,2.4195,2.4409,2.4266,2.4114,2.3976,2.3837,2.3855,2.3792,2.3504,2.3422,2.3359,2.3109,2.2876,2.2738,2.2649,2.246,2.2338,2.231,2.231,2.2254,2.2152,2.2152,2.202,2.1691,2.157,2.1401,2.1182,2.0321,1.9431,1.8609,1.8134,1.797,1.8149,1.7802,1.785,1.82,1.825,1.8226,1.8108,1.8108,1.8108,1.8108,1.8028,1.7693,1.7242,1.7118,1.6752,1.6231,1.6231,1.5988,1.5579,1.5579,1.5412,1.5108,1.5062,1.496,1.4903,3.0801,3.0801,3.0801,3.0801,3.0801,3.0645,3.0157,3.0079,2.9767,2.8928,2.9084,2.9045,2.8362,2.8615,2.8674,2.8323,2.76,2.6743,2.5765,2.5707,2.5707,2.5707,2.57,2.5703,2.5703,2.5701,2.57,2.57,2.5694,2.5707,2.5698,2.5704,2.5691,2.5699,2.5699,2.5695,2.5667,2.5667,2.5634,2.5609,2.556,2.5531,2.5499,2.5557,2.5529,2.5484,2.5393,2.5359,2.5361,2.5198,2.4774,2.4307,2.4284,2.4043,2.3828,2.417,2.4314,2.4322,2.419,2.4362,2.4561,2.4479,2.4248,2.4018,2.3896,2.3896,2.3855,2.3664,2.3624,2.354,2.3307,2.3133,2.2952,2.2738,2.2552,2.2405,2.231,2.231,2.231,2.231,2.231,2.2209,2.202,2.1886,2.1661,2.1276,2.0544,1.9688,1.8717,1.8361,1.816,1.8051,1.7792,1.788,1.8283,1.8752,1.8796,1.85,1.85,1.85,1.85,1.85,1.8305,1.7948,1.7948,1.7666,1.7256,1.724,1.6879,1.6429,1.6557,1.6312,1.5932,1.5932,1.5888,1.5788,3.0801,3.0801,3.0801,3.0801,3.0801,3.0801,3.0801,3.0801,3.0548,2.9806,3.0353,3.0216,2.8693,2.922,2.9396,2.8596,2.7874,2.6978,2.5785,2.5707,2.5707,2.5707,2.5707,2.5694,2.5702,2.5703,2.5702,2.5702,2.5701,2.5697,2.5703,2.5703,2.569,2.5707,2.5683,2.5652,2.5591,2.5605,2.5609,2.5595,2.5525,2.5492,2.5505,2.5507,2.5511,2.5484,2.5367,2.5407,2.5475,2.5292,2.5168,2.5101,2.5031,2.446,2.3986,2.4782,2.4428,2.3992,2.4769,2.4861,2.4723,2.4707,2.4425,2.4097,2.3878,2.3816,2.3795,2.3795,2.3795,2.3732,2.3553,2.3526,2.3324,2.285,2.2738,2.2605,2.2366,2.231,2.231,2.231,2.231,2.231,2.2282,2.202,2.1628,2.1164,2.0959,2.0496,1.9654,1.8975,1.8553,1.843,1.7893,1.7924,1.8588,1.9326,1.9333,1.8569,1.8626,1.8655,1.8616,1.8616,1.85,1.8383,1.8344,1.8252,1.8106,1.8014,1.7733,1.7394,1.7666,1.7598,1.724,1.724,1.724,1.7199,3.0801,3.0801,3.0801,3.0801,3.0801,3.0801,3.0801,3.0801,3.0743,3.0567,3.0684,3.0665,3.0294,3.0431,3.047,3.0274,2.8947,2.7425,2.5805,2.5707,2.5707,2.5707,2.5707,2.5709,2.5693,2.5694,2.5696,2.5696,2.5702,2.5703,2.5703,2.57,2.5694,2.5705,2.5642,2.5605,2.5593,2.559,2.5576,2.5525,2.5518,2.5498,2.5499,2.5492,2.5511,2.5511,2.5476,2.5468,2.5479,2.5456,2.5321,2.5168,2.5113,2.4943,2.4816,2.4966,2.4877,2.4763,2.4953,2.4964,2.4908,2.4738,2.4626,2.4476,2.4135,2.3901,2.3795,2.3795,2.3795,2.3795,2.3732,2.3598,2.3458,2.3365,2.2977,2.2685,2.2605,2.2432,2.231,2.231,2.231,2.2282,2.2242,2.2061,2.1574,2.0646,2.0538,1.9838,1.8226,1.7991,1.7646,1.7054,1.7456,1.801,1.8663,1.9404,1.9513,1.897,1.9567,1.9681,1.9457,1.9457,1.9236,1.8898,1.8831,1.8511,1.8106,1.8014,1.7868,1.7707,1.7787,1.776,1.7679,1.7679,1.7679,1.7679,3.0801,3.0801,3.0801,3.0801,3.0801,3.0801,3.0801,3.0801,3.0801,3.0801,3.0801,3.0645,3.0274,3.0567,3.0489,2.9689,2.8537,2.7249,2.5805,2.5707,2.5707,2.5707,2.5707,2.5707,2.5707,2.5707,2.5707,2.5707,2.5694,2.57,2.5703,2.5703,2.57,2.5691,2.5659,2.5639,2.5604,2.5595,2.557,2.5503,2.5503,2.5488,2.5511,2.5511,2.5511,2.5511,2.5511,2.5511,2.5503,2.5502,2.539,2.5244,2.5206,2.5149,2.5101,2.507,2.5018,2.501,2.501,2.501,2.4869,2.4351,2.4151,2.4105,2.4209,2.4079,2.3941,2.3941,2.3878,2.3795,2.3795,2.371,2.362,2.3526,2.3253,2.3052,2.291,2.2659,2.2487,2.2487,2.2394,2.2282,2.2214,2.2032,2.1716,2.116,2.1085,2.0504,1.9195,1.913,1.8794,1.8044,1.8394,1.8767,1.9143,1.9868,2.0028,1.9626,2.0202,2.0395,2.0239,2.0239,2.01,1.9788,1.9737,1.9434,1.9006,1.8893,1.8588,1.8187,1.8344,1.8305,1.8108,1.8108,1.7988,1.7787,3.0801,3.0801,3.0801,3.0801,3.0801,3.0801,3.0801,3.0801,3.0801,3.0801,3.0801,3.0548,2.9884,3.0392,3.0196,2.8654,2.8069,2.719,2.5785,2.5844,2.5863,2.5707,2.5707,2.5707,2.5707,2.5707,2.5707,2.5709,2.5709,2.5696,2.5703,2.5703,2.5702,2.5693,2.5709,2.5668,2.5595,2.5586,2.555,2.5511,2.5511,2.5511,2.5511,2.5511,2.5511,2.5511,2.5511,2.5511,2.5503,2.5492,2.5436,2.5321,2.5302,2.5217,2.5106,2.5094,2.5038,2.501,2.501,2.501,2.4801,2.3916,2.369,2.3772,2.419,2.408,2.3895,2.3895,2.383,2.3795,2.3795,2.3795,2.3753,2.3576,2.3508,2.3417,2.3206,2.2927,2.2764,2.2764,2.247,2.2265,2.2168,2.1974,2.1882,2.1882,2.184,2.1466,2.0721,2.0716,2.0356,1.9617,1.9717,1.9783,1.9783,2.0522,2.0706,2.03,2.0734,2.0909,2.0794,2.0794,2.0712,2.0597,2.0597,2.041,2.0061,1.9909,1.95,1.8921,1.9199,1.9072,1.8793,1.8793,1.8454,1.8034,3.0801,3.0801,3.0801,3.0801,3.0801,3.0801,3.0801,3.0801,3.0801,3.0801,3.0801,3.0762,3.0645,3.0723,3.0431,2.9494,2.9357,2.8283,2.5863,2.641,2.6488,2.5726,2.5707,2.5707,2.5707,2.5707,2.5709,2.5693,2.5693,2.5696,2.5701,2.5701,2.5702,2.5703,2.5698,2.5659,2.5593,2.5532,2.5506,2.5511,2.5511,2.5511,2.5511,2.5511,2.5511,2.5511,2.5511,2.5511,2.5511,2.5503,2.5495,2.5448,2.534,2.5244,2.5179,2.5118,2.5038,2.501,2.501,2.501,2.4801,2.3916,2.4244,2.4609,2.3939,2.3414,2.3051,2.3051,2.3446,2.3795,2.3795,2.3795,2.3795,2.3753,2.362,2.3481,2.3458,2.3175,2.297,2.297,2.2615,2.226,2.1957,2.1869,2.1811,2.1811,2.1827,2.1466,2.0721,2.0716,2.0356,1.9617,2.0224,2.0539,2.0539,2.1267,2.1317,2.0631,2.1345,2.1355,2.0794,2.0794,2.0712,2.0597,2.0548,2.0462,2.0342,2.0189,2.007,2.0,2.0035,2.0035,1.9949,1.9949,1.9565,1.9034,3.0801,3.0801,3.0801,3.0801,3.0801,3.0801,3.0801,3.0801,3.0801,3.0801,3.0801,3.0626,3.0177,3.0138,2.9982,2.963,2.9593,2.8695,2.657,2.6786,2.6609,2.575,2.5691,2.5709,2.5707,2.5709,2.5693,2.5698,2.5694,2.5697,2.5702,2.5702,2.5702,2.5703,2.5703,2.5675,2.5648,2.557,2.5554,2.555,2.5526,2.5511,2.5511,2.5511,2.5511,2.5511,2.5511,2.5511,2.5511,2.5511,2.5511,2.5484,2.544,2.534,2.5244,2.5179,2.5106,2.5057,2.5023,2.501,2.4801,2.3916,2.3992,2.4049,2.3215,2.3116,2.3279,2.3656,2.3859,2.3921,2.3816,2.3795,2.3795,2.3795,2.371,2.3664,2.3678,2.3412,2.3151,2.297,2.2747,2.2561,2.2409,2.2337,2.2309,2.2309,2.2309,2.2173,2.1834,2.1817,2.1664,2.1341,2.1647,2.1735,2.1552,2.1859,2.1773,2.1301,2.1632,2.1417,2.077,2.116,2.1293,2.1151,2.1135,2.0942,2.0628,2.0579,2.0395,2.0208,2.0208,2.0208,2.0208,2.0208,1.9989,1.979]}]]